ECMWFNIL_925_thetae_000.txt.gz
Theta_e
316 316 315 315 314 313 314 314 313 313 313 313 313 312 312 313 314 314 314 313 312 312 313 313 313 315 316 316 317 317 318 319 319 319 320 321 322 324 325 327 329 330
315 314 314 314 313 312 313 314 313 313 313 313 313 312 313 313 313 313 313 313 313 313 313 313 313 313 314 315 315 316 317 317 318 318 320 320 321 322 323 324 326 328
314 314 313 313 312 312 312 313 313 313 313 313 313 313 313 313 313 314 313 313 313 312 312 311 311 312 312 313 313 314 316 316 317 318 319 320 320 321 322 323 324 325
314 313 312 312 311 312 313 312 312 312 312 313 313 313 313 312 313 312 312 312 312 311 311 310 310 310 310 311 311 312 313 314 316 317 317 318 319 320 321 322 322 323
314 313 312 311 311 312 312 312 312 312 312 312 312 312 312 311 311 311 310 311 311 310 310 310 309 309 309 309 310 311 311 312 313 314 315 317 318 319 319 320 321 322
315 313 312 312 312 312 312 312 312 312 312 311 311 311 310 310 310 310 309 309 308 308 309 308 308 308 308 308 308 309 310 310 311 311 313 314 316 317 318 319 321 321
314 314 313 312 312 312 312 312 312 311 311 311 310 310 310 310 309 309 308 308 307 307 307 307 307 307 307 307 307 308 308 309 309 310 311 312 313 315 316 317 319 320
315 314 313 312 312 312 312 311 311 311 310 310 310 309 309 309 309 308 307 307 307 306 306 306 306 306 306 306 306 306 307 307 308 308 309 310 311 312 313 315 316 317
315 314 313 312 312 312 312 311 311 311 310 310 310 309 309 309 308 307 307 306 306 306 306 306 306 306 306 306 306 306 306 306 306 307 307 308 308 309 311 312 314 315
314 314 313 313 312 312 312 312 311 311 310 310 309 309 309 308 308 307 307 306 306 306 306 306 306 306 306 305 305 305 305 305 305 306 306 306 307 307 308 309 311 313
314 314 313 313 312 312 311 311 311 311 311 310 310 309 308 308 307 307 306 306 305 305 305 305 305 305 305 305 305 305 305 305 305 305 305 305 306 306 307 308 309 311
315 314 313 312 312 312 311 311 311 311 310 310 309 309 308 307 307 306 306 305 305 304 304 304 304 305 305 304 304 304 304 304 304 304 304 305 305 305 306 307 307 309
315 314 313 312 312 312 311 311 311 310 309 309 308 308 307 307 306 305 305 304 304 304 304 304 303 304 303 303 304 304 303 304 303 303 304 304 304 305 305 306 307 308
314 314 312 312 312 311 311 310 310 309 308 307 307 307 306 306 305 304 304 304 304 303 303 303 303 303 303 303 303 303 303 303 303 303 303 304 304 304 305 305 306 307
313 312 312 311 311 311 310 309 308 308 308 307 306 306 305 305 304 304 304 304 304 304 303 303 303 303 303 303 303 303 303 303 303 303 303 304 304 304 305 305 306 306
312 311 311 311 310 310 309 308 308 308 307 306 306 305 304 304 303 303 303 303 303 303 303 303 302 302 302 303 302 303 302 302 302 302 302 303 303 304 304 305 306 306
311 311 311 311 310 309 308 308 308 307 307 306 305 304 304 303 303 303 303 302 302 302 302 302 302 302 302 302 302 302 302 302 302 302 302 302 302 302 303 303 304 305
311 311 311 310 309 308 308 307 307 307 306 305 304 304 303 303 303 302 302 302 301 301 301 301 301 301 301 301 301 301 301 301 301 301 301 301 301 302 302 302 303 304
311 310 309 308 308 307 307 307 307 306 305 305 304 304 303 303 302 302 301 301 301 300 300 300 300 299 300 299 299 299 299 299 299 299 300 301 301 301 301 301 302 302
310 309 308 308 307 307 306 306 306 305 305 304 303 303 302 302 301 301 301 301 300 300 300 299 299 299 298 298 298 298 298 298 298 298 298 299 299 300 300 301 301 301
308 308 307 307 307 307 306 306 306 305 304 303 303 302 302 301 301 301 301 301 300 300 299 299 298 298 298 298 297 297 297 297 297 297 297 298 298 298 299 299 300 300
308 307 306 306 306 306 306 306 305 304 303 303 302 301 301 301 301 301 301 300 300 299 299 298 298 297 297 297 297 296 296 296 296 296 297 297 297 298 298 298 299 299
307 306 306 306 306 306 306 305 305 304 303 302 301 301 301 301 300 300 300 299 299 299 298 298 297 297 297 296 296 296 296 296 296 296 296 296 297 297 297 298 298 298
305 305 305 306 305 305 305 304 304 303 302 301 301 301 301 300 300 299 299 299 298 298 297 297 296 296 296 295 295 295 295 295 295 296 296 296 296 297 297 297 298 298
304 304 305 305 305 304 304 303 302 302 301 300 300 300 299 299 299 298 298 298 298 297 296 296 295 295 295 295 295 295 295 295 295 295 295 295 296 296 296 297 297 298
303 304 304 303 303 303 302 302 301 300 300 299 299 299 299 298 298 298 298 297 297 296 295 295 294 294 294 294 294 294 294 293 294 295 295 295 295 296 296 297 297 297

ECMWFNIL_925_thetae_003.txt.gz
Theta_e
316 316 316 315 313 314 315 314 313 314 314 313 312 313 313 313 313 313 313 312 311 310 309 309 311 311 311 312 313 314 315 315 316 316 317 317 318 318 318 319 322 325
317 317 316 315 314 314 314 313 313 313 313 313 312 312 312 312 313 313 313 313 312 311 310 310 311 311 311 311 311 312 312 313 314 315 316 316 316 317 318 319 320 321
317 317 316 315 314 313 313 314 313 312 312 313 313 312 312 312 312 312 313 313 312 311 311 311 311 310 310 310 310 310 310 311 311 313 314 314 315 315 316 317 318 319
316 316 315 314 313 312 313 313 313 312 311 311 312 312 312 312 312 313 313 311 311 311 311 311 310 310 309 309 309 309 309 309 310 310 311 312 312 313 315 316 317 318
316 315 315 314 313 312 312 312 312 311 309 309 311 312 312 312 312 311 310 309 309 310 310 309 308 308 308 308 308 308 308 308 308 309 309 310 310 311 312 313 314 316
316 315 314 313 313 312 312 312 312 310 308 310 311 312 311 311 310 309 309 309 309 308 308 308 307 306 306 307 307 307 307 307 307 307 308 308 309 309 310 311 312 313
316 315 314 313 312 311 311 312 311 310 310 311 311 310 309 308 307 308 308 308 308 307 307 307 306 306 306 306 306 306 306 306 306 306 306 307 307 308 308 308 309 310
317 315 314 312 311 311 311 311 310 309 310 311 310 309 308 307 307 308 308 308 308 307 307 306 306 306 306 306 306 306 306 306 306 306 306 306 306 307 307 307 307 308
317 315 314 312 311 311 311 310 310 310 310 309 309 308 308 308 308 308 308 308 307 307 306 306 306 306 306 306 306 306 306 305 305 305 305 305 306 306 306 306 306 306
316 315 314 312 312 312 311 311 310 310 310 309 309 309 309 309 309 309 308 308 307 306 306 306 305 305 305 305 305 305 305 305 305 305 305 305 305 305 305 306 306 306
316 315 314 313 312 312 312 311 311 310 310 310 310 309 309 309 309 308 308 307 307 306 305 305 305 304 304 304 304 304 304 304 304 305 305 305 305 305 305 305 305 305
315 314 314 313 312 312 312 311 311 311 310 310 310 310 309 309 309 308 307 307 306 305 305 304 304 304 303 303 303 303 303 303 304 304 304 304 304 304 304 304 304 305
315 315 314 313 312 312 312 311 311 311 311 310 310 310 309 309 308 307 306 306 305 304 304 304 303 303 303 303 303 303 303 303 303 303 303 303 304 304 304 304 304 304
315 314 314 313 313 312 312 311 311 311 311 310 310 309 308 308 307 306 306 305 304 304 303 303 303 303 303 303 303 303 303 303 303 303 303 303 303 303 303 304 304 304
315 314 313 313 312 312 312 311 311 311 310 310 309 308 307 307 306 305 304 304 303 303 303 302 302 302 302 302 302 302 302 302 302 303 303 303 303 303 303 303 303 303
315 314 313 313 312 312 311 311 311 310 309 309 308 307 307 306 305 304 304 303 303 302 302 302 301 301 301 301 301 301 301 301 301 301 301 301 302 302 302 302 302 302
315 314 313 312 311 311 311 310 309 309 308 308 308 307 306 305 304 304 303 303 302 302 302 301 301 300 300 300 300 300 300 300 300 299 299 299 300 300 301 301 301 301
314 313 312 311 311 311 310 309 308 308 308 307 307 306 305 305 304 303 303 302 302 301 301 301 300 300 300 299 299 299 299 299 299 299 298 298 298 298 299 300 300 301
313 312 311 311 310 310 309 308 308 307 307 307 306 305 305 304 303 303 302 301 301 301 300 300 300 300 300 300 299 299 298 298 298 298 298 297 297 297 297 298 298 299
311 311 311 310 309 308 308 307 307 307 306 306 305 305 304 303 302 302 301 301 300 300 300 300 300 300 300 299 299 298 298 298 297 297 297 297 296 296 297 297 297 297
310 310 309 309 308 307 307 307 306 306 306 305 305 304 303 302 301 301 300 300 300 300 299 299 299 299 299 298 298 297 297 297 296 296 296 296 296 296 296 296 296 297
309 308 308 307 307 307 307 306 306 306 305 304 303 302 301 301 300 300 299 299 299 299 298 298 298 298 298 297 297 296 296 295 295 295 295 295 295 295 295 295 296 296
308 307 307 306 306 306 306 306 305 305 303 302 301 300 300 300 299 299 298 298 298 298 298 297 297 297 297 296 295 295 295 294 294 294 294 294 294 294 295 295 295 295
307 306 306 306 306 306 305 305 304 303 301 300 300 300 299 299 298 298 297 297 297 297 297 297 296 296 296 295 295 294 294 294 294 294 294 294 294 294 294 294 294 294
306 305 305 305 305 304 304 303 303 302 300 300 300 299 298 298 297 297 297 296 296 296 295 295 295 295 295 295 294 294 294 293 293 293 293 293 293 293 293 293 293 294
305 305 304 304 304 303 303 302 301 301 300 300 299 298 298 297 297 296 296 296 295 295 295 294 294 294 294 294 294 293 293 293 293 293 293 293 293 293 293 293 293 294

ECMWFNIL_925_thetae_006.txt.gz
Theta_e
315 315 315 315 314 314 313 312 312 312 312 313 313 313 314 314 314 315 314 312 311 310 310 308 306 304 304 305 306 307 309 309 310 311 312 313 314 314 314 314 314 315
317 316 316 315 315 314 313 313 313 312 311 312 313 313 313 314 313 313 312 312 312 311 311 309 307 306 307 308 307 307 308 308 309 309 310 311 311 312 312 312 313 313
317 317 316 315 315 313 313 314 314 313 312 313 313 312 313 312 312 312 312 312 312 312 311 309 307 307 308 309 309 308 308 308 308 308 309 309 309 310 310 310 311 311
317 317 316 315 315 314 313 315 314 313 313 313 313 312 312 312 312 312 312 312 312 311 309 308 308 309 308 307 306 306 307 308 308 308 308 308 308 308 308 308 309 309
316 316 315 315 316 315 314 314 314 313 313 313 313 312 312 312 312 311 312 312 311 309 308 308 309 308 307 306 305 305 305 306 307 307 307 307 307 307 307 307 307 308
316 316 316 316 316 315 314 314 313 313 312 312 312 312 312 311 311 312 311 310 309 308 308 308 308 307 306 305 305 305 305 305 305 306 306 306 306 306 306 306 306 306
317 317 316 316 316 315 314 313 313 313 312 312 311 310 310 311 311 311 309 308 307 308 308 307 307 306 306 305 305 305 305 305 305 305 305 305 305 305 305 304 305 305
318 317 316 316 316 315 313 312 312 313 312 311 309 308 310 310 310 308 307 307 307 308 307 307 307 306 306 306 305 305 305 305 305 305 305 305 305 305 305 304 304 305
319 318 317 316 315 314 313 312 312 312 312 310 308 309 310 309 307 307 307 308 308 308 307 306 306 305 305 305 305 305 304 304 304 304 304 304 304 304 305 305 305 305
319 318 317 315 314 313 312 312 312 312 311 309 308 308 308 308 308 308 308 308 308 307 307 306 305 305 304 304 304 304 303 303 303 303 303 303 303 303 304 304 304 305
319 318 317 315 314 313 312 311 311 311 310 308 308 308 308 308 308 308 308 308 307 307 306 305 304 304 304 303 303 303 303 303 303 303 302 302 302 303 303 303 304 304
318 317 316 315 314 313 312 311 310 310 309 309 308 308 309 309 309 309 308 308 307 306 305 304 304 303 303 303 303 303 303 302 302 302 302 302 302 302 302 303 303 303
318 317 316 315 314 313 312 311 310 310 309 309 309 309 310 309 309 309 308 307 306 305 304 304 303 303 303 302 302 302 302 301 302 302 302 302 302 302 302 302 303 303
317 316 316 315 314 313 312 311 311 311 310 310 310 310 310 310 309 308 307 306 305 304 303 303 303 302 302 302 302 301 301 301 301 300 300 300 301 301 301 302 302 302
315 315 315 314 313 312 312 312 311 311 311 310 310 310 310 309 308 307 307 305 304 303 303 303 302 302 302 301 301 301 300 300 299 299 299 299 299 299 299 299 300 300
314 314 314 314 313 312 312 312 311 311 311 310 310 310 309 308 307 307 305 304 303 303 303 302 302 302 301 301 300 300 299 299 299 299 299 298 298 298 298 298 298 298
314 314 314 313 313 312 312 312 311 311 311 311 310 309 308 307 307 306 304 304 303 302 302 301 301 300 300 299 299 299 299 299 299 299 299 298 298 298 298 298 297 297
314 314 314 313 312 312 312 312 311 311 311 310 309 308 307 307 306 305 304 303 302 301 301 300 300 299 299 299 299 299 299 299 299 299 299 298 298 298 297 297 297 297
314 314 313 313 313 312 312 311 311 310 309 308 308 307 306 306 304 303 303 302 301 300 300 299 299 298 298 298 298 298 298 298 298 298 298 297 297 297 296 296 296 296
313 313 313 312 312 311 311 311 310 309 308 307 307 306 305 304 303 302 301 300 300 299 298 298 297 297 297 297 297 297 297 297 297 296 296 296 295 295 295 295 295 295
313 312 312 312 311 311 310 309 308 308 307 306 305 305 304 302 301 301 300 299 298 297 297 296 295 295 295 295 295 295 295 295 295 295 295 294 294 294 294 294 294 294
312 312 312 311 310 309 309 308 307 307 306 305 305 303 302 301 300 299 299 298 297 296 294 294 293 293 294 294 294 294 294 294 294 294 294 294 294 293 293 293 293 294
312 311 311 310 309 308 307 307 306 306 305 304 303 301 301 300 299 298 298 297 296 294 293 293 293 293 293 294 294 294 294 293 293 293 293 293 293 293 293 293 293 293
311 310 309 308 307 307 306 306 305 305 303 302 301 301 300 299 298 298 297 296 294 293 293 293 293 293 293 293 294 294 293 293 293 293 293 292 292 292 292 292 292 292
309 308 308 307 306 306 305 305 304 303 302 301 300 299 298 297 298 298 296 294 293 293 292 292 292 292 293 293 293 293 293 293 292 292 292 292 292 292 292 292 292 292
308 307 306 306 305 305 304 303 302 301 300 300 299 297 297 298 298 297 296 294 293 292 291 291 291 292 292 292 292 292 292 292 292 292 292 291 291 291 291 291 291 291

ECMWFNIL_925_thetae_009.txt.gz
Theta_e
314 316 316 316 314 312 312 311 311 309 308 308 308 308 309 310 311 311 311 311 311 311 309 309 308 305 303 303 304 305 307 307 307 308 308 308 308 308 308 309 309 309
314 316 315 315 315 313 312 312 312 311 310 309 308 309 311 312 313 313 313 313 313 311 310 310 308 305 303 304 305 306 306 305 306 306 307 307 307 307 307 307 308 308
315 315 315 314 314 313 313 313 313 312 311 310 309 310 312 313 313 314 314 313 312 312 311 311 308 305 304 305 306 305 305 304 304 305 305 306 306 306 306 306 306 306
315 316 315 314 314 314 313 313 313 313 312 311 310 311 312 313 313 313 313 312 312 311 311 310 307 305 305 306 306 305 304 304 304 305 305 305 305 305 305 305 305 305
316 316 316 315 314 314 314 314 314 313 312 312 311 311 312 313 312 312 312 312 311 311 311 309 306 305 306 306 305 305 305 305 305 305 305 305 305 305 305 305 305 305
317 317 316 315 315 315 315 315 314 313 313 312 312 312 312 312 311 312 311 311 311 311 309 307 305 306 306 306 305 305 305 305 305 305 305 305 305 304 304 304 304 304
318 317 317 316 316 316 316 315 314 313 313 313 313 312 312 312 312 311 310 311 311 309 307 306 306 306 306 306 306 305 305 305 305 304 304 304 304 303 303 303 303 303
318 318 317 317 317 316 315 314 314 313 314 314 313 312 313 312 311 311 311 310 309 307 306 306 307 307 306 306 305 305 305 304 304 303 303 303 302 302 302 302 302 302
318 318 317 317 316 315 315 315 314 314 314 313 313 313 312 311 311 311 310 308 307 306 307 307 307 306 306 305 304 304 304 303 303 303 302 302 302 302 302 302 302 302
316 317 316 316 316 315 315 315 314 314 313 313 312 312 311 311 311 310 308 307 307 307 308 307 307 306 305 305 304 303 303 303 303 302 302 302 302 302 302 302 302 302
315 315 315 316 315 315 315 315 314 313 312 312 312 310 310 310 310 308 307 307 308 308 308 307 306 305 304 304 303 303 302 302 302 302 301 301 301 301 301 301 302 302
316 315 315 315 315 315 316 315 314 313 312 312 311 309 310 309 308 307 307 308 308 308 307 306 305 304 303 303 302 302 302 302 301 301 300 300 300 300 300 300 301 302
317 316 316 315 315 315 315 314 313 312 312 311 310 309 309 309 308 308 308 308 308 307 306 305 304 303 302 302 302 302 301 301 300 300 299 299 299 298 299 298 299 300
317 317 317 316 315 315 314 313 312 312 311 310 309 309 309 309 309 309 309 308 307 306 305 304 303 302 302 302 302 301 301 300 300 299 299 299 299 298 298 298 298 298
318 317 317 316 315 314 313 313 312 311 311 310 309 309 309 309 309 309 308 307 306 304 303 303 302 302 302 301 300 300 299 299 299 299 299 299 299 299 299 299 298 298
318 317 316 314 314 313 313 312 311 311 310 310 310 310 309 310 309 308 307 306 305 303 303 303 302 301 300 300 299 299 298 298 298 298 298 298 298 298 298 298 298 298
317 316 314 314 314 314 313 312 311 311 310 310 310 310 310 309 308 307 306 305 304 303 303 302 301 300 298 297 296 296 296 297 296 296 296 297 297 297 297 297 297 297
315 314 313 313 313 313 313 312 311 311 311 310 310 310 310 308 307 306 305 304 303 303 302 301 299 297 295 293 293 294 294 294 294 294 295 295 295 296 296 296 296 296
314 314 313 312 312 313 313 312 311 311 311 310 310 310 309 307 306 305 304 303 303 302 301 299 296 293 292 292 292 292 293 293 294 294 294 294 294 294 294 294 295 294
314 314 314 313 313 313 313 312 311 311 311 310 310 309 307 306 305 304 304 303 302 300 298 296 293 292 292 291 291 292 292 293 293 294 294 294 293 293 293 293 293 293
314 313 312 312 313 313 312 311 311 311 310 310 309 307 306 305 304 304 303 301 300 299 296 293 292 292 292 291 291 291 292 292 293 293 293 293 293 293 293 293 292 293
312 311 309 309 310 310 310 311 311 310 309 308 307 306 305 304 303 303 301 300 298 297 294 293 292 292 291 291 291 291 291 292 292 292 293 293 293 292 292 292 292 292
311 310 308 308 309 310 310 310 310 309 308 307 306 305 304 303 303 301 299 297 297 295 293 292 292 292 291 290 290 291 291 291 292 292 292 292 292 292 292 292 291 291
311 310 310 310 311 311 310 309 308 308 307 306 305 304 303 302 300 298 297 297 296 294 293 293 292 291 291 290 290 290 291 291 291 292 292 292 292 291 291 291 291 291
311 311 310 310 310 310 309 308 307 306 306 305 304 303 302 299 298 297 297 297 296 294 294 293 292 291 291 290 290 290 290 291 291 291 291 291 291 291 291 291 291 291
311 310 310 309 309 309 308 306 306 305 304 303 303 301 299 297 297 297 297 297 296 295 295 294 293 291 290 291 290 290 290 290 291 291 291 291 291 291 291 291 291 290

ECMWFNIL_925_thetae_012.txt.gz
Theta_e
311 311 310 311 312 311 310 310 309 308 307 307 307 307 307 309 310 310 311 311 311 312 311 311 310 306 304 304 304 304 304 303 304 305 305 305 305 305 305 305 305 305
311 311 310 311 312 312 311 310 310 310 309 308 307 307 308 309 309 310 311 311 312 312 312 311 310 306 304 304 305 305 304 304 304 304 304 305 304 305 305 304 304 304
311 311 311 312 313 314 312 311 310 310 310 310 308 307 308 309 310 311 312 312 313 313 312 311 310 306 304 305 305 305 304 304 304 304 304 305 305 305 304 304 304 304
312 312 312 312 313 314 314 313 311 311 311 310 310 309 308 309 310 311 313 313 313 313 312 311 309 306 305 305 305 305 304 304 305 305 304 304 304 304 303 303 303 302
312 313 313 313 314 314 315 314 312 312 312 311 311 309 309 310 311 312 313 313 313 312 312 310 307 305 305 306 305 305 305 304 305 304 303 303 303 303 302 302 302 302
313 313 313 314 314 314 315 314 313 313 312 312 312 310 310 310 311 312 312 312 312 311 311 308 306 306 306 306 306 305 305 304 304 303 303 303 302 302 302 302 301 301
315 314 314 314 314 315 315 314 314 313 313 313 313 311 310 311 311 312 312 311 311 311 310 307 305 305 305 305 306 305 305 304 303 302 302 302 301 301 301 301 301 301
316 315 315 315 315 315 315 314 314 314 313 313 313 312 311 311 312 312 311 311 311 310 308 306 305 305 305 305 306 305 304 303 302 301 301 301 300 300 300 300 300 300
317 316 315 315 315 316 316 315 314 314 313 314 313 312 312 312 312 312 311 311 310 309 307 305 305 306 306 306 306 305 303 301 301 301 301 300 300 299 299 299 299 299
317 316 316 315 316 316 316 316 315 314 314 314 313 312 312 312 312 311 311 311 310 308 306 305 305 306 306 306 305 303 302 302 302 301 300 300 299 298 298 298 298 298
318 316 315 316 316 316 316 316 315 314 315 314 313 312 312 312 312 312 311 310 309 307 305 305 306 306 306 305 303 302 302 302 301 301 300 299 298 298 298 298 298 298
317 315 315 316 315 316 316 315 315 315 315 314 313 313 313 312 312 311 310 309 307 306 306 306 307 307 305 304 302 302 302 301 301 300 299 299 298 298 298 298 298 298
317 316 316 315 315 316 316 316 315 315 314 313 313 313 313 312 312 311 309 308 307 306 307 307 307 305 304 302 302 301 301 300 300 299 298 298 298 298 298 298 298 298
317 317 316 315 315 315 315 315 315 314 314 314 313 313 312 312 311 309 308 307 307 307 307 306 305 303 302 302 301 301 300 299 298 297 297 297 297 297 297 297 297 297
317 317 317 315 314 314 315 316 315 314 314 313 313 312 312 311 310 308 307 307 308 307 306 305 303 302 302 301 300 298 296 295 294 294 294 294 295 295 295 295 295 295
318 318 317 316 315 315 315 316 314 313 313 313 312 311 311 310 309 308 308 308 307 306 304 303 302 302 301 299 297 294 293 292 292 292 293 293 294 294 293 293 293 294
318 318 317 316 316 314 314 313 311 311 312 311 311 310 310 309 308 308 308 308 307 305 303 303 302 301 299 296 294 292 291 292 292 292 292 293 293 293 293 293 293 293
317 317 317 316 315 313 312 311 310 310 311 311 310 310 309 309 308 309 308 306 305 303 303 302 301 299 297 294 293 292 291 291 291 291 292 292 292 292 292 293 293 293
316 317 316 315 313 312 311 310 310 310 311 310 310 309 309 309 309 308 306 305 304 303 302 301 300 298 295 293 292 292 291 291 291 291 291 291 291 291 292 292 292 292
314 316 316 314 312 311 310 310 310 310 310 309 309 309 309 309 308 307 305 304 303 303 301 300 299 296 294 293 293 292 291 291 291 291 291 291 291 291 291 291 291 292
313 315 314 313 311 310 310 310 309 310 310 309 309 309 309 309 307 305 305 304 303 302 301 299 297 294 293 293 293 292 291 291 291 291 291 291 290 290 290 291 291 291
313 313 313 312 311 310 309 309 309 309 310 309 309 309 308 307 306 305 304 303 302 301 299 297 295 294 293 293 293 292 291 291 291 291 290 290 290 290 290 290 291 291
313 313 312 311 310 309 308 308 308 309 309 309 309 308 307 306 305 304 304 302 300 299 297 295 295 294 294 293 293 292 291 291 291 290 290 290 290 290 290 290 290 291
312 312 312 311 310 309 308 308 307 307 308 309 308 307 306 305 304 303 302 300 298 296 296 296 295 294 294 294 293 292 291 291 290 290 290 290 289 290 290 290 290 290
311 311 311 310 309 308 308 307 306 306 307 308 308 306 305 304 303 302 300 298 296 296 296 296 296 295 294 294 293 291 291 291 290 290 289 289 289 289 290 290 290 290
310 311 311 310 309 308 307 307 307 307 307 306 305 305 304 304 303 300 298 297 296 297 297 296 296 295 295 294 292 291 291 291 290 290 289 289 289 289 289 290 290 290

ECMWFNIL_925_thetae_015.txt.gz
Theta_e
314 313 313 313 311 311 310 309 308 307 307 307 308 308 309 310 311 311 311 311 311 310 310 308 305 304 304 304 303 304 305 305 305 306 306 306 307 307 306 306 306 306
316 315 315 314 312 311 310 310 309 308 307 306 307 307 308 309 311 311 312 312 312 311 311 309 306 304 304 304 303 304 305 305 305 306 306 306 307 306 306 306 306 306
317 317 317 316 313 311 311 311 310 309 308 307 307 308 307 308 310 312 313 313 312 312 311 309 306 304 304 304 303 303 304 305 305 306 306 305 305 305 305 305 305 305
317 317 317 316 313 311 311 311 311 310 309 308 307 308 308 308 309 312 313 313 313 312 311 309 306 305 304 304 304 304 304 304 305 306 305 305 304 304 304 304 304 304
317 317 316 315 314 311 311 311 312 312 311 309 308 308 309 309 309 311 313 313 313 312 311 309 307 305 305 305 304 304 305 305 304 305 305 305 304 304 303 304 303 304
316 316 316 315 313 312 311 311 311 313 313 311 309 309 309 309 310 311 312 313 313 313 311 310 307 305 305 305 304 305 305 305 304 303 304 304 304 303 303 303 303 303
316 316 315 314 312 311 311 311 312 312 314 312 310 310 309 309 310 311 312 313 313 313 311 309 307 305 305 305 305 305 304 303 303 303 303 303 303 303 302 302 302 302
315 315 315 314 312 312 311 312 312 312 314 314 312 311 310 310 310 311 312 313 313 312 311 309 306 305 306 306 305 305 303 302 303 303 303 303 302 302 302 302 301 301
314 314 314 314 314 313 313 312 313 313 314 314 314 312 311 311 310 311 312 313 313 312 310 308 306 306 306 306 305 305 303 303 303 303 303 303 303 302 301 301 301 301
315 314 314 314 314 315 315 314 314 313 314 315 315 313 312 311 311 311 312 313 312 311 309 307 306 306 306 306 305 304 304 303 303 303 303 302 302 301 301 301 301 301
316 315 315 315 315 315 315 315 314 314 314 315 315 314 313 312 312 312 312 312 311 310 308 306 306 306 306 306 304 303 303 303 302 302 302 301 301 301 300 301 301 301
317 316 316 315 316 315 315 315 315 314 314 314 315 314 313 312 312 312 312 312 311 310 308 306 306 306 306 305 303 302 302 302 302 301 300 298 298 298 299 299 300 300
317 317 317 316 316 316 316 315 315 315 314 314 314 314 313 312 312 312 312 311 311 310 308 306 306 306 306 304 303 302 302 301 300 298 296 295 295 296 296 297 298 298
318 318 317 317 317 316 316 315 314 315 315 314 314 313 313 312 312 311 311 311 311 309 307 306 306 306 305 304 303 302 301 300 297 295 294 294 294 294 295 295 296 297
315 317 318 318 318 317 316 315 315 314 314 314 313 312 312 311 311 311 311 310 309 308 307 306 306 305 304 303 303 302 300 297 295 293 293 294 295 295 295 295 295 296
311 313 315 317 317 317 317 316 315 314 313 313 312 311 311 311 310 310 311 309 308 307 307 306 306 305 304 303 302 300 298 295 293 293 293 294 294 295 295 295 295 295
310 312 313 315 316 316 316 315 315 313 312 312 311 311 311 311 310 310 310 309 308 307 306 306 305 304 303 302 300 298 295 293 293 293 293 293 294 295 295 295 295 295
309 311 313 314 315 315 315 315 314 313 312 311 311 310 311 311 310 310 310 308 307 307 306 305 304 303 302 300 297 295 293 293 293 293 293 293 294 294 294 294 294 294
307 310 312 314 314 315 315 314 313 312 311 311 310 310 310 310 311 310 309 308 307 306 305 304 303 302 300 296 294 293 293 293 293 292 293 293 293 293 294 294 294 294
306 309 311 313 314 314 314 313 313 312 311 311 310 310 310 310 310 309 308 307 307 306 304 303 302 300 297 294 293 293 293 293 292 292 292 292 292 292 293 293 293 293
306 308 310 312 313 313 313 312 312 311 311 310 310 309 309 309 308 308 307 307 306 305 304 303 300 297 295 293 294 294 294 293 292 292 292 292 292 292 292 292 292 292
307 308 310 311 312 312 312 312 312 311 311 310 309 309 308 308 307 307 307 306 305 304 303 301 298 295 294 294 294 294 293 292 292 292 292 292 292 292 292 292 291 291
307 308 309 311 311 312 311 312 312 311 310 309 308 307 307 307 307 307 306 306 304 303 302 300 297 294 294 294 294 294 293 292 292 293 293 293 293 292 292 292 291 290
306 308 309 310 311 311 311 312 311 310 309 308 307 306 306 306 306 306 305 305 304 302 301 299 296 294 294 295 294 294 293 292 292 293 293 293 293 293 292 292 291 290
306 307 308 310 310 311 311 311 311 310 308 307 306 305 304 304 304 304 304 303 303 301 299 298 296 295 295 295 294 293 292 292 293 293 293 293 293 293 293 292 292 292
306 307 308 309 310 311 310 310 310 308 307 306 304 304 304 304 304 304 303 301 300 298 297 296 296 295 295 294 294 293 292 292 293 293 293 293 293 293 292 292 292 292

ECMWFNIL_925_thetae_018.txt.gz
Theta_e
323 323 323 321 318 318 320 319 318 319 317 317 318 318 318 318 315 314 315 316 315 314 313 312 311 311 311 311 311 311 312 312 312 312 312 312 312 312 311 311 311 311
323 323 323 322 320 319 320 320 319 318 317 317 317 318 319 319 317 316 316 316 316 315 314 313 312 312 312 311 311 312 312 312 312 312 312 312 312 311 311 311 310 310
323 323 322 322 322 322 321 319 318 318 318 318 318 318 320 320 318 317 316 316 316 315 315 314 313 312 312 312 311 312 312 312 312 312 312 312 311 311 311 310 310 310
322 322 322 323 323 323 322 319 318 318 318 319 319 319 320 320 319 317 317 317 316 316 315 314 312 312 311 311 311 311 311 311 311 311 311 310 310 310 310 309 309 309
323 322 322 323 323 324 323 321 319 318 318 319 319 319 319 319 319 318 318 317 317 316 315 314 313 312 311 311 311 311 311 311 311 310 310 309 309 308 308 308 308 308
323 322 322 322 323 324 323 322 320 319 318 318 319 318 318 318 318 318 318 317 317 316 315 314 313 312 312 312 312 311 311 310 310 309 309 309 308 308 307 307 308 307
322 322 322 322 323 323 323 322 321 320 320 319 319 318 318 318 318 318 318 318 317 316 316 314 313 313 312 311 312 311 310 309 309 308 308 308 308 308 307 307 307 306
321 321 322 322 323 323 323 322 321 321 320 319 320 319 318 318 317 318 318 318 317 317 315 315 313 312 312 311 311 310 310 309 309 308 308 308 308 307 307 306 307 306
320 320 321 322 322 322 323 322 321 321 321 320 320 319 319 318 317 318 318 317 318 317 316 315 314 312 312 311 311 310 309 309 309 308 308 308 308 307 306 306 307 306
322 321 321 322 322 322 322 322 322 321 321 320 319 319 319 319 318 318 318 317 317 317 316 315 313 313 312 311 310 310 309 309 308 308 308 307 307 306 305 305 305 305
322 322 322 322 322 322 322 322 322 322 321 320 320 319 320 320 319 319 319 317 317 317 316 314 314 312 312 311 310 310 309 308 308 308 307 307 306 305 304 304 304 304
322 322 322 322 322 323 323 322 322 322 321 321 320 319 320 320 319 319 319 318 317 317 316 315 313 312 312 311 310 309 309 308 308 307 307 306 305 304 303 303 303 302
321 322 323 322 322 322 322 322 322 321 321 321 320 319 319 320 320 320 319 317 317 316 315 314 313 312 311 311 310 309 308 308 307 307 306 304 303 302 302 301 301 301
316 318 320 321 322 322 322 322 322 321 321 321 320 320 320 320 320 319 318 317 317 316 315 314 313 312 311 310 309 309 308 308 307 305 304 303 302 301 301 300 300 300
311 313 315 317 319 320 321 322 322 321 321 320 320 320 320 320 319 319 318 316 316 316 314 313 313 312 311 310 309 308 308 306 305 303 303 302 301 301 300 300 300 300
311 312 312 313 315 317 318 320 321 321 321 321 320 320 320 319 319 318 317 316 315 315 313 313 312 311 309 308 308 308 306 305 303 302 302 301 300 300 300 300 299 299
310 311 312 312 313 314 316 317 319 320 321 320 320 320 319 319 318 318 317 315 315 314 313 312 311 309 308 307 306 305 304 303 302 302 301 300 300 299 299 299 299 299
307 309 310 312 313 314 315 316 317 319 320 320 319 319 319 318 317 317 316 315 315 314 313 311 310 308 306 305 304 303 302 302 302 301 300 300 299 299 299 299 299 298
307 308 309 310 312 314 315 316 317 318 319 319 320 319 318 318 317 316 315 315 314 313 313 311 308 306 305 304 303 302 300 300 300 300 299 299 299 298 298 298 298 298
307 307 308 309 310 312 314 315 316 317 317 318 318 318 318 318 317 316 315 315 314 313 312 309 306 305 304 303 302 300 297 297 299 298 297 298 298 298 298 298 298 298
307 307 308 309 310 311 313 314 314 315 316 316 317 317 317 317 317 316 315 314 313 311 310 307 305 304 303 302 300 297 294 295 298 298 297 298 298 298 298 298 298 298
307 307 308 309 310 311 312 313 314 315 315 316 316 315 316 316 316 315 314 313 311 310 307 305 303 303 302 299 297 295 294 295 298 298 298 298 298 298 298 298 298 298
308 308 308 309 310 311 312 313 314 314 314 315 315 315 315 315 315 314 312 311 309 307 306 304 301 300 299 297 295 295 295 296 298 298 297 298 298 298 298 298 298 297
307 307 308 308 310 311 312 313 314 314 315 314 314 314 314 314 313 312 310 309 308 306 305 303 300 297 296 295 295 294 295 296 298 297 297 298 298 298 298 298 297 297
307 308 308 308 309 310 312 313 313 314 313 313 313 313 313 313 311 309 308 307 305 304 304 303 299 296 294 294 294 294 294 296 297 297 297 298 298 298 297 297 297 296
307 308 308 309 309 310 311 312 313 313 312 312 312 312 312 310 308 308 306 305 304 303 302 300 297 294 293 294 294 293 294 295 296 296 297 297 297 297 296 296 296 295

ECMWFNIL_925_thetae_021.txt.gz
Theta_e
322 321 320 319 319 320 320 320 320 320 319 319 320 320 320 318 316 316 317 318 317 316 315 314 314 314 315 315 315 315 315 316 316 316 316 316 315 315 315 314 315 314
323 322 322 320 318 319 320 320 320 321 319 318 319 320 320 320 317 316 318 318 317 316 315 315 314 314 314 314 314 314 315 315 315 315 316 316 315 315 315 314 314 314
324 324 323 322 320 319 320 321 320 321 319 318 319 320 321 321 318 317 318 318 317 317 316 315 315 315 315 314 314 315 314 315 315 315 315 315 315 314 314 314 313 312
324 325 324 324 322 321 322 322 321 320 319 319 319 320 321 322 319 318 319 318 318 318 317 316 315 315 315 314 314 315 315 315 315 314 314 314 313 313 313 313 312 311
325 325 325 324 323 323 323 323 321 320 319 320 320 320 321 322 320 319 319 318 318 319 317 317 315 315 314 313 314 315 314 314 314 313 313 313 312 312 312 312 312 311
326 326 325 324 323 323 324 324 322 321 319 320 321 320 321 322 321 319 319 318 318 319 318 317 316 315 315 314 314 314 314 314 314 313 313 313 312 311 311 311 312 311
325 326 325 324 324 323 323 324 323 321 320 320 320 320 321 322 321 319 319 319 318 318 318 317 316 315 315 315 315 315 314 314 313 313 312 312 312 311 311 311 310 310
323 324 325 325 324 324 325 325 324 322 320 320 320 320 320 322 321 320 320 319 319 318 318 318 317 316 315 315 314 315 314 314 313 312 312 312 312 311 311 311 310 310
322 322 323 323 323 324 324 324 323 323 321 320 321 320 320 321 320 320 320 320 319 319 319 318 317 316 316 314 314 314 314 313 312 312 312 312 311 311 311 310 310 310
323 323 323 322 323 323 322 321 322 324 322 321 322 321 320 321 320 319 320 320 320 320 319 318 317 317 316 315 314 314 314 313 312 311 312 312 311 311 310 309 310 310
324 324 324 324 324 324 321 320 320 322 322 321 322 321 320 321 320 320 320 320 320 320 320 319 318 317 317 315 315 314 313 312 312 311 311 311 310 310 309 308 309 309
324 325 325 325 325 324 322 320 319 321 322 321 321 322 320 320 320 320 320 320 321 320 320 319 319 318 317 316 315 314 313 312 312 312 311 311 310 310 308 308 307 307
321 322 324 324 324 324 324 323 322 323 323 321 320 321 321 320 320 320 320 320 321 320 320 320 319 318 317 316 315 314 313 313 312 311 311 311 310 308 307 307 306 305
315 316 318 319 321 322 323 324 323 323 323 322 322 322 322 321 320 320 320 321 321 321 320 320 319 319 317 316 315 314 313 313 312 311 311 310 309 307 306 305 305 304
312 313 313 314 316 318 319 321 322 322 322 323 323 323 322 322 321 321 321 321 321 321 320 320 319 318 318 316 315 314 313 312 312 311 311 309 308 306 305 305 304 304
310 312 312 313 313 314 315 316 318 319 321 322 322 323 323 322 321 322 322 322 322 321 320 320 319 318 317 315 314 314 313 312 312 311 309 308 307 306 305 305 304 304
308 309 310 311 312 312 313 314 315 316 318 320 321 321 322 322 322 322 322 322 322 321 320 320 319 318 316 314 313 313 313 312 311 309 308 307 306 305 305 304 304 303
307 308 308 309 310 311 312 313 314 314 315 317 319 319 320 321 321 321 321 321 321 320 319 319 317 316 315 314 312 311 311 311 309 308 307 306 305 305 304 303 303 303
307 307 308 308 309 309 310 311 313 313 314 315 317 318 319 319 320 320 320 320 320 320 319 318 317 316 314 313 311 310 309 308 308 307 306 305 304 304 303 302 302 302
307 307 308 308 308 309 309 309 310 311 313 314 315 317 318 319 319 319 320 320 320 319 319 317 316 315 313 311 310 308 307 307 307 306 304 304 303 303 302 302 301 301
308 308 308 308 308 308 309 310 310 311 312 312 313 315 316 317 318 318 319 319 319 319 318 317 315 314 313 310 309 307 306 305 305 304 302 302 302 302 301 301 301 301
308 308 308 308 308 308 309 309 310 311 312 312 312 313 315 316 316 317 318 318 319 318 317 315 313 312 310 309 307 305 303 303 303 302 301 301 301 301 301 301 301 301
308 308 308 308 308 308 308 309 309 310 311 312 313 313 313 315 315 316 316 317 317 317 315 313 310 309 308 307 304 301 299 300 302 301 300 301 301 301 301 301 301 301
307 307 307 308 307 307 308 308 309 309 310 312 313 313 314 314 314 314 315 316 317 316 313 309 307 306 304 302 299 297 298 300 301 301 300 301 301 301 301 301 301 300
307 307 308 308 308 308 307 308 309 309 310 311 312 313 313 313 313 314 314 315 314 312 309 307 306 302 299 297 296 296 298 300 300 299 300 300 300 300 301 301 300 300
307 307 308 308 308 308 309 309 309 310 310 311 312 312 312 312 312 313 313 311 310 308 306 306 304 298 295 295 295 295 296 298 299 299 299 299 300 300 299 299 298 298

ECMWFNIL_925_thetae_024.txt.gz
Theta_e
321 321 320 320 322 321 321 321 321 320 320 321 321 320 319 318 317 317 318 318 317 316 314 314 314 314 315 315 316 316 316 316 316 316 315 314 314 314 313 313 314 315
321 321 321 320 321 321 321 321 321 321 320 320 321 320 320 319 316 317 319 318 317 316 315 315 314 314 315 314 315 316 316 316 316 315 315 315 314 314 313 312 313 315
322 321 321 320 320 321 321 320 321 321 320 319 321 321 320 320 317 316 319 319 317 317 316 315 315 315 315 314 314 315 315 316 316 316 316 315 315 315 314 313 312 313
323 322 322 321 319 320 321 320 320 322 320 319 320 321 321 321 318 317 319 319 318 317 316 316 315 315 315 314 315 316 315 315 316 315 314 314 314 314 313 312 312 312
324 324 324 323 321 321 321 321 320 321 321 319 319 320 321 322 319 318 319 319 318 318 317 316 316 316 315 314 315 315 315 315 314 313 314 314 313 312 312 312 312 311
324 324 325 325 324 323 323 323 322 321 321 320 319 320 321 323 321 319 319 319 318 319 318 317 316 316 315 314 314 315 314 315 314 313 314 314 311 312 312 312 312 311
325 325 326 324 323 322 322 323 323 323 321 320 320 320 320 322 322 320 320 319 318 319 319 318 317 316 315 314 314 315 314 314 314 313 313 313 312 311 311 311 311 311
326 326 326 324 322 321 321 322 323 322 322 321 321 320 319 320 321 321 321 320 319 319 319 319 318 316 316 315 315 315 314 315 314 313 313 313 313 311 311 311 310 309
324 324 325 324 323 321 321 321 321 322 323 323 321 321 320 319 319 320 321 320 320 320 319 319 318 317 316 315 315 316 315 315 314 313 313 314 313 312 312 312 311 310
323 323 322 322 322 322 321 320 321 321 322 323 322 322 321 320 320 320 320 320 320 320 320 319 319 318 317 316 315 316 315 315 314 312 312 313 313 312 312 312 311 311
324 324 323 322 321 321 320 320 321 320 320 321 322 323 322 321 321 320 320 320 320 320 320 320 319 319 318 317 316 316 316 316 314 312 313 313 312 312 311 311 311 311
325 324 325 325 324 323 322 322 321 320 319 320 321 322 321 321 321 321 320 320 320 320 320 320 320 319 319 318 317 316 315 315 314 313 313 313 312 312 311 310 310 310
324 324 325 325 324 324 324 323 322 320 319 318 319 320 319 319 320 321 319 319 320 320 320 320 321 320 319 318 318 317 316 315 314 313 313 313 312 311 311 309 309 309
319 319 320 321 321 321 323 324 323 322 322 321 321 321 319 319 321 321 320 319 320 321 320 319 320 320 320 319 318 317 316 315 314 313 313 312 312 311 310 309 308 307
314 314 314 316 316 318 320 322 323 323 323 323 323 323 322 322 322 321 321 320 320 320 320 320 320 320 319 319 318 318 317 315 314 314 313 312 312 311 309 308 308 306
311 311 312 313 313 314 315 317 318 320 322 323 323 323 323 322 322 321 321 320 320 320 320 320 320 320 319 318 318 319 317 315 315 314 313 312 312 310 308 307 306 305
309 310 310 310 311 312 313 313 314 315 318 319 320 321 321 322 322 322 322 321 321 321 320 320 320 320 319 319 319 319 317 316 315 314 313 312 311 309 307 307 306 305
308 308 308 309 309 310 310 311 312 312 314 314 315 317 318 320 321 322 322 322 322 322 322 321 321 320 320 319 319 318 317 315 314 314 313 312 310 308 307 307 306 305
307 307 307 308 309 309 309 309 310 311 311 312 313 315 316 317 319 319 320 321 322 322 322 322 322 320 319 319 318 317 315 314 314 313 312 310 309 308 307 306 306 305
308 308 308 308 308 308 308 309 309 309 310 311 312 313 314 315 317 317 318 319 320 321 321 322 321 320 319 319 318 316 315 314 312 311 310 308 308 307 306 305 304 304
308 308 308 308 308 308 308 308 309 309 310 310 311 312 312 313 314 316 317 318 319 319 320 320 320 319 319 318 317 315 314 312 310 309 308 307 306 306 305 304 303 303
307 308 309 309 309 308 308 308 308 309 309 310 311 312 312 312 313 314 315 316 317 318 319 319 319 318 318 317 315 314 312 310 309 308 306 305 304 304 303 303 302 302
307 308 308 308 308 308 308 308 308 309 309 309 310 311 312 313 312 313 314 315 315 317 318 318 317 317 316 315 313 312 310 308 307 306 304 303 302 302 302 302 302 302
307 307 308 308 308 308 307 307 307 308 308 309 309 309 310 312 313 313 313 314 314 315 317 317 316 315 313 311 310 309 307 306 305 304 302 301 301 301 301 302 302 302
306 307 307 307 308 308 308 308 308 307 308 308 308 309 310 311 312 312 313 313 314 315 315 315 315 313 310 308 307 306 305 304 303 302 302 301 301 301 301 301 301 301
306 306 307 307 308 308 308 309 308 308 308 308 309 310 310 311 312 312 312 312 312 313 313 313 312 310 306 305 305 303 303 302 301 300 300 300 300 300 300 300 300 299

ECMWFNIL_925_thetae_027.txt.gz
Theta_e
319 319 320 320 319 320 320 319 320 320 320 320 319 318 317 315 315 317 317 315 312 310 311 311 313 316 316 316 314 312 311 312 311 310 308 307 310 313 314 314 313 312
318 319 320 320 320 321 321 320 320 321 320 321 320 319 319 316 315 317 317 315 312 310 309 308 312 315 315 315 314 311 310 311 312 312 310 306 307 310 314 314 313 312
318 320 321 321 320 320 321 321 320 320 320 321 320 319 320 318 315 316 317 315 313 312 309 307 311 314 314 314 314 313 313 315 316 315 313 310 308 308 311 313 313 312
320 320 321 321 321 320 320 322 320 319 320 321 321 320 320 319 316 315 316 317 315 314 312 309 310 314 314 313 314 314 314 315 315 314 314 314 312 308 308 311 313 313
320 320 320 319 321 320 320 321 321 319 319 320 321 320 320 320 318 317 316 317 316 315 315 312 311 314 314 313 314 315 314 315 313 311 313 314 312 310 307 309 311 312
321 321 319 318 321 321 319 320 321 320 319 319 320 321 320 321 320 319 318 317 317 317 317 316 313 314 315 313 314 315 314 314 313 312 314 312 310 310 309 309 310 310
323 323 322 320 321 322 319 320 321 321 320 319 320 320 320 321 321 321 320 318 318 317 317 318 316 314 315 313 314 315 314 314 313 312 314 312 310 311 310 310 311 311
324 324 324 324 323 323 321 321 321 321 321 320 320 320 320 320 321 321 321 320 319 318 318 318 318 316 315 314 313 314 314 314 314 313 314 313 311 311 310 309 311 311
325 325 325 324 323 323 323 322 322 322 321 320 320 320 320 320 320 319 320 320 320 320 319 319 319 318 317 315 314 314 314 314 314 313 313 313 312 312 310 309 309 309
325 324 324 323 322 322 322 322 322 322 322 321 320 320 320 320 319 319 320 320 320 320 320 319 319 319 318 317 315 314 314 314 315 314 313 313 313 312 311 310 310 309
323 322 323 323 322 322 321 321 321 322 322 321 321 321 321 321 320 320 320 320 320 320 320 319 320 319 319 318 318 316 315 315 315 315 313 312 313 313 312 311 312 310
323 322 323 323 322 321 321 320 321 321 321 321 321 321 322 322 321 321 320 321 321 321 321 320 320 320 319 319 318 317 316 315 315 315 314 312 312 313 312 311 312 311
324 324 324 325 324 322 321 321 320 320 320 320 319 319 321 321 321 322 321 320 319 320 321 321 320 320 320 319 318 317 316 316 315 315 315 314 312 313 312 311 311 311
323 323 323 324 324 324 323 323 322 321 321 320 319 318 319 320 320 321 320 318 317 318 320 320 320 320 320 320 319 318 317 316 316 315 315 314 313 313 312 311 311 310
316 316 316 317 319 320 322 323 322 322 322 321 321 321 320 320 319 319 319 318 317 318 320 320 319 319 320 320 319 319 318 317 316 315 315 314 313 312 312 311 311 310
312 312 313 314 315 316 318 320 320 321 321 321 321 320 321 321 321 321 321 320 320 320 321 320 320 320 320 319 319 320 319 318 317 316 315 314 313 312 312 311 310 310
311 310 311 312 312 313 314 315 316 317 318 320 321 320 320 321 321 322 322 322 322 322 321 321 320 320 319 319 320 320 319 319 318 317 315 314 313 312 312 311 310 309
308 308 308 309 310 310 310 311 312 313 314 316 317 317 318 320 321 322 321 321 322 322 321 321 321 321 320 320 320 320 320 319 318 317 316 314 313 312 312 311 309 308
307 307 307 308 309 309 309 309 310 310 310 311 311 312 314 316 317 319 320 321 322 322 321 321 321 321 321 321 321 320 320 319 318 318 316 314 313 312 311 310 308 307
307 307 307 308 308 308 308 308 308 308 309 309 309 310 311 312 312 314 316 318 319 320 320 320 320 320 321 321 321 321 320 319 318 317 316 314 313 312 311 310 308 307
307 307 308 308 308 307 307 307 307 308 308 309 309 310 310 311 311 311 312 313 315 316 317 318 319 319 319 320 320 320 319 317 316 315 314 313 312 311 310 308 307 306
307 307 308 309 308 308 307 307 307 307 308 308 308 309 309 310 311 311 311 312 313 314 315 316 317 318 318 319 319 319 318 315 313 313 312 311 310 309 308 306 305 305
307 307 308 308 308 308 308 307 307 307 308 308 308 308 308 309 309 310 311 312 312 313 314 316 317 317 318 319 318 318 316 313 312 311 310 308 307 306 306 305 304 304
306 306 307 307 308 308 308 307 307 307 307 307 307 307 307 307 308 308 310 311 312 312 313 315 317 318 318 318 317 315 313 312 310 309 307 306 305 304 304 304 303 303
306 306 306 307 307 307 307 307 307 307 307 306 306 307 307 307 308 308 310 311 311 312 314 315 316 317 317 317 315 312 310 309 308 306 305 303 303 303 303 303 302 302
307 306 306 306 306 306 307 307 307 308 308 307 307 307 307 308 309 310 311 311 311 312 313 314 315 315 313 313 312 310 307 306 305 305 304 303 302 302 301 301 300 300

ECMWFNIL_925_thetae_030.txt.gz
Theta_e
321 320 318 318 320 320 319 320 320 319 317 313 310 309 309 311 311 309 307 307 308 310 312 314 315 315 313 310 309 309 309 308 310 312 314 314 313 313 313 312 311 311
321 320 319 318 319 320 319 320 320 319 318 315 312 310 310 310 311 309 307 306 305 307 311 314 315 314 313 310 307 307 308 309 308 308 310 313 314 313 313 311 310 309
321 320 319 318 318 318 319 320 320 319 319 317 315 313 311 311 312 311 309 307 305 306 311 314 314 314 313 310 307 306 307 308 308 307 307 311 313 313 312 311 310 309
321 320 319 318 318 318 319 319 320 320 319 319 318 316 313 312 313 313 311 310 307 306 309 312 313 313 312 311 310 308 308 308 308 308 306 307 310 312 312 312 311 309
320 320 319 319 319 319 319 319 320 320 320 319 319 318 316 314 314 314 313 312 310 309 308 309 311 313 313 312 312 312 310 310 310 309 307 305 306 309 310 311 311 308
319 320 320 319 319 319 320 320 320 320 320 320 319 319 318 317 316 315 315 314 313 312 311 309 309 311 312 311 313 314 313 311 311 309 309 308 307 307 309 310 310 308
321 320 320 320 320 320 321 321 320 320 320 320 320 319 319 318 317 317 317 316 315 314 314 313 311 311 312 311 311 314 314 313 312 311 310 311 309 307 308 310 310 310
321 320 320 321 320 320 320 321 320 319 319 320 320 320 319 319 319 318 318 318 318 317 316 316 315 313 313 312 311 313 314 313 313 312 311 312 311 309 308 309 310 310
322 320 320 320 321 321 320 321 320 319 319 320 320 320 320 319 320 319 319 319 318 318 317 317 317 316 315 315 313 312 313 313 314 312 311 312 312 311 309 308 309 310
323 321 321 320 320 320 320 321 321 319 319 319 319 320 320 319 320 319 319 319 318 318 318 318 318 318 317 317 316 315 314 313 313 313 312 312 312 312 311 310 309 309
322 320 320 321 320 321 320 320 321 320 320 321 320 320 320 320 320 320 320 320 319 319 319 319 319 318 318 318 318 317 316 314 314 313 313 313 313 312 312 312 311 309
322 320 319 320 321 321 321 320 321 321 321 322 321 321 321 320 321 320 320 320 320 320 320 319 319 319 319 319 319 318 317 316 315 314 314 314 314 313 312 312 313 311
320 321 321 320 321 321 320 320 321 320 320 321 321 321 322 322 321 321 321 321 321 320 320 320 320 319 319 319 319 319 318 317 316 315 315 314 314 313 312 312 313 312
320 322 322 321 322 321 321 320 320 320 319 320 320 321 321 321 321 320 321 321 321 321 320 319 319 319 320 319 319 319 318 318 317 316 315 315 315 314 313 312 312 312
322 323 323 323 323 322 323 322 321 321 320 320 320 320 320 320 320 320 320 320 320 320 319 318 317 318 320 319 319 319 318 318 317 316 316 315 315 315 313 313 312 312
319 320 321 321 321 321 321 321 321 320 321 320 320 320 320 320 320 320 321 321 320 320 319 319 318 319 320 320 319 319 319 318 318 317 316 315 315 315 314 313 312 312
312 313 315 316 316 317 317 318 319 320 320 320 320 320 319 320 320 320 321 321 321 321 321 321 320 320 321 320 320 320 319 319 318 318 317 316 315 315 314 313 312 311
311 311 313 313 312 313 314 315 316 316 316 316 316 316 316 317 318 318 319 320 321 321 321 321 321 321 321 321 321 320 320 319 319 319 318 317 316 315 314 313 312 311
309 309 309 310 310 310 310 310 310 310 311 310 311 311 311 312 313 314 314 315 317 319 320 320 320 320 321 320 320 320 320 320 320 319 319 318 317 315 314 313 312 311
307 307 308 308 308 308 308 308 308 308 308 308 309 309 309 310 310 311 311 311 312 314 316 316 317 317 317 318 319 320 320 320 320 319 319 318 317 316 314 313 312 311
306 307 307 307 307 307 307 307 307 307 307 308 308 308 309 309 310 310 310 310 311 312 312 314 315 315 315 315 317 319 320 320 320 319 319 318 317 316 314 313 311 310
307 307 307 307 308 307 306 306 306 307 307 307 307 307 307 307 308 308 309 309 310 311 311 312 313 313 314 315 316 318 319 319 319 318 317 316 315 314 312 311 310 309
306 306 307 308 308 308 307 306 307 307 306 307 307 307 307 306 307 307 307 307 308 309 310 311 311 311 313 314 316 317 318 318 318 316 314 313 312 311 311 310 309 307
306 306 307 308 308 307 308 307 307 307 307 307 307 306 306 306 306 306 306 307 307 308 309 310 310 311 312 314 317 318 317 317 315 314 311 310 309 308 308 307 305 304
306 306 306 306 306 307 307 307 307 307 307 307 306 306 306 306 306 306 307 307 308 308 309 310 310 311 313 315 317 317 316 315 314 312 309 308 306 305 304 304 303 302
306 306 306 306 306 306 307 306 306 306 306 306 307 307 307 307 307 307 307 307 308 309 310 311 312 313 314 316 316 316 314 313 311 310 308 305 304 303 303 302 302 302

ECMWFNIL_925_thetae_033.txt.gz
Theta_e
318 319 318 317 315 315 318 319 317 314 314 314 312 310 311 312 313 312 310 310 310 310 310 310 308 306 306 307 307 309 312 315 315 314 313 313 313 312 311 311 311 312
319 320 319 317 316 316 318 319 316 314 314 313 311 309 310 311 311 311 310 310 310 309 310 310 307 306 305 305 305 304 306 309 312 314 313 313 312 311 310 309 310 310
319 320 319 317 315 315 317 319 317 316 316 313 310 309 309 310 310 310 309 310 310 310 311 310 309 307 306 304 305 305 304 304 307 311 312 312 312 311 310 307 307 308
320 320 319 317 315 313 317 319 317 318 317 314 310 309 309 310 310 310 308 308 310 311 312 312 311 309 307 306 305 306 306 304 305 307 310 312 312 311 309 308 307 307
321 320 320 318 316 314 317 319 317 318 318 316 313 311 310 311 312 311 309 307 308 310 312 312 312 311 309 307 307 306 306 306 306 306 307 309 311 310 309 308 307 307
321 320 319 318 317 316 317 318 317 318 319 318 317 314 311 312 313 313 311 308 307 307 310 311 311 311 310 309 309 308 306 306 306 306 306 306 308 309 310 309 307 306
320 320 320 318 318 317 317 317 316 318 318 319 319 317 314 313 313 314 313 311 309 307 309 310 310 311 310 310 310 311 309 307 306 307 306 306 306 307 309 310 308 307
321 320 319 318 318 318 317 317 317 318 319 319 319 318 318 316 315 315 314 313 312 310 310 310 311 312 312 311 311 312 312 311 309 308 308 307 307 306 307 309 309 308
321 320 320 319 319 318 318 318 318 319 319 319 320 319 319 318 318 317 316 315 315 313 313 312 312 312 313 312 312 311 313 313 312 311 310 309 309 307 307 308 308 308
321 320 320 320 319 319 319 319 319 319 319 319 320 319 319 319 318 317 317 317 317 316 315 315 314 313 313 314 313 312 313 313 313 313 312 310 310 309 309 308 308 308
321 320 320 320 320 320 320 320 320 319 319 320 320 320 319 319 319 317 316 317 317 318 317 317 317 316 315 315 315 313 313 313 313 313 313 312 311 311 311 310 309 309
322 320 320 320 320 320 320 320 320 319 319 320 319 319 319 319 319 318 317 317 317 318 318 317 318 318 317 317 317 316 316 315 314 313 313 313 313 312 312 312 311 311
321 321 321 320 319 319 320 320 320 320 320 320 319 319 319 319 319 319 318 317 316 317 317 318 318 318 318 318 318 318 317 317 316 315 315 314 314 314 313 313 312 312
320 320 321 320 319 320 320 320 320 321 320 320 320 320 320 320 319 319 319 318 317 317 316 317 318 319 319 319 319 319 318 318 317 317 316 316 315 314 314 313 313 312
320 319 320 320 320 320 320 320 320 320 320 319 320 320 319 319 319 319 319 319 318 318 317 318 319 319 319 319 318 319 319 319 318 318 318 317 316 315 314 314 314 313
320 320 320 320 320 320 320 320 319 319 320 319 318 318 318 318 318 317 317 318 318 318 318 319 320 319 319 318 318 319 319 319 319 319 318 318 317 316 315 315 314 313
321 321 322 321 321 321 320 319 319 319 320 319 319 318 318 318 318 317 318 318 319 319 320 321 320 320 320 320 320 320 319 319 319 319 318 318 317 316 315 316 315 314
321 320 322 322 321 320 320 319 320 321 321 320 320 319 319 318 318 318 317 317 317 318 319 320 320 321 320 321 321 320 320 320 319 319 319 318 317 317 316 315 315 314
316 316 317 317 316 315 316 316 316 317 317 316 316 315 314 314 313 313 313 312 312 313 314 316 317 318 319 319 319 319 320 320 319 319 319 319 318 318 317 317 316 315
311 311 311 311 311 311 311 311 310 310 309 309 309 309 309 309 309 310 310 310 310 310 311 312 313 314 315 316 316 316 317 319 320 320 320 319 319 319 318 318 316 315
307 308 308 308 309 308 308 307 307 307 307 308 308 308 308 308 308 308 308 308 308 309 309 310 310 311 312 313 313 314 315 317 319 319 319 319 319 319 318 318 316 314
306 307 307 307 307 307 306 306 306 306 306 307 306 307 307 307 306 306 306 306 306 307 307 308 309 309 310 310 311 312 314 316 317 318 318 318 317 317 317 317 316 314
306 306 306 307 307 307 307 306 305 305 305 305 305 305 306 307 306 305 304 304 305 306 306 307 307 308 309 310 310 310 312 315 317 317 317 317 316 315 315 314 313 311
306 306 306 306 307 307 307 307 306 305 305 305 305 306 306 306 305 305 304 303 303 304 305 305 306 307 308 309 310 311 313 316 317 317 315 314 313 313 312 311 309 308
305 306 306 306 307 307 307 307 307 306 306 306 306 306 306 306 306 305 304 304 303 303 303 304 306 307 308 310 311 313 314 316 316 315 313 311 310 309 308 307 307 306
304 305 305 306 306 306 306 306 306 307 306 306 306 306 306 306 307 306 306 306 305 304 304 305 307 308 309 311 313 314 314 314 314 313 311 309 308 307 306 304 304 304

ECMWFNIL_925_thetae_036.txt.gz
Theta_e
321 320 316 312 311 311 312 313 316 317 315 313 312 312 313 314 314 314 313 313 312 312 312 311 311 312 313 314 316 316 316 314 314 313 313 313 311 311 311 311 311 311
320 319 316 313 312 312 312 314 316 315 314 314 313 311 311 313 313 313 313 314 313 312 313 312 310 310 309 310 311 312 313 312 312 313 312 311 311 309 309 308 308 306
321 318 316 315 313 313 315 316 316 316 314 314 315 312 310 311 312 313 312 313 313 312 314 314 312 309 307 307 308 308 310 310 311 312 311 310 310 307 306 306 306 305
319 318 317 317 315 314 315 313 313 316 315 314 315 312 309 309 309 310 311 311 312 313 314 315 314 311 308 307 307 306 308 310 311 311 311 310 309 306 305 305 306 306
318 317 318 318 316 314 314 311 309 314 316 314 314 311 309 308 308 308 309 308 309 312 313 314 315 313 310 309 308 307 307 309 311 312 311 311 310 307 306 306 306 307
318 317 318 319 317 315 314 311 310 314 316 315 314 312 309 309 308 308 308 307 307 308 310 313 314 314 312 311 310 310 309 308 310 311 311 310 310 310 308 307 307 309
318 318 319 319 318 318 316 312 310 313 316 317 316 316 314 311 309 309 309 309 309 308 308 309 312 313 312 312 311 312 311 310 310 309 309 308 309 310 309 308 307 307
318 319 319 319 319 319 317 313 311 312 315 317 318 318 318 316 313 311 311 311 312 311 309 308 309 310 311 312 312 312 312 311 310 309 308 307 307 308 309 309 307 307
319 319 319 319 318 318 318 315 314 315 314 316 318 319 319 319 317 315 314 313 314 314 313 311 310 310 312 312 312 311 312 312 311 310 310 308 307 307 307 308 308 308
321 319 319 319 318 319 318 317 317 317 316 316 318 319 319 319 319 317 316 315 315 315 316 315 313 312 312 313 313 312 312 312 312 312 311 310 310 309 307 307 308 308
320 319 320 319 319 319 318 317 317 318 318 318 318 319 319 319 319 319 317 316 316 316 316 316 316 315 314 314 314 313 313 313 312 313 313 312 312 311 310 309 309 308
318 320 321 320 319 319 318 317 317 318 319 319 319 319 319 319 319 319 318 317 317 317 317 317 317 317 316 316 315 314 314 313 313 313 313 313 313 313 312 311 311 310
320 321 321 320 319 320 319 318 318 319 319 318 318 319 319 319 319 318 318 318 318 318 317 318 318 317 317 316 316 315 315 314 314 314 315 314 314 313 313 313 312 312
320 321 320 320 319 319 319 319 319 319 319 318 319 319 319 319 319 319 319 318 318 317 317 317 318 318 317 317 316 316 316 315 315 316 317 316 315 314 314 314 313 313
321 321 321 320 320 319 319 319 319 319 319 319 319 319 319 319 318 318 319 318 317 317 317 318 318 318 318 318 317 317 317 317 316 317 318 318 317 317 316 315 314 314
320 320 320 320 320 319 319 319 319 319 320 320 320 319 319 318 318 318 318 318 318 317 317 317 318 318 318 318 319 318 318 318 318 318 318 318 318 317 317 316 316 316
319 319 319 319 319 319 319 319 319 319 319 319 319 318 318 317 317 317 318 317 317 317 317 317 318 319 319 319 319 319 319 318 319 319 319 319 318 318 317 317 317 316
319 318 318 318 319 319 319 320 319 319 318 318 319 319 318 318 318 318 318 318 318 318 317 318 319 319 320 320 320 320 320 319 320 320 320 319 319 318 318 318 317 317
320 320 320 320 320 320 320 319 319 319 318 319 320 319 319 318 317 317 316 315 315 315 314 314 315 316 317 318 319 319 319 318 318 318 319 319 319 319 319 318 318 318
317 317 318 319 318 317 317 317 317 317 318 317 316 315 314 313 312 311 311 310 310 309 310 310 310 311 312 313 314 315 316 316 316 317 318 319 319 319 319 319 318 318
311 311 312 313 312 312 312 313 313 313 312 312 311 309 309 309 308 308 307 307 307 307 307 307 308 309 309 310 310 311 312 313 314 316 318 318 318 318 318 318 318 318
307 307 308 308 309 309 309 309 309 309 308 308 308 307 307 307 306 305 305 304 304 304 305 305 305 306 306 308 308 309 309 310 312 315 317 318 318 317 317 316 316 316
306 306 307 307 307 307 307 307 307 307 307 306 306 306 306 306 305 305 304 303 303 303 303 303 302 303 304 305 307 308 309 309 311 315 317 317 317 316 315 314 314 314
305 305 305 306 306 306 306 306 306 305 306 305 305 306 306 306 305 305 304 304 303 304 304 304 303 302 303 305 306 308 310 311 313 315 316 316 315 314 313 312 313 312
304 305 305 305 306 306 306 306 306 305 306 306 306 306 306 305 305 306 305 305 305 305 305 304 303 302 304 306 308 309 311 313 314 315 315 314 313 312 311 311 311 310
304 304 305 305 305 306 306 306 306 306 306 306 306 306 306 306 306 306 306 306 306 306 305 304 303 303 305 308 309 310 312 313 314 313 313 312 311 310 309 308 307 306

ECMWFNIL_925_thetae_039.txt.gz
Theta_e
321 320 318 314 313 313 313 314 314 313 312 312 313 314 314 315 314 313 312 312 312 312 311 311 312 314 316 316 316 315 314 314 313 312 312 312 312 312 312 312 311 309
321 320 318 314 312 311 312 313 313 312 312 311 311 311 312 313 314 313 313 312 312 312 312 310 308 309 311 314 315 314 314 313 312 311 311 310 310 310 310 310 309 308
321 320 319 315 311 309 311 314 315 313 313 312 311 310 310 311 312 313 312 312 312 313 314 313 310 307 307 310 312 314 313 312 311 311 310 309 308 308 308 308 308 308
321 320 319 316 311 308 310 314 315 314 314 314 312 310 309 309 309 310 311 311 311 312 313 314 312 309 307 307 309 311 312 312 311 311 309 308 307 307 307 308 309 308
321 320 319 317 312 310 312 313 312 313 315 314 312 309 308 308 308 308 309 308 309 310 312 314 313 311 310 309 308 308 309 311 312 312 310 309 308 307 308 309 309 309
321 320 319 317 314 312 314 312 309 312 315 315 312 309 308 308 308 308 308 308 307 308 310 312 313 313 311 311 311 310 309 309 310 311 310 310 309 308 307 309 310 309
320 320 319 318 316 315 315 311 309 312 316 316 314 312 310 309 309 309 309 309 309 309 309 311 313 313 313 312 312 312 312 310 309 309 309 309 309 309 308 307 309 309
320 319 318 318 318 317 316 312 309 312 316 317 316 316 315 313 312 310 310 311 312 312 311 311 311 311 312 313 313 313 313 313 312 310 309 308 307 308 308 307 307 307
319 318 318 319 319 318 317 314 311 311 314 317 317 317 318 317 316 314 312 313 313 314 314 313 312 312 311 312 312 313 313 313 313 313 312 310 309 308 308 308 308 307
319 319 319 319 319 319 318 317 314 310 312 314 316 317 318 318 318 317 316 314 315 315 315 315 315 314 314 314 313 313 313 313 313 313 313 312 312 311 309 308 309 309
319 319 319 319 319 319 319 318 315 312 312 314 315 316 317 318 319 319 318 317 317 317 316 317 317 317 317 317 316 316 315 314 314 314 314 313 313 312 312 311 310 311
319 320 320 320 319 319 319 319 317 315 315 316 316 317 318 318 319 319 319 318 317 318 318 318 318 317 317 318 317 317 316 315 315 315 314 314 313 313 314 314 314 313
320 320 320 319 319 319 319 319 318 317 317 316 318 318 319 319 319 319 319 317 317 317 318 318 318 318 317 317 317 317 316 316 316 316 316 315 315 315 314 314 315 315
321 320 319 319 319 320 320 319 318 317 317 317 318 319 318 318 318 319 319 318 318 318 318 317 317 317 317 316 316 317 317 317 317 317 317 317 317 317 315 314 314 314
321 320 319 319 320 320 319 319 318 318 317 318 319 319 318 317 318 319 319 319 318 319 318 317 317 316 316 316 317 318 318 318 318 318 318 317 317 317 317 316 315 314
320 320 320 320 320 319 319 319 318 318 318 318 319 319 318 319 319 319 318 317 317 318 318 318 317 317 316 316 317 318 318 318 318 318 318 318 318 317 317 317 316 316
320 320 320 319 319 319 319 319 319 319 319 319 319 319 319 320 319 318 317 317 317 317 317 318 317 316 316 317 318 318 318 319 319 319 319 319 319 318 317 317 317 316
319 319 319 319 319 319 319 319 319 319 319 319 320 319 319 319 318 317 317 317 317 317 317 318 317 317 318 319 319 319 319 320 320 320 320 319 319 319 318 318 318 317
319 319 318 318 317 318 318 319 319 319 319 319 319 318 318 318 318 318 318 318 317 317 317 317 317 317 317 318 319 319 319 319 318 318 319 319 319 319 319 319 318 318
320 319 320 320 319 318 318 318 318 318 318 318 318 319 319 319 319 318 317 316 314 313 312 311 311 312 312 313 314 315 315 316 315 315 316 317 318 319 318 318 318 318
315 316 317 318 318 318 318 318 318 318 319 318 318 318 318 316 316 314 312 310 309 308 308 308 308 308 308 309 310 310 311 311 312 313 314 316 317 317 316 316 315 315
308 309 311 312 312 312 314 316 317 317 317 315 314 313 313 311 310 308 307 306 305 305 305 304 304 304 305 306 307 307 308 309 309 311 313 315 317 317 316 315 314 314
306 306 307 308 309 309 311 312 312 311 311 310 309 309 308 307 306 305 304 303 303 303 303 303 302 302 302 303 304 306 307 308 308 310 312 315 317 317 316 315 313 312
305 306 306 307 307 307 308 309 309 308 308 308 307 307 306 305 304 304 303 303 304 304 304 304 303 302 302 303 304 305 307 309 311 312 314 316 316 315 314 312 311 311
304 304 305 305 306 306 306 306 307 307 306 307 306 306 306 305 305 304 304 304 305 305 305 304 303 303 303 303 304 306 308 310 313 314 315 315 314 313 311 311 310 310
304 304 304 304 305 306 306 306 306 305 305 306 306 306 305 305 305 305 305 305 305 306 305 304 303 303 303 303 305 307 308 310 312 313 313 312 311 310 309 308 307 307

ECMWFNIL_925_thetae_042.txt.gz
Theta_e
328 328 327 325 323 321 320 319 318 318 317 318 318 318 319 319 318 318 317 317 316 316 317 317 318 318 318 318 318 316 316 316 317 317 317 317 318 318 319 319 318 317
325 326 325 324 322 321 321 320 318 318 317 317 318 318 319 319 318 318 318 317 316 315 315 315 316 317 317 317 317 316 315 315 316 315 315 315 315 315 316 316 316 315
323 322 321 320 320 320 320 319 318 317 317 316 317 318 318 319 319 319 318 318 317 316 315 314 314 315 315 316 317 316 315 315 314 314 313 314 314 314 315 314 315 314
322 321 320 318 317 318 318 316 317 318 317 316 316 316 317 318 318 318 318 318 317 317 316 315 314 314 315 315 315 315 315 315 315 314 313 313 313 314 314 314 314 314
322 321 321 319 318 319 319 318 319 317 316 317 316 313 314 317 318 317 318 318 318 318 318 317 316 315 315 315 315 314 314 314 315 314 313 313 313 314 315 314 314 315
322 322 322 322 321 322 321 322 320 313 310 315 317 315 314 316 317 316 317 318 317 318 318 318 317 317 317 317 316 315 314 314 315 315 313 313 313 313 314 314 314 314
323 324 324 324 323 322 323 324 321 315 311 315 319 319 317 316 317 316 316 316 316 317 318 318 318 318 318 318 317 316 316 315 315 314 313 313 313 313 313 314 313 313
326 325 325 326 324 322 323 323 322 319 318 319 321 321 319 318 317 317 317 316 317 317 318 318 318 318 318 319 318 318 318 317 316 315 314 314 314 313 312 313 313 312
327 326 326 327 325 323 323 322 321 321 322 321 321 320 320 319 318 318 319 318 318 319 318 319 318 318 318 319 318 319 318 318 318 317 317 316 315 314 312 313 313 313
326 326 326 326 326 325 324 321 320 322 323 322 322 321 320 320 320 319 320 320 320 320 320 320 320 320 320 319 319 319 319 319 318 318 318 317 317 316 314 314 314 315
326 326 326 325 324 325 326 322 320 321 322 323 323 322 322 321 321 321 321 321 321 321 320 321 320 321 321 321 321 321 320 320 320 319 319 318 318 317 316 316 316 316
325 326 326 325 323 324 326 325 322 321 321 321 322 323 323 323 322 322 322 321 321 321 321 321 321 322 322 322 322 321 321 321 320 320 320 319 319 318 318 318 318 317
325 325 325 324 323 324 325 325 324 324 322 320 321 322 323 323 322 322 322 322 322 322 321 321 322 322 322 322 322 322 321 321 321 321 320 320 320 320 319 320 319 319
325 325 325 324 324 324 324 323 323 323 323 322 322 322 323 322 323 323 322 322 323 322 322 322 322 322 322 322 322 322 322 322 322 321 321 321 321 321 321 320 320 320
325 325 325 324 323 322 322 322 321 322 323 323 324 324 323 323 324 323 323 322 323 323 322 323 322 322 322 321 321 322 322 322 322 322 322 322 322 322 321 321 320 320
325 324 324 324 323 321 320 322 322 323 325 324 324 323 323 323 323 323 323 323 323 323 323 323 322 321 320 318 318 319 320 322 322 322 323 322 322 322 322 321 321 320
324 323 323 323 323 322 321 322 323 324 325 324 323 323 323 323 323 323 323 323 322 323 323 323 323 321 318 317 317 316 318 320 322 322 323 323 322 322 322 322 321 321
323 323 323 323 323 323 322 323 323 323 323 323 323 323 324 324 323 323 323 323 323 323 322 323 322 319 317 316 317 317 317 319 322 323 323 323 323 322 322 321 321 321
322 323 322 322 323 322 322 322 323 323 323 323 323 323 323 324 323 323 323 322 322 322 322 323 321 319 317 318 318 319 319 320 322 322 321 321 320 320 319 319 319 318
322 322 323 323 323 322 322 322 322 323 323 322 322 321 320 321 322 322 322 322 322 321 321 320 318 317 317 318 319 319 319 319 319 319 318 317 318 318 317 317 317 317
317 319 322 323 322 321 322 322 322 323 322 321 320 320 319 319 321 321 320 319 318 317 315 313 312 312 313 313 314 315 314 315 316 316 317 316 317 318 318 317 317 317
312 314 316 318 319 319 320 321 321 322 322 321 320 320 320 320 319 318 317 316 315 313 312 310 307 308 308 308 309 310 310 312 314 315 315 316 317 318 317 317 317 316
310 310 311 313 314 316 317 318 320 320 321 320 319 318 318 317 316 315 314 313 312 311 311 309 304 303 303 304 305 306 308 312 314 313 313 315 316 317 317 316 315 313
309 309 310 310 311 313 315 316 317 317 317 317 316 315 315 314 313 312 311 310 310 309 309 308 304 301 301 301 302 302 305 310 312 312 313 315 316 316 315 314 313 310
309 309 309 310 310 311 312 313 314 313 314 314 313 312 312 311 310 309 308 309 309 307 306 308 306 302 301 303 302 302 305 311 312 312 314 314 314 314 313 311 310 310
308 308 308 309 310 310 311 311 312 311 312 312 311 310 310 309 308 308 308 309 309 307 306 309 309 305 302 303 303 302 305 310 311 311 312 313 312 312 312 310 308 308

ECMWFNIL_925_thetae_045.txt.gz
Theta_e
327 327 326 324 323 322 321 320 321 321 321 321 320 320 319 318 318 318 318 318 318 319 319 319 319 319 319 319 318 317 318 318 318 318 318 318 319 319 320 319 319 318
328 327 326 323 322 321 320 320 320 320 320 320 319 318 319 319 318 318 317 316 316 317 317 318 319 318 318 318 318 317 317 317 315 316 317 317 316 317 317 317 317 316
328 327 326 323 322 322 321 321 320 320 320 320 319 319 319 319 319 318 317 316 316 316 316 317 317 317 318 318 317 316 316 315 314 314 315 316 316 316 316 317 317 316
329 328 326 323 323 323 322 321 320 320 320 320 319 319 319 319 319 318 318 317 316 316 316 317 316 316 316 316 316 316 316 316 315 315 315 315 316 316 316 317 317 316
329 328 327 323 322 324 322 321 320 319 319 319 319 319 319 319 319 318 318 318 317 317 316 317 317 317 316 316 316 316 316 316 316 315 315 315 316 316 316 316 318 317
328 328 327 323 321 322 321 321 321 320 319 320 319 319 319 319 318 318 318 318 318 317 317 318 318 317 317 317 317 316 316 316 316 315 315 315 315 316 316 316 316 316
328 327 328 325 321 320 320 321 322 322 322 321 319 319 319 318 317 317 318 318 318 318 318 318 319 319 318 318 317 317 316 316 316 315 314 314 315 315 316 315 315 314
327 328 328 326 323 320 320 322 322 321 322 321 320 319 319 318 317 317 318 318 318 319 318 318 319 319 319 319 318 318 318 317 317 316 315 315 315 315 314 315 315 315
328 329 328 327 326 322 321 324 321 319 319 320 321 320 318 318 317 317 318 318 318 319 319 319 319 320 321 320 319 319 319 319 318 317 317 317 316 315 314 315 316 315
329 330 328 328 328 324 322 323 323 320 320 321 322 321 319 319 318 318 318 318 319 319 319 320 320 320 321 321 321 320 320 320 319 319 319 318 317 316 315 315 316 316
328 329 329 329 328 326 323 322 322 322 321 321 321 321 321 320 319 319 319 319 320 320 320 320 320 321 321 321 322 322 321 321 320 320 320 320 319 319 318 317 318 318
328 328 329 328 327 327 325 323 321 321 322 322 321 320 321 321 320 320 321 321 321 320 320 320 321 321 322 322 322 322 322 322 322 322 322 322 321 321 319 319 320 319
328 328 328 327 326 326 326 326 322 320 320 321 321 321 321 321 321 321 321 321 320 320 321 321 321 321 322 323 323 324 323 323 323 323 322 322 322 322 321 321 321 321
328 327 326 326 326 325 326 326 324 322 321 320 320 321 321 321 321 321 321 321 321 321 322 322 322 322 323 324 324 324 324 323 323 323 322 322 322 322 322 322 322 322
327 326 326 326 325 325 325 325 325 324 324 323 322 321 321 321 321 320 322 322 322 323 322 322 323 323 323 323 323 323 324 324 323 324 323 322 322 323 323 323 323 323
327 326 325 325 326 326 325 326 326 325 325 324 324 323 322 321 320 321 322 322 323 324 323 323 324 323 322 322 322 323 324 324 324 324 323 323 323 323 323 323 323 323
326 326 325 324 325 325 325 325 325 325 324 323 322 323 322 322 322 324 324 323 323 323 322 322 323 323 323 322 321 321 321 323 324 324 323 322 321 321 322 323 323 323
326 326 325 324 325 325 325 324 324 324 323 322 321 322 322 322 323 323 323 322 321 320 322 321 321 323 324 321 320 319 318 319 321 322 322 320 319 319 320 321 321 322
325 325 325 325 325 325 324 323 323 323 322 322 322 322 322 322 322 322 322 321 320 321 322 320 320 323 323 320 318 317 317 317 318 321 321 319 317 318 318 318 319 320
324 325 325 325 324 324 324 322 322 323 321 321 321 321 321 321 321 322 323 322 321 321 321 320 320 321 320 318 317 318 319 318 319 320 319 317 316 317 318 318 318 318
321 322 323 324 324 324 324 323 322 321 321 321 322 321 321 321 321 323 324 323 322 321 320 320 320 319 319 319 319 320 320 319 318 318 317 316 316 316 316 316 317 317
315 316 318 320 321 321 322 322 322 322 322 323 322 321 322 322 321 322 323 322 321 320 318 317 316 315 316 317 317 317 317 316 316 316 315 315 315 316 316 316 317 317
311 312 313 314 315 316 317 319 321 322 323 324 322 322 323 322 321 321 321 320 319 318 316 315 312 312 313 312 312 313 312 312 314 315 314 314 315 316 316 316 316 315
311 311 311 312 312 313 315 316 317 318 320 321 321 321 321 320 319 319 318 318 317 316 315 313 310 308 308 308 308 308 307 310 313 313 312 314 314 315 315 315 315 313
311 311 311 311 311 312 314 314 314 315 316 317 317 317 317 317 316 317 316 315 315 313 313 312 307 303 302 303 303 302 303 308 312 311 312 313 313 314 315 314 313 311
310 311 311 311 311 312 312 313 313 313 314 314 314 314 314 314 314 314 313 313 313 312 310 310 307 302 300 301 301 300 303 309 312 312 312 313 312 313 314 313 311 309

ECMWFNIL_925_thetae_048.txt.gz
Theta_e
326 325 324 324 324 324 323 321 322 323 323 322 320 319 319 319 318 319 319 319 320 319 320 320 319 319 317 317 318 318 317 318 318 317 318 319 318 318 317 317 318 318
326 326 324 323 323 322 321 321 322 322 322 322 320 319 319 318 318 317 317 317 318 318 319 318 319 318 317 317 317 316 315 316 317 317 316 317 317 317 316 316 316 316
326 326 324 324 323 322 321 321 322 322 321 320 319 319 319 318 317 317 316 316 317 317 317 317 318 318 317 317 315 315 315 315 315 316 316 317 317 317 317 316 316 316
326 325 325 323 323 322 321 321 321 321 320 319 319 319 319 318 318 317 316 316 316 317 317 317 317 317 316 316 316 316 316 315 316 316 316 317 317 317 318 317 317 317
327 326 325 323 323 322 322 321 321 321 321 320 319 319 319 319 318 318 317 317 317 317 317 317 317 316 316 316 316 316 316 315 315 316 316 316 316 317 318 318 318 318
329 327 324 323 324 323 322 321 321 321 321 320 319 320 319 319 319 319 318 317 317 317 317 318 317 317 316 317 317 317 316 316 315 316 316 316 316 316 316 316 317 317
329 328 325 323 324 323 322 321 321 320 320 320 320 320 320 319 319 319 318 318 317 317 318 318 318 318 318 318 317 317 317 316 315 315 315 316 316 316 316 315 316 316
329 327 325 322 323 322 321 321 321 320 320 320 320 319 319 319 318 318 319 318 318 318 318 319 319 319 318 318 317 317 317 317 316 316 316 315 315 315 316 316 315 315
328 327 325 322 321 321 320 321 322 322 322 321 320 319 319 319 318 318 319 318 318 318 318 319 319 319 319 318 318 318 318 318 317 316 316 315 315 315 315 315 315 314
329 328 326 324 322 319 319 322 323 323 322 320 320 319 318 318 318 318 318 318 319 319 318 318 319 320 320 319 318 319 319 319 318 318 317 317 316 316 315 315 316 316
329 328 326 326 324 320 320 323 322 319 318 319 321 320 318 318 318 317 318 318 319 319 319 319 319 320 321 320 320 320 320 319 320 319 319 318 318 317 316 316 317 317
329 328 327 327 326 323 323 323 321 317 315 318 322 321 319 319 318 317 318 318 319 319 319 320 320 320 321 321 321 322 321 321 320 321 321 321 320 320 319 318 318 319
327 327 327 327 327 326 325 323 321 319 318 319 322 322 321 321 320 319 319 319 319 320 319 320 320 320 321 321 322 322 323 322 322 322 322 322 322 321 320 320 320 320
326 326 327 327 327 326 326 324 323 322 321 321 321 320 321 321 321 319 320 320 320 320 320 320 320 321 321 322 322 322 323 324 323 323 323 323 323 322 322 321 321 321
324 325 326 325 325 324 324 323 323 323 322 321 321 321 321 321 321 320 320 320 320 320 320 321 321 321 320 321 322 322 322 323 323 323 323 322 322 322 322 321 320 320
325 325 325 325 324 324 323 322 322 323 323 322 323 324 322 321 321 320 320 321 321 321 321 321 320 320 320 321 322 322 321 323 323 322 321 321 320 321 322 320 320 320
324 324 324 324 324 324 323 323 323 324 323 323 324 324 323 322 322 321 321 321 321 322 321 321 320 320 320 322 322 322 322 323 322 321 321 320 320 321 321 321 319 319
323 323 324 325 324 324 323 323 323 324 324 324 323 323 323 322 322 322 322 322 322 321 321 320 319 318 319 320 319 319 321 322 321 321 321 321 320 319 320 320 319 319
323 324 324 325 325 324 324 323 323 323 323 323 323 322 322 322 322 322 323 323 322 321 320 320 319 319 320 318 315 316 321 322 320 319 319 319 319 319 319 319 319 319
324 323 324 324 324 324 323 323 322 322 322 323 323 323 322 321 321 322 322 322 322 321 320 319 318 318 318 317 315 317 320 320 318 317 317 318 317 317 317 317 318 318
322 322 322 323 323 322 322 321 322 322 322 322 323 322 322 322 322 322 322 322 322 322 321 319 318 318 318 318 318 319 319 318 317 317 318 317 317 316 317 317 318 317
315 317 318 320 321 321 322 322 322 323 322 322 322 322 322 322 322 322 322 321 322 322 321 321 321 320 318 318 319 318 319 319 318 317 317 317 316 317 317 317 317 316
312 313 313 314 315 316 318 321 322 322 322 321 322 322 322 321 321 321 321 321 322 321 321 321 321 320 319 318 319 319 319 318 316 316 317 317 316 317 317 317 316 315
312 312 312 313 313 313 314 316 318 319 320 321 321 321 321 321 320 320 320 321 321 321 320 318 318 318 318 317 317 317 317 314 312 315 317 315 315 316 317 316 316 314
311 312 312 312 312 313 313 314 314 315 317 318 319 319 319 320 319 319 319 320 320 319 318 316 315 315 315 315 314 313 313 310 310 313 314 314 315 316 316 315 314 313
309 310 311 311 311 311 312 312 313 312 313 315 316 316 316 317 317 317 318 318 318 318 317 316 313 312 312 312 310 309 309 307 307 310 313 313 314 315 314 313 313 312

ECMWFNIL_925_thetae_051.txt.gz
Theta_e
323 323 323 323 323 322 322 324 325 325 323 320 319 320 320 320 320 320 320 320 321 321 319 317 318 319 318 318 318 318 319 321 321 319 317 316 317 320 319 317 318 322
323 323 323 323 323 322 322 323 324 324 322 320 319 319 319 319 319 319 319 318 319 319 318 317 317 317 316 317 317 317 316 317 318 317 316 315 316 316 316 315 316 318
324 323 323 324 323 322 322 322 323 323 321 319 318 318 318 318 318 317 318 318 318 318 318 317 316 315 315 315 316 316 316 315 316 316 316 316 315 315 315 315 315 316
324 323 323 323 323 321 321 322 323 322 320 319 319 318 317 316 317 317 317 317 317 317 317 317 316 315 314 313 314 315 315 316 315 316 316 316 315 315 314 313 313 314
325 324 323 323 322 321 321 321 321 321 320 319 318 317 317 317 316 316 315 316 317 317 317 316 315 315 315 314 315 315 315 315 315 315 316 317 317 316 315 314 313 314
326 325 323 322 321 321 321 321 321 320 320 319 318 318 317 317 316 315 316 317 317 316 316 316 315 315 315 315 314 315 315 315 315 315 316 317 317 317 318 316 315 315
326 325 323 322 320 321 321 321 321 320 319 319 318 318 318 317 317 316 316 316 316 316 316 316 316 316 316 315 315 315 316 316 316 316 316 316 315 316 316 316 315 315
326 324 322 322 321 320 321 321 320 320 320 319 319 319 319 318 318 317 316 316 317 317 317 316 317 317 317 316 316 316 315 315 315 316 316 315 315 315 315 315 314 314
327 324 323 323 322 321 321 320 320 320 320 319 319 319 319 319 318 318 317 317 317 318 318 318 318 317 317 316 316 317 316 315 315 316 315 315 315 315 315 314 313 313
328 325 323 323 322 321 321 320 319 320 319 319 319 319 319 319 318 318 318 318 318 318 319 319 319 318 317 316 316 317 317 316 316 315 315 315 314 314 314 314 313 312
328 326 324 323 322 321 321 321 320 319 320 319 318 318 318 318 318 318 318 318 318 318 319 319 319 319 318 317 317 318 317 317 316 316 316 316 315 315 315 315 316 315
327 326 325 324 321 320 322 322 321 321 319 319 317 315 316 319 318 317 318 318 318 318 318 319 319 320 320 319 319 319 319 319 318 318 319 319 318 317 317 317 317 316
328 328 327 325 321 319 322 323 322 322 319 318 320 317 315 318 318 317 317 318 318 319 318 319 320 320 320 320 320 321 321 321 320 320 321 321 321 320 319 319 318 318
327 326 326 326 322 319 321 322 321 320 316 316 321 321 318 319 319 317 318 318 318 319 319 319 320 320 320 321 321 322 323 322 322 322 322 322 321 321 321 320 320 319
324 324 324 324 324 321 321 321 319 319 317 317 321 322 320 321 320 318 319 319 319 320 320 320 320 320 320 320 320 322 322 323 323 323 322 322 321 322 322 321 321 320
323 324 323 322 322 323 323 321 320 321 321 320 321 322 321 322 321 320 320 320 320 320 320 320 320 319 320 319 319 320 321 322 322 323 323 322 321 320 320 321 321 321
322 323 322 322 322 323 323 322 321 322 322 321 322 322 322 322 321 321 321 321 320 320 320 319 319 319 320 319 319 321 322 322 322 322 322 321 321 319 319 320 321 321
322 321 322 322 322 322 322 322 321 322 322 321 322 323 323 322 321 321 321 321 320 320 320 320 319 320 319 319 320 322 322 321 322 322 321 321 321 320 320 320 319 320
322 321 322 321 321 322 322 321 321 322 322 323 323 323 323 323 322 322 322 321 321 321 320 320 320 320 320 319 319 320 319 319 318 319 320 320 320 320 319 319 318 319
321 321 321 320 320 321 321 321 321 320 321 323 323 323 323 323 323 322 322 322 322 321 321 321 321 321 320 319 319 319 319 317 316 318 319 320 319 318 318 318 318 319
321 321 321 320 320 321 321 321 321 319 320 323 323 323 323 323 322 322 322 322 321 322 321 321 321 321 319 318 318 319 318 316 317 319 319 318 317 317 317 317 317 318
317 318 319 319 320 321 320 320 321 321 322 323 322 322 322 322 322 322 321 322 322 322 322 321 321 320 319 318 317 317 318 317 318 318 317 317 317 317 316 316 317 318
311 312 313 313 315 317 319 320 321 322 322 321 321 322 322 321 321 321 321 322 321 321 321 321 320 320 319 319 319 318 318 318 318 318 317 318 319 318 316 317 318 317
309 309 310 310 310 311 313 315 317 318 321 321 320 319 320 320 321 321 320 321 321 321 321 321 320 320 320 320 320 319 318 318 318 317 317 318 320 318 317 317 317 316
307 307 308 308 308 307 309 310 311 313 317 319 319 319 318 317 318 319 319 319 319 320 320 320 320 319 318 319 319 318 318 318 316 315 316 317 318 318 317 316 316 316
304 305 306 306 306 306 306 308 309 310 311 313 315 316 317 317 317 317 317 317 317 318 319 319 319 317 315 316 318 318 318 317 314 313 314 316 317 317 316 315 314 315

ECMWFNIL_925_thetae_054.txt.gz
Theta_e
324 324 323 321 321 323 323 324 323 324 323 322 322 321 320 320 321 323 322 319 320 321 321 320 321 323 325 325 325 323 319 317 319 322 324 322 320 321 323 326 327 326
325 324 323 322 323 323 323 323 323 323 322 320 320 320 320 320 319 322 322 319 318 320 320 320 319 320 322 322 323 323 318 315 317 319 319 317 316 318 322 325 326 326
324 323 322 322 323 322 322 323 324 323 320 319 320 320 320 320 319 320 321 319 317 318 319 318 317 317 317 317 320 320 318 315 316 316 315 315 316 317 319 321 322 323
323 322 321 321 321 322 323 324 323 321 319 319 320 319 319 319 318 319 320 319 317 317 317 316 315 316 316 315 316 318 316 315 315 316 315 315 315 316 317 317 315 316
323 322 322 321 322 322 323 324 323 320 319 319 319 318 318 318 318 318 319 318 318 316 315 315 315 316 316 315 315 316 316 315 315 315 314 314 314 314 316 317 316 314
323 323 323 323 322 322 323 324 322 319 318 318 318 317 317 317 318 318 318 318 317 316 314 313 313 314 315 314 314 314 315 315 314 314 313 313 313 313 314 317 317 315
323 323 323 323 322 321 322 322 321 319 318 318 317 316 317 317 317 317 317 317 317 316 314 314 313 314 314 314 314 314 315 315 315 315 315 315 314 314 314 315 315 315
323 323 322 321 321 321 322 321 320 319 318 317 316 316 316 316 315 316 316 317 316 316 315 315 314 314 314 314 314 314 315 315 316 316 317 317 316 315 314 314 314 314
324 323 321 321 321 321 321 321 320 319 318 317 316 317 316 316 315 316 317 316 316 316 315 315 315 314 314 314 314 315 315 316 316 315 315 316 316 315 315 314 313 314
323 322 321 321 321 320 320 320 319 319 318 317 317 318 317 317 316 316 316 316 316 316 316 316 316 315 315 315 315 315 316 316 316 315 314 315 315 314 314 314 313 313
323 321 321 321 321 320 320 320 319 319 319 318 318 318 318 318 317 316 316 316 317 317 316 317 317 316 316 317 316 315 315 316 315 315 315 315 314 314 313 313 312 313
323 322 322 321 321 320 320 320 320 319 319 319 319 318 318 318 318 317 317 317 318 317 317 317 318 317 316 317 317 315 315 315 315 314 315 314 314 314 314 314 314 313
323 323 322 322 321 320 320 320 319 319 319 319 318 318 318 319 318 318 318 318 318 318 318 318 319 318 316 316 317 317 316 315 315 316 316 315 314 315 316 316 317 315
324 324 322 322 321 320 320 320 320 320 319 319 318 317 317 318 318 317 318 318 318 318 318 319 319 319 318 317 318 318 318 317 317 318 318 316 316 317 317 317 317 317
325 325 323 321 321 321 321 322 321 321 320 319 319 317 316 317 318 317 317 318 318 318 318 319 319 319 319 319 319 319 319 319 319 319 319 319 319 319 318 318 318 318
324 325 324 322 321 321 322 322 321 321 320 319 320 319 317 317 318 318 317 317 318 318 318 318 319 320 320 320 320 320 320 320 320 320 321 321 321 320 320 320 320 319
323 324 324 323 321 321 321 320 320 321 320 320 321 321 320 320 320 319 318 318 318 319 319 319 319 320 320 320 321 321 322 322 322 322 322 322 321 321 321 321 321 321
322 322 323 323 322 322 322 321 321 321 322 322 322 322 321 321 321 320 319 319 320 319 320 320 320 319 320 319 320 320 321 322 322 322 322 322 322 322 321 320 320 319
321 321 322 322 321 322 322 321 321 321 322 322 323 323 322 322 321 321 320 320 320 320 319 319 319 319 320 319 319 319 319 320 321 321 321 322 322 321 321 321 320 319
321 321 321 320 319 320 321 321 321 321 321 322 322 323 323 322 322 321 321 320 320 320 320 319 320 320 320 319 319 319 319 320 321 321 321 320 319 319 320 320 320 319
317 318 319 320 320 320 320 320 321 320 320 321 321 322 322 322 322 321 321 321 321 321 320 320 320 320 320 320 320 319 319 320 320 320 319 317 316 317 319 319 318 318
309 311 313 316 319 320 320 320 320 320 320 320 320 321 321 321 321 321 321 321 320 321 321 320 320 320 320 320 319 319 319 318 319 319 318 317 317 317 318 318 317 317
305 305 306 308 312 314 316 316 316 316 318 321 321 322 321 321 320 320 321 321 321 321 321 321 320 321 321 320 319 318 318 317 318 318 317 317 317 318 318 318 316 316
304 304 304 304 306 308 309 310 309 309 312 315 319 321 321 321 321 321 321 321 321 320 320 320 320 320 321 320 320 319 319 318 318 318 318 318 318 317 318 318 316 316
303 303 303 303 304 305 306 306 306 306 307 309 311 313 315 315 317 319 320 321 320 319 318 318 318 319 319 320 320 320 320 320 319 318 318 318 317 317 319 318 317 317
303 303 303 303 303 303 304 304 305 305 306 307 307 308 308 308 309 311 314 317 318 319 319 318 318 318 319 319 319 318 319 319 319 318 318 318 317 318 319 318 316 317

ECMWFNIL_925_thetae_057.txt.gz
Theta_e
323 322 323 324 325 325 324 323 323 324 324 324 323 323 323 323 322 321 322 324 324 324 323 322 322 325 326 326 325 325 326 326 326 326 326 326 326 326 326 326 327 328
323 322 323 324 324 323 323 323 324 323 323 323 323 322 322 322 322 321 321 323 324 323 322 321 322 324 326 324 320 321 323 324 325 324 322 322 324 324 325 326 326 326
322 322 323 323 322 322 323 324 323 323 323 322 321 321 321 321 321 321 319 321 323 322 321 320 320 322 325 323 318 317 320 322 321 319 318 319 322 324 325 326 326 326
323 323 322 321 321 322 324 324 323 323 321 320 320 320 320 319 320 320 318 319 321 320 319 319 318 319 322 323 319 316 318 318 316 316 317 320 322 324 325 326 326 325
323 323 322 321 322 323 324 323 323 323 320 318 319 320 320 319 319 320 318 318 319 319 318 317 316 316 318 320 318 315 316 316 315 315 317 317 318 318 321 324 325 325
324 323 322 322 323 322 322 323 323 323 320 318 318 319 319 318 318 319 318 317 317 317 316 315 314 315 316 317 316 315 315 315 315 315 316 315 315 314 315 319 322 323
324 323 322 322 322 322 322 323 323 322 320 318 318 317 317 317 317 319 318 317 317 316 315 315 314 315 315 315 315 315 315 314 314 314 315 315 315 314 313 314 316 319
323 322 321 321 321 322 323 324 323 321 319 318 317 315 315 315 316 318 318 317 317 315 314 314 314 315 315 314 314 315 315 314 313 313 314 313 314 315 314 313 313 314
322 322 321 321 321 322 324 324 323 321 319 318 317 315 314 315 316 318 318 317 316 315 314 313 313 313 314 313 314 315 314 314 314 315 315 314 314 315 314 314 313 313
323 322 322 322 322 322 322 322 322 320 318 318 316 314 315 316 316 316 316 316 316 316 315 314 314 314 314 314 314 314 315 315 316 316 316 315 315 314 314 314 314 314
322 322 322 322 321 322 321 321 320 319 318 318 316 314 315 316 315 315 316 316 316 316 315 314 314 314 314 314 314 314 315 315 315 315 315 316 315 314 314 313 314 314
322 321 321 321 320 320 318 318 319 319 318 317 316 315 316 316 315 315 316 316 316 315 315 315 315 314 314 314 315 315 315 316 315 314 314 314 314 314 313 313 313 313
321 320 320 320 319 316 314 314 317 319 318 317 317 316 316 317 316 315 315 315 315 315 315 316 316 316 315 315 316 316 315 315 315 315 314 314 314 314 313 313 313 313
321 321 321 320 318 316 315 314 315 318 318 317 318 317 317 317 317 316 315 315 315 316 316 316 316 317 316 316 316 316 314 315 315 315 314 314 314 314 313 314 315 315
321 321 321 320 318 317 315 314 315 319 319 318 318 318 318 318 318 317 317 316 316 316 316 316 316 317 317 316 316 316 315 315 315 315 314 314 315 314 314 316 316 317
321 321 320 319 318 316 314 315 318 320 319 318 319 319 318 318 318 318 318 317 317 317 317 317 317 318 318 317 316 316 316 316 316 315 315 315 317 315 315 316 317 317
319 320 319 319 320 319 318 319 320 320 319 319 319 318 318 318 318 318 318 318 318 317 317 318 318 318 319 318 317 316 317 318 318 317 316 317 318 318 317 318 318 318
319 320 320 320 320 320 320 321 321 320 320 320 319 319 319 318 317 317 317 317 317 317 317 318 318 318 318 319 319 318 318 319 319 318 318 319 319 320 319 320 320 319
320 320 319 320 320 320 320 321 321 321 321 321 321 320 320 320 319 319 319 318 318 317 317 318 318 318 318 319 320 319 319 319 319 319 319 319 319 320 321 321 321 321
319 319 318 318 319 320 320 320 320 321 322 322 322 322 321 321 321 320 320 319 319 319 319 319 319 319 319 319 320 320 320 320 320 321 320 320 320 321 322 322 322 321
316 318 318 319 319 318 318 318 319 320 320 320 321 322 322 322 321 321 320 319 319 319 319 319 319 319 319 319 319 319 319 319 320 320 320 320 321 321 321 321 320 320
308 311 313 314 314 313 312 313 315 318 319 320 320 320 320 320 321 320 319 319 319 319 319 319 319 319 319 319 319 319 319 319 319 320 320 320 320 320 320 319 318 318
303 304 305 306 307 306 306 307 309 311 315 317 319 320 320 320 321 321 320 320 320 320 320 319 318 317 318 319 320 320 319 319 319 319 320 320 319 319 319 318 317 317
302 302 303 303 303 303 304 305 306 307 308 310 312 313 314 315 316 317 319 320 320 320 321 320 319 318 319 320 320 320 320 319 319 318 319 318 318 318 318 317 317 317
302 302 302 302 302 302 303 303 304 304 305 306 306 306 306 307 308 310 312 313 315 316 318 319 319 319 319 320 320 320 320 320 319 319 319 319 318 318 318 318 318 317
301 301 301 302 301 302 302 302 303 303 303 304 304 304 304 305 305 305 306 307 307 309 310 311 313 315 317 318 318 318 319 319 320 320 319 319 319 319 318 318 317 317

ECMWFNIL_925_thetae_060.txt.gz
Theta_e
329 328 327 325 325 325 324 324 323 322 323 323 323 323 323 323 322 323 325 324 322 321 320 319 322 325 326 326 326 326 326 326 327 326 326 326 327 327 327 328 328 328
328 326 325 324 325 324 324 324 323 322 323 323 323 323 323 322 321 321 323 324 322 321 320 318 321 324 325 324 323 324 325 326 326 326 325 326 326 326 326 326 327 327
326 324 324 324 324 325 324 324 323 323 323 323 323 323 323 322 321 321 321 323 323 321 321 319 320 323 324 323 319 320 324 324 324 323 323 323 324 324 325 325 326 327
324 323 323 323 324 324 324 323 323 323 323 323 322 322 322 321 321 320 320 323 323 321 320 320 320 321 323 323 319 318 322 322 320 319 319 321 323 324 325 325 326 326
324 323 322 323 324 324 323 323 323 323 322 321 321 321 320 320 320 320 319 322 323 321 320 319 318 319 321 323 319 317 319 319 317 317 320 322 323 324 325 326 325 325
323 322 322 323 324 323 322 323 323 323 321 320 319 320 319 318 319 319 319 320 321 320 318 317 316 316 320 321 318 316 317 316 315 318 320 320 321 322 325 325 325 325
322 322 322 322 322 322 323 323 323 323 320 318 318 319 319 318 318 319 318 318 319 318 316 315 313 314 317 319 316 315 315 314 314 316 316 316 316 319 322 324 325 324
323 322 322 321 321 321 323 323 323 323 320 318 317 318 319 317 317 319 318 317 317 316 315 314 313 314 316 316 315 314 314 314 314 314 314 314 313 315 318 321 323 324
323 322 322 321 321 322 323 322 323 323 321 318 317 317 317 316 317 318 318 317 316 316 314 314 314 314 315 315 315 315 314 314 314 313 314 314 313 313 313 315 319 321
323 322 322 322 322 322 322 322 323 323 321 318 317 317 315 315 316 317 318 317 317 316 314 313 313 313 313 313 314 315 315 314 314 314 314 314 314 314 313 313 313 315
323 322 322 322 321 321 321 322 323 322 320 318 317 316 315 314 315 316 317 317 316 316 314 313 313 313 313 313 313 314 315 315 315 316 315 315 314 314 314 313 313 313
322 321 321 321 321 321 322 322 323 321 319 318 317 315 314 314 314 315 315 316 316 316 315 314 314 313 314 314 314 314 315 315 315 315 315 315 315 314 313 313 313 313
322 321 321 321 321 321 322 321 321 320 318 318 317 316 314 315 315 314 314 315 316 316 315 315 314 314 314 314 314 314 314 315 315 315 315 314 314 314 313 313 312 313
322 322 321 320 319 319 319 319 318 318 318 317 317 315 315 315 315 315 315 315 316 316 315 315 315 315 315 314 314 315 315 315 315 315 315 314 314 314 314 313 313 315
321 321 320 318 317 316 316 315 315 316 317 317 317 316 316 316 316 316 316 315 315 315 315 315 315 315 316 315 315 316 316 315 314 314 315 314 314 314 314 313 314 315
320 319 318 317 316 314 314 314 314 315 314 315 316 317 317 317 316 316 317 316 316 315 315 315 315 316 316 316 316 316 316 315 315 314 314 315 314 314 314 315 314 315
319 319 318 318 318 317 316 316 316 315 313 313 316 318 318 318 317 317 317 317 317 316 316 316 316 316 316 316 317 317 316 316 315 315 315 315 315 314 315 316 315 315
318 318 318 318 319 318 318 316 316 316 314 314 317 319 318 318 318 318 318 318 318 318 317 317 317 317 317 317 318 318 317 316 315 315 316 317 317 316 316 317 317 317
318 318 318 318 318 318 318 317 317 318 318 319 319 319 319 319 319 318 318 318 317 317 317 317 317 317 317 317 317 318 318 318 317 316 317 318 318 318 318 318 318 318
319 319 319 319 319 319 319 319 320 320 320 320 320 319 319 319 319 319 319 318 318 318 318 318 317 317 317 317 317 318 318 318 318 317 318 318 319 319 319 318 318 319
318 318 319 318 319 320 320 320 320 320 320 320 320 321 321 321 321 320 320 319 319 318 318 318 318 318 318 318 318 318 319 319 319 319 320 320 319 319 320 320 319 319
313 314 314 314 315 317 318 319 319 319 319 319 320 321 321 321 321 320 319 318 318 318 318 318 319 319 319 319 319 319 319 319 319 319 319 319 319 319 319 319 319 319
306 307 307 307 308 310 312 315 317 318 319 319 320 321 321 321 321 320 319 318 318 319 319 319 319 319 318 318 318 318 318 319 318 318 318 318 319 319 320 319 319 319
303 303 303 304 304 304 305 307 309 311 312 313 314 315 316 317 318 319 320 319 319 320 320 320 320 319 318 318 317 317 318 319 319 319 319 319 319 319 319 319 319 319
301 302 302 302 302 303 303 303 303 304 304 305 305 306 307 308 309 311 313 314 314 315 316 317 318 318 318 319 318 318 319 319 319 319 319 319 319 319 319 319 318 318
300 301 301 301 301 302 302 302 303 303 303 303 303 303 304 304 304 305 307 307 307 308 308 309 311 312 313 314 315 317 318 318 318 318 318 319 319 319 319 319 319 319

ECMWFNIL_925_thetae_063.txt.gz
Theta_e
329 328 327 327 326 325 325 326 327 326 325 324 324 324 324 324 324 323 324 324 322 320 319 322 325 326 326 326 326 326 326 327 327 327 326 327 328 328 328 328 329 329
330 329 329 328 326 325 324 325 325 324 323 323 323 323 323 323 323 324 324 323 321 320 319 322 325 325 324 324 325 326 326 326 326 326 326 327 327 327 328 328 329 329
330 329 329 328 326 325 324 325 323 323 322 322 323 323 323 322 322 323 324 323 321 320 319 321 324 323 319 319 321 325 326 325 325 325 325 325 325 326 327 328 329 328
330 330 329 327 325 324 324 324 323 322 323 323 323 323 322 321 321 322 324 323 321 320 319 321 323 323 321 318 318 323 324 323 322 321 321 323 324 325 325 326 327 327
330 329 328 325 324 324 324 323 322 322 323 323 323 323 322 321 321 321 323 323 322 320 319 319 321 322 323 320 317 321 322 319 318 319 320 323 324 325 325 325 326 326
329 328 326 324 324 324 324 323 323 323 323 323 322 322 321 321 320 320 322 324 322 320 318 318 318 319 322 321 318 319 318 316 318 320 321 322 323 325 326 325 326 326
327 326 325 324 324 324 324 323 323 323 323 322 321 321 321 320 319 319 321 323 322 319 317 315 314 316 320 320 317 316 316 316 318 318 318 318 321 324 326 325 325 325
326 325 324 323 324 324 324 323 323 323 321 320 320 320 319 318 319 319 320 321 320 317 316 314 313 315 319 319 316 315 315 315 315 315 315 315 317 321 324 325 325 325
325 324 323 323 323 323 323 323 323 322 320 318 319 320 318 318 319 318 318 319 318 316 315 314 314 315 318 317 315 314 314 314 314 314 314 314 314 316 319 322 324 324
323 323 323 323 323 322 322 323 323 322 319 318 319 319 318 318 318 318 317 317 316 315 314 314 314 315 316 315 315 315 314 314 314 313 313 314 313 313 313 316 319 322
322 322 322 322 321 321 322 323 323 321 319 318 318 318 317 318 318 318 317 317 316 315 313 313 313 314 314 314 314 315 315 315 315 314 314 314 314 314 313 313 314 316
321 321 321 321 321 321 322 323 322 321 319 318 318 317 316 317 317 318 317 316 316 315 314 313 313 313 314 314 314 314 315 316 316 315 315 314 314 313 314 313 313 313
321 321 321 321 322 322 322 321 321 320 319 318 318 317 316 316 316 317 317 316 316 316 315 314 314 314 314 314 314 314 315 315 315 315 314 314 314 314 313 313 312 313
321 321 321 321 321 321 321 320 320 320 319 318 318 317 316 316 316 315 315 315 316 316 315 315 314 314 314 314 314 314 315 315 315 315 315 314 314 314 313 313 313 313
320 320 320 320 320 320 319 319 319 319 318 317 317 317 316 315 315 315 315 315 315 316 315 315 314 315 315 315 315 315 315 315 315 315 315 314 314 314 314 313 314 314
319 318 318 318 318 317 317 318 318 318 318 317 317 316 316 316 316 316 316 316 316 315 315 315 315 315 315 315 316 316 316 316 315 314 314 314 314 314 314 314 314 314
318 317 316 316 315 315 316 316 316 316 316 316 315 315 317 318 317 316 316 317 317 317 316 315 315 315 315 315 316 316 316 316 316 315 315 315 315 315 315 315 315 315
317 316 316 315 315 315 317 317 316 315 315 314 314 314 317 318 317 314 316 317 317 318 318 317 317 317 317 316 316 316 317 317 317 316 316 315 316 316 316 316 316 317
317 317 316 316 316 316 317 318 317 316 316 316 316 316 318 319 318 317 318 318 318 318 318 317 317 317 317 317 317 317 317 317 317 317 317 316 316 317 317 318 318 318
317 317 317 318 318 318 318 318 318 318 317 318 318 318 318 319 319 318 319 318 318 317 317 317 317 317 317 317 317 317 317 317 317 317 318 318 317 318 318 318 318 319
317 317 318 318 319 319 319 319 319 319 320 320 319 320 320 319 319 319 319 318 318 318 318 318 318 318 318 318 318 318 318 318 318 318 318 318 319 319 319 319 319 320
315 316 317 317 318 318 318 318 319 319 320 320 320 320 320 320 319 318 318 318 318 318 318 319 319 318 318 318 319 318 318 318 319 319 319 319 319 319 319 319 319 319
309 311 312 313 314 315 315 315 316 317 317 319 319 320 320 320 320 319 318 318 318 318 319 319 319 319 319 319 318 318 318 317 318 318 319 319 318 318 318 318 318 319
304 305 306 307 308 308 308 308 309 309 310 312 314 315 315 316 316 316 316 317 317 318 319 319 319 318 318 319 319 318 317 317 317 317 318 319 319 319 319 319 319 319
302 303 303 304 304 304 303 304 304 304 304 305 306 307 307 308 310 311 310 310 311 312 313 314 314 313 314 314 316 317 318 318 317 318 318 319 319 319 319 319 319 319
300 301 301 301 302 303 303 303 303 304 304 304 304 304 304 305 305 306 306 306 306 307 307 308 308 309 309 309 311 313 315 316 317 317 317 317 317 317 317 317 316 317

ECMWFNIL_925_thetae_066.txt.gz
Theta_e
334 333 331 331 331 330 330 329 329 329 328 327 327 327 327 327 327 328 328 328 327 327 327 327 328 328 328 328 329 328 328 330 331 331 332 332 332 332 332 332 331 330
333 332 331 331 331 330 330 329 328 328 328 327 327 327 327 327 327 328 328 328 327 326 326 327 328 328 327 327 328 328 328 329 330 330 331 332 332 332 332 332 331 331
333 331 329 330 331 330 330 329 328 328 328 327 327 327 327 328 328 328 328 327 326 326 326 327 327 326 326 327 328 327 327 328 328 328 330 331 331 332 332 331 331 331
332 329 328 330 330 328 329 329 328 327 327 327 327 326 327 328 328 328 327 326 325 325 324 325 326 324 324 325 326 326 326 326 326 327 328 329 330 331 331 331 330 330
331 329 330 331 329 327 328 329 328 327 327 327 327 326 326 326 327 327 326 326 325 324 323 323 325 325 324 324 325 325 324 324 325 325 325 326 328 330 330 331 331 330
331 330 330 331 329 327 327 327 327 326 327 327 327 326 325 325 326 326 326 325 324 323 322 322 324 325 324 324 324 324 323 323 324 324 324 325 328 329 330 330 331 330
331 331 330 330 329 328 328 328 327 326 327 327 326 325 325 325 324 325 326 325 323 322 321 321 322 324 324 323 323 323 322 323 323 323 323 325 327 329 330 330 330 330
330 330 330 329 328 327 328 328 327 327 327 326 325 325 324 323 323 324 325 324 322 321 319 319 321 323 323 322 321 321 321 322 321 322 322 324 326 328 329 330 330 329
330 330 330 328 326 327 327 326 326 327 326 325 324 323 322 321 322 324 325 323 321 320 318 318 319 321 321 320 320 320 320 321 320 321 321 322 323 325 327 329 329 328
329 329 329 328 327 327 327 326 326 326 325 324 323 322 321 321 322 323 323 322 320 319 318 317 318 320 320 320 320 319 319 320 320 320 321 321 321 322 323 325 326 326
328 328 328 328 328 327 327 327 326 325 323 322 322 321 320 321 322 322 321 320 319 318 318 318 317 319 320 320 320 320 319 319 319 319 320 320 320 320 321 322 323 324
327 328 328 328 328 327 326 326 326 325 323 322 321 320 320 320 321 321 320 319 318 317 317 317 317 318 319 319 319 319 319 319 319 319 319 319 319 320 321 321 321 322
327 328 329 328 328 327 325 326 326 324 323 322 321 319 320 320 320 320 320 319 318 317 316 316 317 317 318 319 319 319 319 319 319 319 319 319 319 319 319 320 320 320
327 328 329 328 327 326 325 325 325 324 323 322 320 319 319 320 319 320 320 319 318 318 318 318 317 318 318 318 318 318 319 319 319 319 319 319 319 318 318 318 318 319
327 327 327 326 326 325 325 325 325 324 323 322 321 320 320 320 320 319 319 319 319 319 319 319 319 319 319 318 318 319 319 319 319 319 319 318 319 318 318 318 318 319
323 324 323 324 325 325 324 324 324 324 323 322 322 321 320 320 319 319 319 319 319 319 319 320 321 320 318 317 318 319 320 320 319 319 319 319 318 319 319 318 319 320
320 321 322 322 323 323 322 322 322 322 321 321 321 320 319 317 318 320 320 320 319 319 319 320 321 318 315 316 317 317 319 320 320 319 319 319 319 318 319 319 319 320
319 319 320 320 319 318 317 317 318 318 317 317 317 317 317 317 317 317 318 319 320 320 320 321 320 316 315 316 316 315 317 319 320 319 319 319 319 319 320 320 320 321
319 318 318 318 317 316 316 316 316 316 315 314 314 314 315 318 318 316 317 318 319 321 322 322 319 317 316 317 316 316 316 318 320 321 320 319 320 320 321 321 322 322
319 319 318 318 317 317 317 316 316 316 316 316 317 316 317 318 318 317 318 318 319 321 322 319 317 317 317 317 317 317 316 317 320 323 322 321 321 322 323 323 324 324
319 319 319 319 319 318 318 318 318 318 318 319 320 319 319 319 319 318 318 318 319 321 320 318 317 318 318 318 318 318 317 317 321 324 323 322 323 324 324 325 325 325
316 317 317 317 318 318 318 318 319 319 320 321 321 320 320 320 319 319 320 320 321 322 320 318 318 318 318 318 318 318 318 320 323 324 323 323 325 325 325 325 324 324
312 314 315 316 317 317 318 318 319 319 319 320 320 320 320 319 318 318 319 319 320 321 320 319 318 319 318 318 318 318 318 321 323 323 323 324 325 324 324 323 324 323
309 310 312 313 314 314 314 316 317 317 318 318 318 317 317 316 316 317 316 316 317 318 318 315 315 316 317 318 319 318 318 320 322 322 323 323 323 323 323 323 323 322
306 306 307 308 308 308 308 310 311 312 314 315 315 314 313 312 312 312 312 312 312 313 312 311 310 310 311 313 316 317 318 318 319 321 322 322 322 322 322 322 322 321
305 305 305 305 306 306 307 307 308 308 309 309 309 309 309 309 308 308 308 307 307 307 307 307 306 306 307 308 310 311 313 315 316 318 319 319 319 318 318 319 320 320

ECMWFNIL_925_thetae_069.txt.gz
Theta_e
334 332 332 331 329 328 330 330 330 330 329 329 329 329 329 329 329 328 328 328 328 328 329 329 329 330 330 329 330 329 330 333 333 332 333 332 331 331 331 330 330 331
333 332 331 329 328 329 329 329 329 329 329 329 329 329 329 329 329 328 328 327 327 327 328 328 329 329 329 329 329 328 328 332 331 331 333 332 331 331 331 331 330 330
332 331 330 329 329 329 329 329 329 328 328 329 329 329 329 329 328 328 327 326 326 327 327 328 329 329 328 328 329 328 328 330 329 329 333 333 332 332 332 332 331 329
331 330 329 329 330 329 329 329 329 328 328 329 329 329 328 327 328 328 327 326 326 326 326 327 328 328 327 328 328 328 328 328 328 328 331 332 332 332 332 332 331 329
332 331 330 330 329 329 330 329 328 328 329 329 328 328 327 327 327 327 326 326 325 325 326 327 327 326 326 327 327 328 328 328 328 328 328 330 332 332 331 332 331 329
334 332 330 329 329 329 329 328 327 327 328 329 328 328 328 327 326 326 326 326 325 324 324 326 326 325 326 327 326 326 326 326 327 327 326 327 330 331 331 331 330 329
333 332 330 330 329 328 328 327 326 326 327 328 327 327 327 327 326 326 326 326 325 323 323 325 326 325 325 326 325 325 325 325 325 325 325 327 329 330 330 330 329 328
333 332 331 329 327 327 328 327 326 326 327 327 327 327 326 326 326 326 326 325 324 323 322 324 325 325 324 324 324 324 324 324 324 324 325 327 330 330 329 329 328 328
334 332 331 329 328 327 328 327 326 326 326 326 326 326 325 325 325 326 326 325 323 322 321 323 324 324 323 323 324 323 323 323 323 324 325 327 329 330 329 329 328 328
334 331 330 330 329 329 328 327 326 326 325 325 325 324 324 324 324 325 326 324 322 321 320 321 323 323 322 322 322 322 322 322 323 324 324 325 327 329 329 329 329 329
334 331 331 330 329 329 328 327 327 326 325 324 324 323 322 323 324 325 325 323 321 319 319 320 322 322 321 321 321 321 321 322 322 322 323 323 324 326 326 327 326 327
333 331 330 328 328 328 328 327 326 325 324 323 322 322 322 323 324 324 323 321 320 319 318 318 319 320 320 320 321 321 321 321 322 322 322 322 323 323 324 325 325 324
332 331 329 327 328 328 327 327 326 323 322 322 321 321 322 322 323 323 321 319 319 318 317 317 319 320 320 320 321 321 321 321 322 322 322 322 322 323 323 323 324 324
328 329 329 328 328 327 327 327 325 323 322 321 321 321 321 322 322 322 321 319 318 318 317 318 318 319 320 320 320 320 321 321 321 321 321 321 321 322 322 322 322 322
327 328 328 327 326 326 326 326 325 324 322 321 321 320 320 321 321 321 321 320 319 319 319 318 319 321 322 321 320 320 320 321 321 321 321 321 320 320 321 321 321 321
326 327 327 326 326 325 325 326 325 324 322 321 321 321 321 321 320 321 321 320 320 321 320 320 322 322 321 321 321 321 321 320 321 321 320 320 320 320 320 320 320 322
325 325 325 325 325 325 325 325 325 323 322 321 321 321 321 321 320 320 320 320 320 320 321 322 323 321 319 319 320 321 322 321 320 320 320 320 320 320 319 319 319 321
323 323 323 324 324 324 323 324 324 323 321 321 321 321 321 321 322 322 322 322 320 320 323 322 319 316 316 317 318 319 321 322 321 320 320 320 320 319 319 319 318 319
322 322 322 322 322 322 322 323 323 323 323 322 321 321 321 321 321 321 322 322 322 323 323 321 317 315 315 315 315 315 316 318 320 321 320 318 319 319 319 319 319 320
320 320 320 320 320 319 319 320 319 319 319 319 317 316 318 319 319 318 317 319 321 323 322 319 317 317 317 316 316 315 315 315 317 320 321 320 319 319 320 320 321 322
320 320 319 319 319 318 317 316 316 316 318 318 317 316 317 317 318 317 316 319 321 322 320 318 317 317 317 317 317 317 316 316 316 320 323 321 320 321 323 323 324 325
320 320 320 320 320 319 318 316 315 317 318 318 318 318 318 319 319 319 319 321 322 321 319 317 317 317 317 317 318 317 317 317 318 321 323 321 321 323 324 324 325 325
317 318 319 319 319 319 319 318 318 319 319 319 319 319 320 320 320 320 321 321 321 320 318 318 318 318 318 318 318 318 318 320 322 323 322 322 323 324 324 323 322 322
314 315 315 315 316 316 317 318 318 319 319 319 320 319 319 319 318 318 319 320 319 319 318 317 317 318 318 318 319 319 319 320 322 322 321 322 323 323 323 322 321 322
312 313 313 313 313 313 314 315 315 316 317 318 318 317 316 316 315 314 315 316 315 314 313 312 312 313 314 315 317 318 318 319 321 321 321 321 321 321 322 321 320 320
310 311 311 311 311 311 311 312 312 312 313 314 314 312 312 312 313 312 312 311 310 309 309 308 307 307 308 309 311 313 315 317 318 318 319 320 320 319 318 318 318 319

ECMWFNIL_925_thetae_072.txt.gz
Theta_e
334 333 333 332 332 332 332 332 332 331 330 329 330 329 330 331 331 330 330 330 329 329 330 330 330 330 330 330 330 331 331 332 332 331 332 332 331 332 332 332 332 332
333 333 332 331 332 332 331 330 330 330 329 329 329 329 330 330 329 329 329 328 328 328 329 329 330 330 329 329 330 329 330 331 331 331 332 332 331 332 332 331 331 331
333 333 331 330 330 330 329 330 330 329 329 329 329 329 329 329 328 328 327 327 327 328 328 329 329 329 329 329 329 328 329 331 330 330 332 332 330 330 331 330 330 331
333 332 330 328 328 329 329 330 329 329 329 329 329 329 329 328 329 328 327 327 327 327 328 329 329 328 328 329 329 328 329 329 329 330 331 331 330 330 330 330 330 331
333 331 330 328 328 329 329 329 328 328 329 329 329 329 328 328 328 327 326 326 326 326 327 328 328 327 328 328 328 329 329 329 329 330 330 331 331 331 330 331 331 330
333 331 329 328 329 330 329 329 328 328 328 328 329 328 327 327 327 327 326 326 326 325 326 327 326 327 327 327 328 328 328 329 329 329 329 330 331 331 330 330 330 329
332 330 329 330 330 329 329 329 329 329 329 329 328 328 327 327 326 326 326 326 325 324 325 326 326 326 327 327 326 326 326 327 327 327 327 329 330 330 330 330 330 329
331 330 330 330 330 329 329 329 329 329 328 328 328 328 328 327 326 326 326 326 325 323 324 326 325 326 326 325 325 325 325 325 325 326 327 328 330 330 329 330 329 328
331 331 330 330 330 329 328 328 328 328 328 327 327 327 327 327 326 326 326 326 324 322 323 325 325 324 324 324 325 324 324 325 325 326 327 329 330 329 329 329 328 329
331 330 330 329 329 328 327 327 327 327 327 327 327 326 326 326 326 326 326 325 323 322 322 324 324 324 323 324 324 323 323 324 324 325 327 329 329 329 329 328 328 329
330 329 328 328 328 328 327 326 326 327 326 326 326 326 325 325 325 325 326 324 322 321 322 323 324 323 322 322 322 322 322 323 324 325 325 327 328 328 328 328 328 328
329 329 328 328 328 328 327 326 326 326 326 326 325 324 324 324 324 325 325 323 321 320 321 323 323 322 321 321 321 321 322 322 323 324 324 325 326 326 327 327 328 328
329 329 328 329 328 327 327 326 325 325 325 324 323 323 323 324 324 325 324 321 320 319 319 320 321 321 321 321 321 321 321 322 323 323 323 323 324 325 325 325 325 326
328 327 328 329 328 327 327 326 325 324 323 322 322 322 323 324 324 323 322 320 319 318 318 319 320 320 321 321 321 321 321 322 322 323 322 323 324 324 324 324 324 324
327 327 327 328 327 327 327 325 323 322 322 321 321 321 322 323 322 321 320 319 318 318 318 320 322 321 321 321 321 321 321 322 322 322 322 322 322 323 323 323 323 324
327 327 326 326 327 327 325 324 323 322 321 320 320 321 322 322 322 321 320 319 319 319 321 322 322 321 321 321 321 321 322 321 321 321 321 321 321 321 321 321 322 322
326 326 326 326 326 326 325 324 322 321 321 321 321 321 321 322 321 321 321 320 320 321 322 323 321 319 320 320 320 321 321 321 322 321 320 320 320 320 320 320 322 322
325 325 325 326 326 326 325 323 321 321 321 321 322 321 321 322 322 323 323 322 322 322 322 322 321 319 319 319 319 320 320 320 321 321 320 320 320 320 319 319 319 321
323 324 324 325 325 325 324 324 322 322 322 322 321 322 322 323 323 324 324 323 322 321 319 318 317 316 317 318 318 319 319 319 320 320 321 321 319 319 319 319 319 319
322 322 322 322 323 323 323 323 323 323 323 323 322 322 322 321 321 321 321 320 321 320 317 315 315 314 315 314 314 315 316 317 316 316 320 322 321 320 320 321 321 321
321 321 320 320 321 322 321 320 320 320 319 319 320 319 318 318 317 317 317 317 318 318 317 316 315 314 314 313 313 314 314 314 313 313 317 320 321 320 320 321 321 321
320 319 319 319 319 319 319 318 317 317 317 317 317 317 317 317 317 318 318 318 319 319 319 317 316 316 315 315 315 315 315 314 315 316 317 320 321 322 321 320 320 320
321 320 319 319 318 318 318 318 317 316 317 317 317 317 318 318 319 320 320 320 321 320 319 318 317 317 317 316 316 316 315 316 318 320 321 322 321 321 321 320 319 320
318 319 319 319 318 318 319 319 319 319 319 318 318 319 319 319 319 319 319 319 318 317 315 315 315 316 318 318 317 318 318 318 319 321 322 322 321 320 320 320 319 319
314 315 315 316 316 317 318 319 319 319 320 319 319 318 318 318 319 318 317 315 314 312 312 312 312 313 315 317 318 318 318 318 320 321 320 320 319 318 319 318 318 319
312 312 313 313 314 315 316 317 317 318 318 317 317 316 315 315 315 316 315 313 312 311 310 310 309 309 309 311 314 316 317 317 318 318 318 317 317 317 318 318 318 318

ECMWFNIL_925_thetae_075.txt.gz
Theta_e
333 333 334 335 335 335 334 334 333 333 333 332 332 332 332 332 331 331 331 331 331 330 330 330 330 330 331 332 332 333 333 332 332 332 332 332 331 331 331 331 331 331
334 333 334 335 335 334 334 334 333 332 332 332 332 332 332 331 331 330 330 330 330 330 329 330 330 329 329 330 331 332 332 332 331 331 332 332 331 331 330 330 331 332
335 335 334 335 334 334 334 333 332 332 331 331 331 332 331 331 331 330 329 329 329 329 329 329 329 329 329 330 330 330 331 331 331 331 332 331 331 331 331 331 331 332
335 335 334 334 333 333 333 332 331 331 330 329 330 330 329 329 329 328 328 328 328 329 329 329 329 329 329 329 329 330 330 330 330 331 332 331 330 331 331 331 331 331
335 335 333 333 333 332 332 331 331 330 329 329 329 329 328 328 327 327 327 327 327 328 328 328 329 329 328 328 329 329 329 329 330 331 331 331 330 330 330 330 331 332
333 333 331 331 332 331 330 331 331 329 329 329 329 328 328 327 327 327 326 326 326 327 328 327 328 328 327 328 328 328 328 329 330 330 331 330 330 330 330 330 331 331
331 331 330 330 330 329 329 330 330 328 328 329 328 328 328 327 326 326 325 325 326 327 326 326 327 327 327 327 327 328 328 328 329 329 330 330 330 330 330 330 330 329
331 331 331 330 329 329 330 330 329 328 328 328 328 327 327 327 326 326 325 324 325 326 326 326 326 326 326 326 327 327 327 327 327 328 329 330 330 330 330 330 329 328
332 332 331 330 329 330 330 329 329 329 328 328 327 327 327 327 326 325 325 323 323 325 325 325 325 324 325 326 325 325 325 325 326 327 328 329 330 330 330 329 328 328
330 331 330 330 330 330 329 329 328 328 328 327 326 326 326 326 325 326 325 323 323 324 325 325 324 324 325 324 323 324 325 324 325 327 329 329 329 329 329 329 328 328
330 330 329 328 328 329 328 328 328 328 327 326 325 326 327 326 325 326 325 323 322 323 324 324 324 323 324 322 323 324 323 323 325 327 329 329 329 329 328 328 328 327
329 329 329 327 327 328 328 328 327 327 326 325 325 326 326 326 326 326 324 322 322 322 323 323 323 323 322 321 322 322 322 324 325 326 327 328 328 328 327 327 328 327
328 328 328 327 327 327 327 327 327 326 326 326 325 326 325 325 326 325 322 321 321 321 323 323 322 321 321 321 321 321 323 324 324 324 325 326 327 328 327 327 327 326
328 328 327 327 327 327 327 326 326 326 326 325 325 324 324 324 325 323 321 320 320 321 322 321 321 321 320 320 321 321 322 323 323 323 324 325 326 326 326 327 327 325
327 327 327 326 326 326 326 326 325 325 324 323 323 324 323 324 324 322 320 319 319 320 320 320 320 321 321 321 321 321 322 322 322 322 324 324 324 325 325 325 325 324
326 326 326 325 325 325 325 324 324 323 322 322 323 323 323 322 321 320 320 319 319 320 320 320 320 320 321 321 321 321 321 322 322 321 322 322 323 324 324 324 324 324
326 326 326 326 326 325 324 323 322 322 321 322 322 322 322 321 321 320 320 320 320 320 320 319 319 319 320 321 321 321 321 321 321 321 321 321 321 322 323 323 322 321
325 325 326 325 325 324 323 322 322 321 322 322 322 322 322 321 321 320 321 321 321 321 320 318 318 318 319 319 320 320 320 320 321 321 321 320 320 320 321 320 318 317
324 324 324 324 323 323 322 322 321 322 322 323 323 322 322 321 321 320 320 320 320 319 318 317 317 317 317 318 318 318 318 319 320 321 321 321 320 320 320 319 318 318
324 324 323 323 323 322 322 322 322 322 323 323 323 322 321 321 321 319 318 317 316 315 315 315 315 315 315 315 315 315 314 314 316 319 320 320 320 320 320 320 320 320
323 322 322 322 322 322 322 322 322 322 321 321 321 320 319 319 319 318 316 316 315 314 313 313 314 314 313 312 312 312 311 311 315 319 320 320 320 320 320 320 320 320
321 321 320 320 320 320 320 320 320 320 319 318 318 317 317 317 316 316 316 316 316 315 314 314 314 314 314 313 313 312 312 313 317 320 321 321 321 320 320 320 320 320
319 319 319 319 319 318 318 318 318 318 317 316 315 315 315 315 316 317 317 317 317 316 316 316 315 315 315 315 315 315 315 317 319 320 321 321 321 320 320 319 319 320
318 318 319 319 318 317 317 317 316 316 315 315 314 314 315 316 317 317 317 317 316 316 315 316 316 316 317 317 317 317 318 319 320 320 320 320 320 319 319 319 320 320
317 318 318 318 318 318 318 317 317 317 316 316 316 317 317 316 316 315 315 314 313 312 311 312 312 313 315 317 317 318 319 320 319 319 319 319 318 318 318 318 318 318
316 317 317 318 318 319 319 319 318 318 317 317 317 317 317 316 315 314 312 310 309 309 309 308 308 307 309 312 314 315 317 318 318 317 317 318 317 316 315 314 313 312

ECMWFNIL_925_thetae_078.txt.gz
Theta_e
334 334 333 332 333 333 334 333 332 332 332 332 333 333 333 333 333 333 333 333 333 333 334 333 332 333 333 333 333 333 333 333 333 333 331 330 331 331 330 331 331 330
333 333 332 332 333 332 332 333 332 332 332 332 333 333 333 333 333 333 332 333 332 332 332 331 332 333 333 333 333 333 333 333 333 333 331 330 330 331 331 331 330 330
331 331 331 332 334 332 331 332 333 332 332 331 332 332 332 332 332 332 332 332 331 331 330 330 331 332 332 332 333 333 333 333 333 332 331 331 330 331 331 331 330 330
332 331 330 332 334 331 330 332 333 331 331 330 330 331 332 331 332 331 331 331 330 330 330 329 329 330 331 332 332 332 332 332 332 332 332 332 331 330 331 331 330 330
333 333 331 331 333 332 331 332 332 330 330 329 329 330 331 331 331 331 330 330 330 329 329 329 329 329 329 330 330 331 332 331 331 331 332 332 331 331 332 331 330 331
333 333 332 332 333 333 332 331 330 330 330 328 328 330 331 330 330 330 330 329 329 329 328 329 329 328 329 329 329 330 331 330 330 330 332 331 330 331 332 331 331 331
333 333 333 333 333 332 331 329 329 329 329 328 329 331 331 329 328 328 328 328 329 329 328 328 329 328 328 328 329 330 329 329 330 330 332 331 330 331 331 331 331 331
333 333 333 333 332 331 329 329 329 329 327 327 329 330 329 328 327 327 327 327 328 328 328 328 328 328 328 328 328 328 328 329 329 330 331 330 329 330 330 330 331 331
332 333 333 332 331 329 328 328 329 328 326 327 328 328 327 327 326 326 326 326 327 327 327 327 327 327 327 328 327 328 328 328 329 329 330 330 329 329 330 330 330 330
331 330 331 331 329 329 327 328 329 328 326 327 328 327 326 326 325 324 324 326 326 326 326 327 327 326 326 327 327 327 327 327 328 329 329 329 329 330 330 330 329 328
329 329 330 330 330 329 327 327 328 327 326 327 328 327 326 326 325 323 324 325 325 325 326 325 325 325 325 326 326 325 325 326 327 328 329 329 329 329 329 329 328 327
328 329 330 330 330 329 327 327 327 326 326 327 327 327 326 325 325 323 323 324 325 325 325 324 324 325 324 324 324 324 324 325 327 328 329 329 329 329 329 329 328 327
327 328 329 329 329 328 327 327 326 326 326 326 326 326 326 326 325 323 322 323 325 325 324 324 324 323 323 323 323 323 324 326 327 328 329 329 328 329 329 328 327 327
327 328 328 328 328 327 327 327 326 325 326 326 326 326 326 326 325 323 322 322 323 324 323 323 323 322 321 322 322 323 324 325 326 327 328 328 328 328 328 326 325 325
327 327 327 326 327 326 326 327 325 325 325 326 326 326 326 325 324 322 322 322 322 323 322 322 322 321 320 321 322 323 324 324 324 326 328 328 327 327 326 324 324 324
327 326 326 326 326 326 326 325 325 325 325 325 325 325 325 324 322 321 321 321 321 322 321 321 320 320 321 321 322 323 323 323 324 325 326 327 327 327 325 324 323 323
326 325 325 325 325 325 324 323 324 324 324 324 324 324 323 322 320 319 320 321 321 321 320 320 320 321 321 321 321 322 322 322 324 324 325 325 326 326 324 322 321 321
325 325 324 324 324 323 322 321 322 323 323 323 322 321 321 320 319 319 319 319 319 320 320 320 320 320 321 321 321 321 321 321 322 323 324 324 325 324 323 322 322 321
325 324 323 323 322 322 321 322 322 322 322 321 320 319 319 318 318 318 318 318 319 319 318 318 318 318 319 320 321 321 321 320 321 322 323 323 323 322 321 321 321 320
324 323 323 323 322 322 321 322 322 321 321 320 319 319 319 318 318 317 317 317 318 318 317 316 316 315 315 317 319 320 321 320 320 320 321 321 320 319 318 318 318 317
322 322 322 322 322 322 322 322 321 319 318 318 318 318 318 317 317 316 316 316 316 316 316 315 314 314 314 315 315 316 318 319 319 320 320 320 319 319 319 319 319 319
320 321 321 321 321 322 322 321 320 318 317 317 316 316 316 315 315 314 314 314 315 315 315 314 313 314 315 316 315 314 316 317 318 320 319 320 320 320 320 320 320 320
319 319 319 320 320 321 320 320 319 318 316 316 316 316 315 315 315 314 314 314 314 314 314 314 314 315 316 318 318 317 317 317 318 319 319 320 320 320 320 320 320 320
317 317 318 318 318 318 317 317 317 317 316 316 316 317 316 315 315 315 315 315 315 314 315 315 316 317 317 319 320 320 318 318 318 319 319 319 319 319 319 319 319 319
316 316 316 316 316 316 315 315 314 315 315 315 315 315 315 314 314 314 313 313 313 314 314 315 316 317 318 319 320 319 318 317 317 319 319 318 317 317 316 316 316 315
316 315 314 315 315 315 315 315 314 314 314 314 315 314 313 312 312 312 310 309 309 311 311 312 313 314 316 318 319 319 319 318 318 318 317 315 314 313 312 311 310 310

ECMWFNIL_925_thetae_081.txt.gz
Theta_e
331 331 332 331 332 333 333 332 332 332 332 332 332 333 333 333 333 333 333 332 333 334 333 334 334 333 333 333 334 333 333 332 332 332 331 331 331 331 331 330 330 330
331 331 332 331 332 333 332 332 332 331 332 332 332 333 333 333 332 333 333 333 334 334 334 334 334 333 333 333 333 333 332 332 332 332 332 331 331 331 331 330 330 331
330 330 331 331 331 332 332 332 331 331 332 332 333 333 332 332 331 332 333 334 334 334 334 334 333 333 333 333 332 332 332 332 332 332 332 331 331 330 331 330 330 331
329 329 330 331 331 332 332 332 331 332 332 332 332 332 332 332 332 331 332 333 333 333 333 333 333 333 333 332 333 333 332 333 332 332 332 331 330 330 330 331 331 330
330 328 329 330 331 332 332 332 331 331 332 332 331 332 332 332 332 331 330 332 332 332 332 332 331 332 333 332 333 332 332 333 332 332 332 331 330 330 330 331 331 330
331 330 330 330 330 331 332 331 331 331 332 332 331 332 331 331 331 330 329 330 332 331 330 330 330 331 332 332 332 332 332 332 332 331 331 331 331 331 331 331 331 330
332 332 331 330 329 330 331 331 331 332 332 331 331 331 331 330 329 328 329 330 331 330 330 329 329 329 330 331 331 331 331 331 331 331 331 331 331 331 331 331 331 330
332 333 332 329 327 328 330 331 331 332 332 331 331 330 330 330 328 328 329 330 330 329 329 329 329 328 329 330 330 330 330 331 330 330 330 331 331 331 330 331 331 331
333 333 331 329 327 328 330 331 331 331 331 331 330 330 329 328 328 328 329 330 329 329 329 328 329 328 328 328 328 329 330 330 329 329 330 331 331 330 330 331 331 331
332 331 329 328 328 328 330 331 330 330 330 330 330 329 328 327 327 328 329 329 329 328 328 328 328 328 328 328 328 328 329 329 329 329 330 330 329 329 330 330 330 330
331 330 328 328 328 328 329 330 329 329 329 330 329 328 328 327 327 328 328 328 328 328 328 328 328 328 328 328 328 328 328 328 328 329 329 329 329 329 329 329 329 330
329 329 328 327 327 328 329 328 328 328 329 329 329 327 326 326 326 327 326 326 327 328 328 327 327 327 327 327 327 327 327 327 328 328 328 329 329 329 329 329 329 330
328 329 328 327 327 327 327 327 327 327 328 328 327 326 326 326 326 325 326 326 326 326 327 327 326 326 326 326 327 327 326 326 326 327 328 329 329 329 329 329 329 329
327 328 328 327 327 326 325 327 327 326 326 326 326 325 325 326 324 324 325 326 325 326 326 326 326 325 325 325 325 325 325 325 326 326 328 329 329 329 329 329 328 327
326 327 327 327 327 326 325 326 326 326 325 325 325 324 325 325 323 324 325 325 325 325 325 325 324 324 324 324 324 324 324 325 326 327 328 329 329 328 328 328 326 324
326 326 327 327 326 326 325 325 326 325 325 324 324 324 324 324 323 323 324 324 324 324 324 323 323 323 322 323 323 323 325 326 327 328 328 328 328 328 327 325 323 322
326 326 326 326 325 325 325 325 325 325 324 324 324 324 325 325 323 322 323 323 324 323 322 322 322 321 321 322 322 323 324 326 326 327 328 327 327 326 324 322 322 321
325 325 325 325 325 325 325 325 325 325 324 323 323 324 325 324 322 322 322 322 322 322 321 321 320 321 321 322 322 323 324 324 325 327 327 327 326 325 322 321 320 319
324 324 324 324 324 324 324 324 323 323 322 322 323 323 322 321 321 321 320 320 321 320 320 320 320 321 321 322 322 322 323 324 325 326 327 326 325 323 320 319 318 318
323 323 323 323 323 323 323 322 322 321 320 320 321 321 320 319 319 319 319 319 319 320 320 320 320 321 321 321 321 321 322 323 324 325 325 324 322 320 318 318 318 319
321 321 321 321 321 321 321 319 318 318 316 316 317 318 318 318 318 318 318 318 318 319 319 320 320 320 320 321 320 320 321 322 323 323 322 320 318 318 318 318 319 319
320 320 320 320 319 319 318 317 315 315 314 313 314 315 315 316 317 316 317 316 317 318 318 319 320 320 320 320 320 320 321 321 322 321 319 317 318 318 318 319 319 319
318 320 319 318 318 317 316 315 314 313 313 312 312 313 313 314 315 315 315 315 316 316 316 317 318 320 320 320 320 320 320 320 320 319 318 318 318 318 319 319 319 319
316 318 318 317 316 315 314 314 313 313 312 312 312 312 312 313 313 313 314 315 315 315 315 315 317 318 319 319 319 319 319 319 319 318 318 319 319 318 319 319 318 318
313 315 316 315 313 313 312 311 311 311 311 310 309 310 312 312 312 313 313 313 315 316 316 316 318 319 318 318 318 318 317 318 317 317 318 319 318 318 318 317 316 316
312 312 312 312 311 311 310 310 310 309 310 308 306 306 309 310 311 311 311 312 313 315 316 317 319 320 319 319 318 317 317 317 316 317 318 318 317 318 317 315 313 312

ECMWFNIL_925_thetae_084.txt.gz
Theta_e
332 330 329 329 330 331 332 332 332 331 330 330 330 331 332 333 333 333 333 333 333 333 333 333 333 333 333 333 333 333 333 333 333 332 332 332 332 331 331 331 331 330
330 329 329 329 330 331 331 331 332 332 331 331 330 331 332 333 333 333 333 332 332 332 332 332 333 333 333 333 334 334 333 333 332 332 332 332 332 331 331 330 330 330
329 328 329 329 330 330 331 331 331 332 332 331 331 331 332 333 333 332 333 332 332 332 331 332 332 333 333 334 334 333 333 333 333 332 332 332 331 331 331 330 330 330
329 329 329 329 330 330 330 331 331 332 332 332 331 332 332 332 332 333 332 332 332 332 332 332 332 333 333 333 333 333 333 333 333 332 332 331 331 331 330 330 330 330
328 329 329 329 329 330 330 331 331 331 331 331 331 331 331 332 332 332 332 332 332 332 332 332 332 332 333 333 333 333 333 332 332 332 332 332 331 331 330 330 330 330
327 328 329 328 328 329 330 330 330 330 331 331 331 331 331 332 332 332 332 332 332 332 331 332 331 331 332 333 332 332 332 332 332 332 332 332 331 331 330 330 330 330
327 327 327 327 327 328 329 330 330 330 331 331 331 331 331 332 331 332 332 332 331 331 331 331 331 332 332 332 332 332 332 332 332 332 332 332 331 330 330 330 330 331
327 327 327 327 327 327 328 329 329 330 331 331 331 331 331 331 331 332 332 332 330 330 331 332 332 332 332 332 332 332 332 332 332 332 332 332 331 331 330 331 331 331
327 328 328 328 328 327 328 329 329 329 330 330 330 331 331 331 331 332 332 331 329 330 330 330 330 330 330 331 332 332 332 332 332 331 331 331 331 331 331 331 331 331
326 327 328 328 328 328 329 329 329 329 330 330 330 331 330 331 331 331 331 330 329 330 330 330 329 329 329 330 331 331 331 331 331 331 330 330 330 331 330 330 331 331
325 326 327 327 328 328 328 327 327 328 329 329 330 330 330 330 331 330 329 329 330 330 330 329 329 328 328 328 329 329 329 329 330 330 329 330 330 330 330 329 330 330
324 325 326 326 327 327 327 326 326 326 328 329 330 330 330 330 330 329 329 329 330 329 329 328 328 328 328 328 328 328 328 329 329 329 329 329 330 329 329 329 329 330
324 325 326 326 326 327 327 327 326 326 328 329 329 329 329 329 328 328 328 329 329 329 329 328 328 328 328 327 328 327 328 328 328 328 329 329 329 329 329 329 329 329
325 325 325 326 326 326 327 327 327 327 328 328 328 328 328 328 328 327 327 328 328 328 328 327 327 327 327 327 327 327 327 327 327 328 328 328 329 329 329 329 329 329
325 325 325 326 326 327 327 326 326 327 327 328 328 328 328 327 327 326 326 327 327 327 327 327 327 327 326 327 327 326 327 326 327 327 327 328 329 329 329 329 329 328
324 325 326 326 326 326 326 326 325 326 327 327 327 327 327 325 325 325 326 326 326 326 326 327 326 326 326 325 325 326 326 326 325 325 326 328 328 329 329 328 327 326
323 325 325 325 325 326 325 325 325 326 326 326 326 326 325 325 324 324 324 325 325 325 326 326 326 326 325 324 325 324 324 325 325 325 327 327 328 328 328 325 324 323
321 323 324 325 326 326 325 325 325 326 325 325 324 325 325 324 323 323 324 325 325 325 325 325 325 324 324 323 323 323 324 325 326 327 327 327 327 327 325 323 321 321
320 322 323 324 325 325 324 324 325 324 324 324 324 324 324 323 322 322 323 324 324 324 324 324 323 323 322 322 322 323 324 325 327 327 327 326 325 324 322 321 320 320
318 320 322 323 324 324 323 323 324 323 323 323 323 323 323 322 320 321 323 323 323 323 322 322 322 321 321 322 322 322 324 325 326 327 326 324 323 321 320 320 319 318
317 319 320 320 320 321 321 321 321 321 321 321 321 321 321 320 319 321 322 322 322 322 321 320 321 321 321 322 322 323 324 325 326 326 324 321 319 318 318 317 317 317
315 316 317 318 316 315 316 318 318 318 317 317 317 317 316 315 316 319 320 320 320 320 320 320 320 321 321 321 321 322 323 325 325 324 322 318 316 316 316 315 316 317
312 313 314 315 315 312 310 311 313 314 314 314 314 314 312 311 312 316 318 318 319 319 320 320 320 319 320 320 320 321 323 323 324 322 319 317 316 316 316 317 317 317
310 310 310 311 312 312 310 308 309 310 310 311 311 311 311 309 309 313 317 317 318 319 319 320 320 319 319 320 320 321 322 322 322 319 317 316 316 317 317 317 318 319
309 309 308 307 307 309 310 309 309 308 308 309 309 309 310 309 309 312 315 315 317 318 319 319 319 318 319 320 320 320 321 320 319 318 316 316 316 316 316 315 315 315
308 308 307 306 305 306 306 308 309 309 309 309 309 309 310 310 310 313 314 314 315 317 317 317 317 316 317 318 318 319 319 319 318 317 316 315 314 314 312 311 310 310

ECMWFNIL_925_thetae_087.txt.gz
Theta_e
331 331 330 331 331 332 332 332 332 333 333 333 333 332 331 331 331 331 330 330 331 332 333 333 333 333 333 333 332 333 333 332 332 333 331 330 331 331 331 331 331 330
331 330 330 330 331 331 330 331 331 331 332 332 333 332 331 331 330 330 329 328 330 332 332 333 333 333 332 332 332 333 332 332 332 332 331 330 331 331 331 331 331 331
329 329 329 329 329 330 330 330 330 330 331 332 332 331 331 331 330 330 329 329 330 332 332 332 333 333 332 332 332 331 331 331 332 331 330 331 331 331 331 331 331 331
328 328 328 328 329 329 329 330 330 330 331 331 332 332 331 331 330 331 330 329 330 331 332 332 332 332 332 332 332 331 330 331 332 331 330 331 331 331 331 331 331 331
327 328 328 327 328 328 329 329 330 330 330 331 331 331 331 331 330 331 331 330 329 331 332 332 331 332 332 332 332 331 330 331 331 331 331 331 331 331 331 331 331 330
327 327 327 327 327 327 328 329 329 330 330 330 331 331 331 331 331 331 331 331 331 331 332 332 331 331 332 332 332 331 331 330 329 329 330 331 331 331 331 330 330 330
327 327 327 327 327 327 328 328 329 330 329 329 330 330 330 331 331 331 331 331 332 332 332 332 331 331 332 331 331 331 331 330 328 327 329 330 330 330 330 330 331 330
326 326 326 327 328 327 327 327 328 329 329 329 329 330 330 331 331 331 331 331 332 331 331 331 332 332 332 331 331 331 331 330 329 329 329 329 329 330 330 330 331 331
325 326 326 327 327 327 327 328 328 329 329 329 329 329 330 330 331 331 331 331 331 330 331 331 331 332 332 332 331 331 331 330 329 328 328 329 330 331 331 330 330 330
325 325 325 326 327 327 328 328 329 329 329 329 329 329 329 330 331 331 331 330 330 330 331 331 331 332 332 332 331 331 331 330 329 328 329 330 331 331 331 330 330 330
324 325 325 325 326 327 328 328 328 328 328 328 328 329 329 329 330 330 330 330 331 331 331 331 331 331 332 332 332 332 331 330 330 330 330 331 332 331 331 330 330 331
324 325 325 325 325 326 327 327 327 327 327 326 327 328 329 329 329 329 329 329 330 331 330 330 331 330 331 331 331 332 331 331 331 331 331 331 331 331 332 331 331 331
322 324 325 325 325 326 326 326 327 327 327 326 327 328 328 329 329 329 328 327 329 330 330 330 330 330 329 329 329 330 330 330 330 331 330 330 331 331 331 330 330 331
319 321 323 324 325 325 325 326 326 326 326 326 326 327 328 329 329 329 328 327 327 329 330 330 329 329 328 328 328 328 328 328 329 330 330 330 330 330 330 330 330 330
316 318 320 323 325 325 325 326 326 326 326 326 326 327 327 328 328 328 328 327 327 329 330 329 329 328 328 328 327 327 327 328 328 328 329 329 330 330 329 329 329 329
315 316 318 320 323 324 325 325 325 326 326 326 326 326 327 327 327 327 327 327 328 329 329 329 328 327 327 327 327 327 327 327 328 327 328 329 329 329 329 329 329 329
314 316 318 320 322 323 324 325 325 325 325 325 325 326 326 326 326 326 326 327 327 328 328 328 327 327 327 327 327 327 327 327 327 327 327 328 328 328 329 329 329 328
313 316 319 320 322 323 324 324 325 325 325 324 325 325 325 325 325 325 325 326 325 325 327 328 327 327 326 326 326 326 326 326 326 326 326 327 328 328 329 328 328 327
312 315 317 319 320 321 322 323 324 324 324 323 324 324 324 324 324 324 324 324 324 325 326 327 327 326 326 325 325 325 325 325 325 325 326 327 328 328 327 326 325 324
311 313 314 315 316 319 321 321 322 323 323 322 323 323 322 322 322 323 323 323 323 325 326 325 326 326 325 324 324 323 324 325 325 326 326 326 325 324 323 322 321 321
309 311 312 312 313 315 317 318 317 318 319 319 319 320 320 319 319 320 322 323 323 324 324 324 325 324 323 323 322 323 324 325 326 326 326 324 322 320 320 319 319 319
308 309 309 310 310 311 313 314 314 313 314 314 315 315 315 316 316 316 318 320 321 322 322 323 323 322 322 322 322 323 325 326 326 325 323 321 319 318 317 317 318 318
307 308 308 307 307 307 308 310 311 311 310 311 312 312 312 312 313 313 314 315 317 319 321 321 321 320 321 322 322 323 324 325 324 321 319 318 316 316 316 316 316 317
305 306 306 306 306 305 305 306 308 310 309 309 310 311 311 311 312 313 312 313 315 317 319 319 320 320 321 321 322 323 324 324 322 318 316 315 315 315 315 315 315 316
304 305 306 306 305 304 304 304 305 307 308 308 308 310 311 311 312 312 311 311 313 315 317 318 318 319 319 320 320 322 323 323 320 317 315 315 315 315 315 316 317 318
304 304 305 305 305 304 304 304 304 305 307 308 307 308 310 311 312 312 310 309 310 312 313 316 317 318 318 318 319 319 320 320 318 315 314 314 315 316 317 317 318 319

ECMWFNIL_925_thetae_090.txt.gz
Theta_e
333 333 334 334 334 334 334 334 335 335 335 335 335 335 335 335 334 334 333 333 333 334 335 334 333 333 333 333 333 333 332 332 333 333 332 333 332 332 332 333 333 332
332 332 332 332 332 332 332 333 333 335 335 335 335 334 334 334 334 334 333 333 333 334 334 334 333 333 333 333 333 333 332 331 331 332 333 333 333 332 331 330 332 332
330 331 331 331 331 331 332 332 332 333 334 334 335 334 334 334 335 334 333 333 333 333 333 333 333 333 333 333 333 333 332 331 332 333 333 333 332 331 330 330 332 333
329 329 329 330 330 330 331 331 331 332 332 333 334 334 334 334 334 333 333 333 332 332 333 333 333 333 333 333 333 333 333 333 334 334 333 333 332 331 331 332 332 333
328 328 329 329 330 330 331 331 331 332 332 332 333 334 333 333 333 333 333 332 332 332 333 333 333 333 333 333 333 333 334 334 334 333 333 333 332 332 333 333 332 331
327 328 329 330 330 331 331 330 331 331 331 332 333 333 333 333 333 332 332 333 332 332 332 333 333 333 333 332 333 333 333 333 333 332 332 332 331 332 332 332 331 331
326 327 328 329 330 330 330 330 330 331 331 332 332 332 333 333 333 332 332 333 333 332 333 333 333 333 333 332 332 332 333 332 332 332 332 332 332 332 332 331 330 330
325 326 327 328 329 330 330 330 330 331 331 331 331 331 332 333 333 333 333 333 333 333 333 333 333 333 332 332 332 332 332 332 332 332 332 332 332 331 331 330 330 330
325 326 327 327 328 329 330 330 329 330 330 330 330 331 331 332 332 333 333 333 333 333 333 333 333 333 332 332 332 332 332 332 331 331 331 332 332 331 330 330 330 331
324 325 326 327 328 328 329 329 329 330 329 329 330 330 331 331 332 333 333 333 333 333 333 333 333 333 332 332 332 332 332 331 331 331 331 332 332 331 330 330 331 332
322 323 324 326 327 328 328 328 329 329 329 329 329 330 330 331 331 333 333 333 333 333 333 333 333 333 332 332 332 332 332 332 332 331 331 332 332 332 330 329 332 333
320 321 322 323 325 327 327 327 328 328 329 329 329 329 330 330 331 332 332 332 333 333 333 333 333 333 332 333 333 332 332 331 331 331 332 332 332 332 331 331 332 332
318 319 320 321 322 324 326 327 327 327 328 329 329 329 329 329 330 330 330 331 333 333 333 333 333 333 332 332 333 332 331 331 331 332 333 332 331 331 330 331 332 332
317 318 319 320 321 323 324 326 327 327 327 328 328 328 328 329 329 329 329 331 332 332 333 334 332 332 332 332 331 331 330 331 332 333 332 331 330 330 330 331 331 331
316 317 319 320 322 323 324 325 326 327 327 327 327 328 328 328 328 329 329 330 331 331 333 333 332 331 331 331 330 330 330 330 331 331 330 330 330 330 331 332 331 331
315 317 318 320 321 323 324 325 325 326 327 327 327 327 327 328 328 328 328 329 330 330 331 331 331 330 330 330 330 330 330 330 331 331 330 330 331 331 332 332 331 331
314 316 318 319 320 320 322 323 325 325 326 326 326 326 327 327 327 327 328 328 329 329 329 329 329 328 329 330 329 327 327 328 328 329 331 331 332 332 332 332 332 332
313 315 317 318 318 318 318 320 322 324 325 326 326 326 326 327 327 327 327 327 327 328 328 328 328 328 328 329 328 326 327 327 327 328 331 332 332 332 332 332 332 331
311 314 315 316 317 317 316 316 316 319 323 325 325 325 326 326 326 326 326 326 326 326 327 327 327 327 328 327 327 327 327 327 328 330 332 332 332 332 331 331 330 330
310 312 313 314 315 314 314 313 312 314 318 322 324 324 324 324 324 324 324 325 325 325 326 326 325 326 327 327 327 327 327 326 328 331 331 331 331 330 330 330 329 329
309 311 312 313 313 313 312 311 310 310 312 315 318 319 320 320 320 320 321 321 322 324 324 324 324 325 327 326 326 326 326 326 329 330 329 329 328 328 327 328 328 328
309 309 311 312 312 311 310 309 309 308 309 310 312 313 314 315 315 316 317 317 319 320 321 321 322 324 326 325 325 324 325 327 328 328 327 327 326 325 325 325 326 326
308 309 310 311 310 310 309 309 308 307 307 308 309 311 311 311 312 313 314 315 315 315 316 316 318 321 324 323 323 324 325 326 326 325 324 323 323 323 323 324 324 324
308 308 309 309 310 310 309 308 308 307 306 306 307 308 308 308 310 310 311 313 313 312 314 314 314 318 322 322 322 324 324 324 324 322 320 319 318 319 320 321 321 320
308 308 307 308 309 310 309 308 308 308 307 306 305 306 306 306 308 309 308 309 310 311 313 314 312 315 320 321 321 322 322 321 320 319 317 315 315 315 316 317 317 317
307 307 307 307 308 309 308 308 308 307 307 306 305 305 304 304 307 309 309 308 308 309 311 312 312 312 316 318 319 320 321 321 319 317 314 313 313 314 315 315 315 316

ECMWFNIL_925_thetae_093.txt.gz
Theta_e
334 334 335 335 336 336 335 336 335 334 333 333 334 336 337 338 338 338 337 337 336 336 336 335 336 335 334 334 335 335 335 335 336 336 335 336 335 334 333 332 332 332
332 333 333 334 334 334 334 334 334 334 334 334 334 335 336 336 336 337 337 337 336 337 336 336 336 335 334 335 335 334 334 334 335 335 335 335 335 334 333 332 332 331
331 332 332 333 333 333 334 334 333 333 334 335 334 334 335 335 335 335 336 336 336 336 336 336 335 335 335 335 335 334 334 334 334 334 334 335 334 333 333 333 332 332
329 330 331 331 332 332 333 333 333 333 334 334 334 334 334 334 334 334 334 335 335 336 336 336 335 335 335 335 335 334 334 334 334 333 333 334 334 333 333 333 333 332
328 328 329 330 331 332 332 332 332 332 333 333 333 334 334 334 334 334 333 334 336 336 335 335 335 335 334 335 334 334 333 333 333 333 333 333 334 333 333 334 333 332
326 327 328 329 330 331 332 332 332 332 333 332 332 332 334 334 334 334 333 332 334 335 333 333 335 335 335 334 334 334 334 334 334 333 332 332 332 333 333 333 332 332
326 326 327 328 329 330 330 331 331 331 332 333 333 332 332 332 332 333 332 331 333 334 334 334 334 334 335 334 334 334 334 333 333 332 332 333 333 333 333 332 332 332
325 326 327 327 328 329 330 330 331 331 331 332 334 333 331 331 331 331 331 331 332 334 335 335 335 335 335 334 334 334 334 333 333 332 332 332 332 332 332 332 332 332
324 325 325 326 327 328 329 330 331 331 331 332 332 333 331 330 330 331 331 331 331 334 335 334 334 334 333 334 333 333 333 333 333 332 332 331 331 331 332 332 331 331
323 323 324 324 324 325 326 328 330 330 331 331 331 331 331 330 329 330 331 331 331 332 333 334 334 332 331 332 333 333 332 332 332 332 332 331 330 331 332 331 330 331
321 322 322 323 323 324 324 326 327 329 330 331 331 331 331 330 330 329 330 330 331 332 331 331 332 332 331 332 333 333 332 332 332 331 332 332 332 333 332 330 330 332
320 321 321 322 323 323 324 325 326 327 329 330 330 330 330 331 331 330 329 330 331 331 331 331 332 332 331 331 332 333 333 333 332 331 332 332 332 332 331 330 331 333
319 320 320 321 322 323 324 325 326 326 327 328 329 329 330 330 330 330 330 331 331 331 330 331 332 332 331 331 332 333 333 333 332 331 332 332 331 330 329 330 331 332
319 319 320 321 322 322 323 324 325 326 327 328 329 329 329 329 329 329 329 331 332 331 330 331 331 331 331 331 332 333 333 333 332 331 331 331 331 330 330 331 332 332
318 318 320 321 321 322 321 322 322 323 325 326 328 329 329 329 329 329 329 330 332 331 329 330 330 330 331 331 331 332 333 333 332 331 330 331 331 330 331 332 332 332
317 317 319 320 320 320 320 320 319 319 321 322 325 327 328 328 329 329 329 329 331 331 329 330 330 330 330 331 332 332 333 333 332 332 331 331 331 330 331 332 332 331
316 317 318 319 319 319 318 317 317 317 317 317 319 323 326 327 328 328 328 328 329 330 330 330 331 331 330 331 332 332 333 333 332 331 332 331 331 330 329 330 330 330
314 316 317 318 318 318 317 316 315 315 314 313 315 318 322 325 327 327 328 327 327 329 330 329 330 331 330 331 332 331 331 332 332 331 331 330 330 328 327 327 329 329
313 315 316 317 317 316 316 315 314 313 312 311 312 314 317 321 323 325 327 327 327 329 329 328 328 330 330 330 331 330 329 330 331 331 330 329 328 328 327 327 328 328
313 314 315 316 316 315 314 314 313 312 311 310 310 312 314 316 318 321 323 325 327 328 328 327 327 328 328 329 330 329 327 328 329 329 329 328 328 327 327 327 328 328
313 313 313 315 315 314 313 313 312 311 310 309 309 309 310 312 314 316 318 320 322 324 325 326 326 326 326 328 329 328 327 327 327 326 326 326 327 327 326 327 327 326
313 312 312 313 314 313 313 312 311 310 309 308 308 308 307 309 311 312 313 315 317 319 320 321 322 323 325 327 327 327 327 327 326 325 325 326 327 326 324 326 327 326
312 312 312 312 313 313 312 311 310 309 308 307 307 306 305 305 307 308 310 312 313 314 315 316 317 320 323 326 326 326 326 326 326 326 325 325 326 324 323 325 326 326
311 311 311 312 312 311 311 310 309 308 308 307 306 305 304 304 304 305 307 308 309 310 312 313 315 318 321 324 324 324 325 325 324 324 323 322 323 323 322 324 324 324
310 310 311 311 311 311 309 308 308 308 307 306 305 305 304 304 303 303 303 305 306 308 310 313 314 316 319 321 322 322 323 322 321 321 321 319 319 320 320 321 322 322
308 308 309 310 311 311 309 307 307 307 307 306 306 305 305 304 304 303 302 302 304 306 308 310 313 315 317 320 320 320 320 321 320 319 318 317 317 316 317 317 318 318

ECMWFNIL_925_thetae_096.txt.gz
Theta_e
332 332 333 333 334 334 335 335 335 335 336 336 336 336 336 335 334 334 334 334 334 334 334 334 333 334 335 335 335 334 334 334 334 333 333 333 334 334 334 333 333 333
331 331 331 331 332 333 333 334 334 334 335 335 335 336 336 336 335 335 334 334 333 331 332 332 333 334 334 335 335 334 333 333 333 333 333 333 333 334 333 333 333 333
329 329 329 330 330 331 332 332 333 334 334 334 334 335 335 336 336 336 335 334 333 332 332 331 332 334 333 335 335 332 332 332 332 333 334 333 333 334 334 333 333 333
327 327 328 328 329 330 330 331 332 333 334 334 334 334 334 335 335 336 335 335 334 334 334 333 333 333 333 334 333 330 332 333 332 333 333 332 333 333 334 333 333 333
325 326 327 327 328 329 330 330 331 332 332 333 333 333 333 334 334 334 334 334 334 334 334 333 332 332 332 333 331 330 332 333 332 333 333 332 333 333 333 333 333 333
324 325 327 327 328 328 328 329 330 331 331 332 332 333 333 334 334 334 334 334 334 333 333 333 331 331 332 332 331 330 331 332 333 332 332 332 333 333 333 333 333 333
324 325 325 326 326 326 326 327 328 329 330 331 332 332 332 333 334 334 333 333 332 331 331 331 331 331 332 331 331 330 330 331 332 332 331 332 333 334 334 333 333 333
323 324 324 324 325 325 325 326 326 327 328 329 331 332 332 332 333 333 333 332 332 331 331 331 331 331 331 331 331 331 330 330 331 331 330 331 332 333 334 333 333 333
322 322 322 323 323 324 324 324 325 326 326 327 329 330 331 331 332 332 332 332 332 330 330 331 331 330 330 331 332 332 331 330 330 330 329 331 333 333 333 334 333 333
321 321 322 322 322 323 323 324 324 325 326 327 327 328 330 331 331 331 331 332 332 331 330 330 331 331 330 331 332 333 332 331 331 330 328 330 332 333 333 333 333 333
321 320 321 321 322 323 324 324 324 324 325 326 327 328 329 330 331 331 331 331 332 331 330 330 330 331 331 331 332 333 332 332 332 331 330 331 332 332 332 332 332 332
320 320 320 321 322 322 323 323 322 322 322 323 324 326 327 329 330 330 330 331 331 331 330 330 331 331 331 331 331 331 331 331 331 331 331 331 331 331 331 331 332 332
319 319 320 320 321 322 321 321 320 320 319 320 320 322 323 326 328 329 330 330 330 329 329 330 331 331 331 331 332 331 331 331 332 331 331 331 331 330 330 330 331 331
318 318 319 320 321 320 320 319 318 317 317 317 317 318 319 321 324 327 329 329 329 330 329 329 330 331 331 331 332 331 330 331 332 330 330 330 331 330 330 331 330 330
317 317 318 319 319 319 318 318 316 316 315 315 314 315 316 319 322 325 327 328 329 329 329 328 329 330 330 330 331 331 331 331 331 331 330 330 330 330 330 330 329 329
316 317 318 318 318 318 317 316 315 314 314 313 313 313 313 316 318 321 323 325 326 327 328 327 328 329 330 330 330 330 331 331 331 330 330 330 330 330 328 329 329 328
315 316 316 317 317 316 315 315 314 313 313 312 311 311 311 313 314 317 319 321 324 325 326 326 327 328 329 329 330 330 330 331 331 330 329 330 330 329 329 329 329 328
314 314 315 316 316 315 314 314 313 312 311 311 310 310 309 310 311 313 315 318 320 322 324 326 326 327 329 329 329 330 330 329 327 327 329 330 329 328 329 330 329 328
314 314 314 314 315 314 314 313 312 311 310 309 309 309 308 308 308 310 312 314 315 317 320 322 323 324 326 327 328 330 330 328 326 326 328 329 329 329 328 328 328 328
313 313 314 314 314 313 312 311 311 310 309 308 308 307 306 306 306 307 309 310 311 313 315 318 320 321 322 324 327 329 329 328 328 328 328 328 328 328 326 324 325 327
312 313 313 313 313 312 311 310 310 309 308 307 307 306 305 305 305 305 305 306 309 311 313 314 317 318 320 322 324 326 327 328 327 327 327 326 326 326 325 324 325 326
312 312 312 312 312 311 310 309 309 308 308 307 306 306 305 305 304 303 303 304 306 309 311 312 314 316 318 321 323 325 326 326 326 326 325 324 323 325 325 325 326 327
311 311 311 312 311 310 309 309 308 308 307 307 306 306 305 304 304 303 303 303 303 305 306 309 312 314 317 320 321 323 325 324 324 325 323 321 321 322 324 325 325 325
309 309 310 310 311 309 308 308 308 307 307 306 306 306 305 304 304 303 303 302 302 303 304 307 310 313 316 319 321 323 323 323 322 321 320 319 319 320 322 323 323 323
306 308 308 309 309 309 308 308 308 307 306 306 306 305 305 304 304 303 303 302 302 302 303 306 309 311 314 318 321 321 322 321 320 318 316 315 316 318 320 321 321 321
305 306 306 306 307 308 307 307 307 306 305 305 305 305 304 304 304 303 303 302 302 301 302 304 308 310 311 315 318 319 319 319 319 317 315 312 312 313 316 317 318 320

ECMWFNIL_925_thetae_099.txt.gz
Theta_e
328 328 328 328 328 329 329 330 330 331 331 333 333 334 334 334 334 335 335 335 335 335 334 334 334 333 332 332 331 331 331 331 331 331 331 331 333 334 334 333 330 330
326 326 326 326 327 328 328 329 329 330 331 332 332 332 333 333 333 334 334 334 335 335 335 334 334 333 332 331 330 330 330 330 330 331 330 330 331 333 334 333 330 331
324 325 326 326 327 327 327 327 328 329 330 330 331 331 332 332 333 333 333 334 334 334 334 334 334 333 333 331 329 330 331 330 330 330 329 329 330 331 332 333 333 333
323 324 325 325 325 325 325 325 326 327 327 327 329 330 332 332 332 332 333 333 334 333 334 334 333 333 333 332 330 331 331 330 329 329 328 328 329 331 332 333 333 332
323 323 323 323 324 324 323 324 324 324 325 325 326 327 329 331 331 332 332 333 333 333 333 333 333 333 332 331 331 331 331 330 330 329 329 329 329 330 332 332 332 330
322 322 322 322 322 322 322 323 323 323 324 325 326 326 327 329 330 330 331 332 333 333 332 333 333 331 331 331 331 331 331 331 331 330 329 330 330 330 330 331 330 330
320 320 321 321 321 322 322 323 323 323 323 323 325 326 326 327 328 329 330 331 331 332 332 332 332 331 330 330 330 330 330 331 331 330 330 331 330 330 330 330 330 329
320 319 320 320 321 322 323 323 323 321 320 321 321 322 324 325 327 328 330 331 330 331 331 331 331 331 330 330 330 330 330 330 330 330 330 331 331 330 330 330 330 329
319 319 320 320 321 322 321 321 320 318 318 317 318 318 320 322 324 327 329 330 330 330 331 331 331 331 330 330 330 330 330 330 330 330 330 331 331 330 330 330 331 330
318 319 319 319 320 320 319 317 317 316 316 315 315 316 317 318 321 324 327 328 329 329 330 330 331 331 330 330 330 330 330 331 331 331 331 331 331 330 329 330 331 332
317 318 318 319 319 318 317 316 315 314 314 314 314 314 315 317 319 322 324 325 327 328 329 329 330 330 329 330 331 331 331 331 331 331 331 331 331 329 328 329 331 331
317 317 318 318 318 316 315 314 314 313 313 313 313 313 314 315 317 319 321 323 325 326 328 329 329 329 328 329 330 331 331 330 331 331 330 331 330 328 328 328 330 330
315 316 317 317 316 314 314 313 313 312 312 312 312 311 312 313 314 315 317 319 321 324 326 327 328 328 328 328 329 330 331 331 330 330 330 330 330 328 328 328 329 329
314 315 315 315 314 313 313 312 312 312 311 310 310 310 310 310 311 312 314 316 318 320 323 325 326 326 326 326 328 329 330 331 330 330 329 329 329 328 327 328 328 328
314 314 314 314 314 313 312 311 311 311 310 309 309 309 308 308 308 308 310 312 315 317 319 321 323 323 323 325 327 328 330 330 330 330 329 327 328 327 326 327 327 327
313 313 313 313 313 312 311 310 310 309 308 308 308 307 307 307 307 306 307 308 311 314 315 317 319 320 321 323 325 328 329 329 329 330 329 327 328 328 327 328 328 327
313 313 313 313 312 311 310 309 309 308 308 307 307 306 306 306 305 305 305 306 308 311 312 312 314 317 319 321 324 326 327 328 329 329 328 327 327 327 327 328 327 327
312 313 312 312 311 310 309 309 308 308 307 307 306 305 305 305 304 304 304 304 306 308 310 310 311 314 318 320 323 324 326 327 328 328 327 326 326 327 327 327 327 327
311 312 311 310 309 309 309 308 308 307 307 306 306 305 305 304 304 304 303 303 304 306 308 309 310 312 316 319 321 323 324 326 327 327 327 326 325 325 326 326 327 327
311 311 310 308 308 308 308 307 307 307 307 306 305 305 304 304 304 303 303 303 303 304 306 308 309 310 315 318 320 322 324 325 325 325 325 325 325 325 326 326 327 327
310 310 309 308 307 307 308 307 306 305 306 306 305 305 304 304 303 303 303 302 302 303 305 307 308 310 314 318 320 322 323 324 324 325 325 325 325 326 325 324 325 326
308 308 308 308 306 306 306 306 304 304 305 305 305 304 304 303 303 302 302 302 302 302 303 306 309 311 314 318 321 322 323 324 324 324 324 324 323 323 324 323 324 326
307 307 307 307 306 305 304 304 303 303 303 304 304 303 303 303 302 302 301 301 301 301 302 304 308 312 315 319 321 321 322 323 322 321 320 320 319 320 322 323 324 324
305 305 305 306 306 305 304 303 302 302 302 302 303 303 302 302 302 301 301 301 300 300 301 303 307 312 316 318 318 318 318 318 318 318 317 315 315 315 317 320 323 323
304 304 303 303 304 305 304 303 301 301 301 301 301 302 302 302 302 301 301 300 300 300 301 302 305 308 313 315 316 317 316 315 316 316 314 313 313 313 314 316 318 320
303 302 302 301 302 303 304 303 301 300 300 300 300 301 301 301 302 301 300 300 300 300 300 301 302 304 308 311 313 315 314 313 313 313 312 311 310 310 312 313 314 316

ECMWFNIL_925_thetae_102.txt.gz
Theta_e
326 326 326 326 326 326 327 327 327 328 329 329 329 330 330 331 332 333 333 333 334 333 334 334 334 332 332 332 332 331 331 331 330 330 330 330 330 330 330 329 329 330
324 325 325 325 325 325 325 325 325 326 327 327 327 328 329 330 331 332 332 332 333 333 333 333 333 333 333 333 332 332 331 330 330 330 330 330 330 330 330 330 330 331
323 323 324 324 324 323 323 323 324 324 325 325 326 326 327 327 329 330 330 331 331 332 333 333 333 333 333 333 333 332 331 331 330 330 330 329 329 330 330 330 330 331
321 321 322 322 322 322 322 323 323 322 322 323 324 325 325 326 327 328 329 329 330 331 332 332 332 332 332 333 333 332 331 331 331 330 329 329 328 329 329 329 329 329
320 320 321 321 321 322 322 322 321 319 319 319 320 321 322 323 325 326 327 328 329 330 331 331 331 332 332 332 332 332 331 330 330 330 329 329 328 328 328 328 329 329
320 320 320 320 320 320 320 319 318 317 316 316 316 317 318 319 321 324 326 327 329 330 330 330 330 331 331 331 331 331 330 329 329 329 329 329 329 329 328 328 329 330
319 319 320 319 317 317 317 316 315 315 314 314 315 316 316 317 318 321 323 326 327 328 329 329 329 330 330 330 331 331 330 329 329 329 329 329 329 329 329 328 329 330
318 319 318 316 315 315 314 314 313 313 313 313 314 315 316 316 317 319 322 324 325 326 327 328 328 329 330 330 330 330 330 330 329 329 328 329 329 329 330 330 329 329
317 317 315 314 314 313 313 312 312 312 311 312 312 313 315 315 315 316 319 322 323 324 325 327 327 328 329 329 329 329 329 329 329 329 329 329 329 329 329 330 330 330
316 314 313 313 312 312 312 311 311 310 310 310 311 311 312 314 314 315 318 320 320 321 323 324 326 327 328 328 328 328 328 329 330 330 330 330 330 330 329 329 330 330
314 313 312 312 311 311 311 311 310 310 309 309 309 309 309 311 312 314 316 316 316 317 319 321 324 325 326 326 326 327 327 328 329 330 331 330 330 330 330 329 329 329
313 313 312 311 310 310 310 310 309 309 309 308 308 307 308 308 309 311 312 312 313 314 316 318 320 321 322 323 324 326 326 327 328 330 330 330 330 330 330 329 328 328
313 312 311 310 310 310 309 309 309 308 308 308 307 307 307 307 308 309 310 310 311 312 314 316 316 317 320 321 323 324 325 326 328 329 329 330 330 329 329 329 328 327
312 311 310 310 309 309 309 308 308 307 307 307 307 307 307 307 306 307 307 309 309 309 311 313 312 313 315 318 320 322 323 324 326 328 328 329 330 329 329 329 328 327
311 310 309 309 309 309 308 308 307 307 306 306 306 306 306 306 306 305 306 307 307 308 309 310 310 309 310 313 315 318 320 323 325 327 328 329 329 329 329 328 327 327
309 308 308 308 308 308 308 307 307 306 306 305 306 305 305 305 305 304 304 304 305 306 307 309 310 308 308 311 313 315 318 321 323 325 327 328 328 328 328 327 326 327
307 308 308 307 307 307 307 307 306 306 305 305 305 305 305 304 304 303 303 303 303 304 305 307 308 307 308 312 315 316 318 320 322 324 326 327 328 328 327 327 327 327
307 306 307 307 306 305 305 305 305 305 305 305 304 304 304 303 303 303 302 302 303 303 304 305 305 307 310 315 317 317 319 321 322 324 326 327 327 327 326 326 326 326
306 305 305 305 304 304 304 304 304 304 304 304 304 304 303 303 302 302 302 302 302 302 303 303 304 307 313 317 318 318 319 321 323 324 325 326 326 325 325 326 326 326
306 305 303 303 302 303 304 304 303 303 303 303 303 303 303 302 302 301 301 301 301 301 302 303 304 309 315 317 319 321 321 321 322 323 324 324 324 324 325 325 325 326
305 305 304 302 302 302 302 302 302 302 303 303 303 303 302 301 301 301 301 301 300 301 302 303 305 310 314 316 318 320 320 319 320 321 322 321 321 322 322 323 324 325
305 304 304 302 301 301 301 301 301 301 302 302 302 302 302 301 301 300 300 300 300 300 301 302 304 309 313 315 316 317 317 317 317 318 318 318 319 319 319 320 322 323
304 304 303 301 301 300 300 300 300 301 301 301 301 302 301 301 301 300 300 300 300 300 300 300 302 306 310 313 315 315 316 315 314 314 314 314 315 315 316 318 319 321
303 303 302 301 300 299 299 300 300 300 300 301 301 301 301 301 300 300 300 300 300 300 299 299 301 304 307 310 312 314 314 312 312 311 311 310 311 312 313 315 316 319
302 303 302 300 299 299 299 299 299 300 300 300 300 300 300 300 300 299 300 300 300 299 299 299 300 302 305 307 310 311 311 309 309 308 307 306 306 308 309 311 312 315
302 302 301 300 299 299 298 298 299 299 300 300 300 300 300 300 299 299 299 299 299 299 299 299 299 300 302 304 306 307 307 306 305 304 303 302 303 304 305 306 307 310

ECMWFNIL_925_thetae_105.txt.gz
Theta_e
325 325 325 326 326 325 325 324 324 324 325 325 325 325 326 326 327 328 329 330 331 331 330 331 331 332 332 333 332 332 332 331 331 331 331 330 330 330 329 329 329 329
324 324 324 324 324 323 322 323 323 322 322 323 323 323 324 325 326 326 327 328 329 329 329 329 330 331 331 332 331 332 332 331 331 331 331 330 330 329 329 329 329 329
322 322 322 322 322 321 321 322 321 320 320 320 320 320 321 322 323 325 325 326 327 327 328 328 329 330 330 331 331 331 331 331 331 331 331 330 329 330 329 329 329 329
320 320 321 321 321 321 321 321 320 318 318 317 317 317 317 317 319 320 323 324 325 326 327 328 329 329 330 330 330 331 331 331 330 330 330 330 330 330 329 329 329 328
319 319 319 319 319 319 319 318 317 316 316 315 315 315 316 316 316 317 319 321 324 325 326 327 328 329 329 329 329 330 331 331 330 330 330 330 329 329 328 328 328 328
318 318 317 317 317 317 317 316 314 314 314 314 315 315 315 316 316 316 317 319 322 325 326 326 327 327 327 327 327 328 329 330 330 330 330 329 329 328 328 328 329 329
316 316 315 315 315 315 314 313 313 312 312 313 314 314 315 315 315 315 316 318 321 323 324 324 325 326 326 326 327 328 329 329 330 330 329 329 329 329 328 328 328 329
314 314 314 314 313 313 312 311 310 310 310 311 312 313 314 314 313 315 317 318 320 321 322 323 324 324 324 325 326 327 328 328 328 329 329 329 329 329 329 329 329 329
313 313 312 312 311 311 310 309 309 308 308 309 309 311 313 312 312 314 316 317 318 319 320 321 322 322 322 323 324 325 325 326 327 327 328 328 328 329 329 329 329 329
312 311 311 311 310 309 309 308 308 308 308 307 307 308 310 309 309 310 312 313 314 316 316 317 319 320 320 321 321 321 322 324 325 326 326 326 327 328 329 330 329 329
311 310 310 310 309 309 308 308 308 308 308 307 307 308 308 308 307 307 308 308 309 310 312 313 314 316 316 317 318 319 320 322 323 324 325 325 326 328 329 329 330 330
309 309 309 309 309 308 308 308 308 308 308 308 307 307 307 307 307 307 306 306 307 307 309 310 311 312 312 312 314 316 318 319 321 322 324 324 325 327 328 329 329 329
309 309 309 309 308 307 307 308 308 307 307 307 306 306 306 306 306 306 306 306 306 306 307 308 308 310 310 309 309 311 314 316 318 320 322 324 325 326 327 327 328 328
308 308 308 308 307 307 307 308 307 307 306 305 305 305 305 305 305 305 305 305 305 305 306 307 308 309 308 307 306 308 311 313 316 318 321 323 324 324 325 326 327 327
307 307 307 307 307 307 307 307 307 306 306 305 304 304 304 304 305 304 304 304 305 306 306 307 307 307 306 305 306 309 311 313 315 318 320 320 321 322 324 326 327 327
306 306 306 306 306 306 306 306 306 305 305 304 303 303 303 305 305 304 303 303 303 305 306 306 305 304 306 309 311 312 313 314 315 318 319 319 320 322 324 326 327 326
305 305 305 306 306 306 306 305 305 304 304 303 303 302 303 304 305 304 303 302 302 303 304 304 303 305 308 312 314 315 315 315 316 317 319 320 321 322 324 325 326 325
303 304 305 305 305 305 305 305 304 304 303 303 302 302 302 303 303 303 302 302 303 303 302 302 303 306 309 312 314 315 316 316 316 317 317 318 319 321 322 323 324 324
302 303 303 304 303 303 304 304 304 303 302 302 302 301 302 302 302 302 301 302 302 302 302 302 304 307 310 312 313 314 315 315 315 315 315 317 318 319 320 320 321 323
302 301 302 302 302 303 303 303 303 302 302 302 301 301 301 301 301 301 301 301 301 301 301 301 303 307 311 313 314 314 314 314 314 314 314 315 315 315 316 317 319 320
301 301 301 301 302 302 302 302 302 301 301 301 301 301 300 300 300 300 300 300 300 300 300 301 303 307 311 313 313 313 313 313 313 312 312 312 312 312 313 315 317 319
301 301 301 301 301 302 302 301 301 301 301 300 300 300 300 300 299 299 299 299 299 299 299 300 302 306 309 311 312 312 311 310 309 309 309 309 309 309 310 311 314 316
300 300 300 301 301 301 301 301 301 300 300 300 300 299 299 299 299 299 299 299 299 299 298 299 301 304 307 308 310 311 309 307 305 305 305 305 305 306 308 309 310 312
299 299 299 300 300 300 300 300 300 300 300 300 299 299 299 298 298 298 299 298 298 298 298 298 299 302 305 307 308 309 308 305 303 303 303 303 303 304 306 308 309 310
298 298 299 299 299 299 299 300 300 300 300 299 299 299 298 298 298 298 298 298 298 298 298 298 299 300 303 305 306 308 307 304 302 301 301 301 301 302 303 305 306 307
298 298 298 298 299 299 299 299 299 300 300 299 299 299 299 298 298 298 298 298 298 298 298 298 299 299 300 302 304 305 306 305 303 301 300 300 300 300 301 302 303 304

ECMWFNIL_925_thetae_108.txt.gz
Theta_e
323 323 323 324 323 323 323 323 322 322 321 320 320 320 320 320 321 322 323 324 325 325 326 326 327 327 328 329 329 329 330 330 330 331 331 331 331 330 330 329 329 329
322 322 322 322 322 321 321 321 320 320 319 318 318 317 317 317 318 318 319 320 321 323 324 325 326 327 327 328 329 329 329 329 330 330 330 331 330 329 328 328 328 329
320 320 321 320 320 319 319 319 319 318 318 317 316 316 316 316 316 316 316 316 317 318 321 324 325 326 327 328 328 328 328 328 328 329 330 331 330 328 328 328 328 328
319 319 318 318 318 317 317 317 317 317 316 316 315 315 315 315 315 315 315 316 316 317 319 322 324 325 326 326 327 327 326 327 327 328 329 330 330 329 329 328 326 326
317 317 316 316 316 315 316 316 315 314 314 313 313 313 314 314 315 315 315 316 317 317 319 321 322 324 324 325 324 324 325 326 326 327 328 329 329 329 329 328 327 327
316 315 315 314 314 314 314 313 312 312 311 311 312 312 313 314 314 315 315 315 316 317 318 319 320 322 322 322 322 322 323 323 324 326 327 328 328 328 329 329 327 327
314 314 314 313 313 313 312 311 310 309 309 308 309 310 311 312 313 313 313 314 315 315 316 316 317 319 319 319 320 320 321 321 322 324 326 327 327 328 328 328 326 326
313 313 312 312 312 311 310 309 308 307 307 307 307 308 308 308 308 309 310 311 311 312 313 314 315 315 316 316 316 317 318 319 320 321 322 324 325 326 327 327 326 325
312 312 311 311 310 309 308 308 307 307 307 307 307 307 307 307 307 306 307 308 308 309 310 311 312 313 313 313 313 313 313 315 317 319 320 321 322 323 324 325 325 326
311 310 310 310 309 309 308 308 308 308 307 307 308 308 308 307 307 307 308 308 309 309 309 310 310 310 310 311 311 311 311 311 314 316 317 319 320 320 322 323 324 325
310 309 309 309 309 308 308 308 308 307 307 307 307 308 309 308 309 309 309 309 309 308 308 310 310 310 310 310 309 309 309 308 310 312 315 316 317 318 319 320 322 324
309 309 308 308 308 308 307 307 307 307 307 306 306 307 308 308 309 308 307 308 308 308 307 308 309 309 308 307 307 307 308 309 309 310 312 314 315 316 318 320 321 323
308 308 308 308 308 307 307 306 305 305 306 305 305 306 307 306 307 308 307 307 307 307 307 307 308 308 306 306 307 309 311 312 312 311 311 313 314 316 318 320 321 322
307 307 307 307 307 307 307 306 305 304 304 304 305 306 306 305 305 306 307 307 307 306 306 307 307 306 305 306 309 312 314 315 314 312 311 312 315 317 318 320 321 322
307 307 307 307 307 307 306 305 304 303 303 304 305 306 305 304 303 304 305 305 306 306 306 306 306 304 304 307 308 311 314 315 313 311 310 312 314 316 319 320 321 323
306 307 307 306 306 305 305 304 304 302 302 303 304 304 304 303 303 303 303 302 304 305 305 305 304 303 306 309 309 310 312 312 311 310 310 310 311 313 317 319 321 322
305 306 306 305 305 304 304 304 303 302 302 303 303 302 302 302 302 302 301 301 302 302 303 304 304 304 307 310 310 310 310 309 309 308 309 309 310 312 314 317 319 321
304 304 304 304 304 304 303 303 302 302 301 302 301 301 301 301 301 300 300 301 301 300 301 302 303 305 308 309 309 310 309 308 307 307 307 307 309 311 312 314 317 318
303 303 303 303 303 303 303 302 302 301 301 301 301 300 300 300 300 300 300 300 300 300 300 300 302 304 307 308 309 309 309 307 306 305 305 306 307 308 310 312 314 315
302 302 302 302 302 302 302 302 301 301 300 300 300 300 299 299 299 299 299 299 299 299 299 299 301 304 306 308 308 308 308 307 305 304 304 305 305 306 308 310 311 311
301 302 302 302 302 302 302 302 301 301 300 300 299 299 299 299 298 298 298 298 298 298 299 299 300 303 307 307 307 307 306 305 305 304 304 305 305 305 306 307 308 309
301 301 301 301 301 302 301 301 301 300 299 299 299 299 299 298 298 298 298 298 298 298 298 299 300 303 306 307 307 306 304 303 303 303 303 303 303 304 304 305 306 307
300 301 301 301 301 301 301 301 301 300 299 299 299 299 298 298 298 298 297 298 298 298 298 298 298 300 303 305 307 306 303 301 301 301 301 302 302 302 303 303 304 305
300 301 301 301 301 301 300 300 300 299 299 299 299 298 298 298 298 297 297 297 297 297 297 297 298 299 300 302 304 305 303 300 299 299 299 300 300 300 300 301 302 303
300 301 301 301 301 300 300 299 299 299 299 299 299 298 298 298 298 297 297 297 297 297 297 297 297 298 299 300 301 302 301 299 299 299 298 298 298 299 299 299 300 301
300 301 300 300 300 299 299 299 299 299 299 299 299 299 298 298 298 297 297 296 296 296 296 296 297 297 298 299 299 300 300 299 299 298 298 298 298 298 298 298 298 299

ECMWFNIL_925_thetae_111.txt.gz
Theta_e
322 322 322 321 320 319 319 319 319 318 317 316 316 316 316 316 316 316 316 316 316 316 316 318 321 324 325 326 327 327 327 327 328 328 328 328 328 328 328 328 329 328
320 320 320 319 318 318 318 317 318 318 317 316 315 315 315 315 315 315 315 315 316 316 317 318 320 322 323 324 325 326 326 326 327 327 327 328 327 327 327 327 327 327
318 318 318 317 317 316 316 317 317 317 316 314 313 313 313 313 314 314 314 314 314 315 316 317 319 320 321 323 323 323 324 325 325 325 326 326 327 327 327 327 327 327
316 316 316 315 316 316 316 316 315 314 313 312 312 312 312 312 312 312 312 313 313 313 314 315 316 318 319 320 320 320 321 322 322 322 322 324 325 327 327 327 326 327
315 315 315 315 315 315 314 314 313 312 311 310 310 310 310 311 310 310 310 311 311 311 312 312 313 315 316 317 318 319 319 320 320 320 320 321 322 324 326 327 326 326
314 314 314 313 313 312 312 311 311 310 310 310 309 309 309 309 309 309 309 309 309 310 310 310 311 312 312 313 314 316 317 317 317 318 318 319 319 320 323 325 326 327
313 312 312 312 311 311 310 310 310 309 309 309 309 308 308 308 308 308 308 308 309 309 309 310 310 310 311 311 311 312 313 314 314 314 315 316 317 318 320 322 324 325
312 311 311 311 310 310 310 309 309 309 309 309 309 308 308 308 308 308 308 309 309 309 310 310 310 310 311 310 310 310 311 312 312 312 312 313 314 316 317 319 320 322
311 311 310 310 310 309 309 309 309 308 308 308 308 308 308 308 308 308 309 309 309 310 310 310 310 309 309 309 309 309 309 310 310 310 311 311 312 313 314 316 317 319
311 310 310 310 309 309 308 308 308 308 307 307 307 307 308 308 308 308 309 308 309 309 308 308 308 308 308 308 309 308 308 309 309 309 309 309 309 310 311 313 315 317
310 309 309 309 308 308 307 307 307 307 306 306 307 307 307 307 307 308 308 307 307 307 306 307 306 306 307 308 309 309 309 309 309 309 308 309 308 309 310 312 314 316
309 308 308 307 307 307 307 306 306 306 306 306 306 306 307 306 306 307 306 306 306 305 305 305 305 305 306 307 308 310 310 309 309 309 308 309 309 309 311 312 313 315
307 307 307 306 306 306 306 305 305 305 305 305 305 306 305 305 305 305 305 305 305 305 305 305 304 305 306 306 307 309 308 308 308 309 308 308 309 310 311 312 313 314
306 306 305 305 305 305 305 305 305 305 305 305 305 305 304 304 304 304 304 304 304 304 304 304 303 303 303 304 306 308 308 307 307 308 308 308 309 310 311 312 313 315
305 305 304 304 305 304 304 304 304 304 304 304 304 304 304 303 303 303 303 303 303 303 303 303 302 302 303 304 305 307 307 307 307 307 307 307 308 309 310 311 312 314
304 304 303 304 304 304 304 304 304 304 304 304 303 303 303 303 303 303 303 302 302 302 302 302 301 302 304 305 306 307 307 306 306 306 306 306 306 307 308 310 311 312
303 303 302 303 303 303 303 303 304 304 303 303 303 303 303 304 303 303 302 302 302 301 301 301 300 302 306 307 308 309 308 306 306 306 305 305 305 305 306 308 309 310
303 302 302 303 303 303 303 303 303 303 303 303 303 303 303 303 302 301 301 301 301 301 301 300 300 302 306 308 309 309 307 305 305 305 305 304 304 304 304 305 306 307
302 301 302 302 302 303 303 303 302 302 302 302 302 302 301 301 301 301 301 301 301 301 301 300 300 303 306 307 308 309 306 305 304 304 304 303 303 303 303 303 303 304
302 301 302 302 302 303 303 302 301 301 301 301 301 301 300 300 301 301 301 301 301 301 301 300 300 303 306 307 307 307 305 303 303 303 303 303 302 302 302 301 301 302
301 301 301 302 302 302 302 301 300 300 300 300 300 300 300 300 300 300 300 300 300 300 301 299 299 302 305 306 306 305 303 302 303 302 302 302 301 301 301 301 301 301
301 301 301 301 301 301 301 300 300 300 300 300 299 299 299 299 299 299 299 299 299 299 300 299 299 301 304 305 305 304 302 302 302 301 301 300 300 300 300 300 300 299
301 301 301 301 300 300 300 299 299 299 299 299 299 299 299 299 299 298 298 298 298 298 299 299 298 300 302 303 304 303 301 301 301 300 300 300 300 300 300 299 299 299
301 300 300 300 299 299 299 299 299 299 298 299 299 299 299 298 298 298 297 297 297 297 298 298 298 298 300 302 302 302 301 300 301 300 300 299 299 299 299 299 299 299
300 300 299 299 299 299 299 299 298 298 298 298 299 299 299 298 298 298 297 297 297 297 297 297 298 298 299 300 301 301 300 299 299 300 299 299 299 299 299 298 298 298
300 299 299 299 299 299 299 299 298 298 298 298 298 298 298 298 298 298 298 297 297 297 296 297 297 297 297 299 300 300 300 299 299 299 298 298 298 298 298 298 298 298

ECMWFNIL_925_thetae_114.txt.gz
Theta_e
327 326 326 325 324 324 323 323 323 323 322 322 322 321 321 320 319 319 319 319 319 319 320 320 321 323 324 325 326 326 327 328 328 329 329 330 330 330 330 331 331 331
324 323 323 323 322 321 321 321 321 321 321 320 319 319 319 318 317 317 317 317 317 318 318 319 320 321 322 323 324 325 325 326 327 327 328 328 328 329 329 330 330 330
321 321 321 321 321 320 320 320 320 320 319 318 317 317 316 316 316 316 316 316 316 316 317 317 318 318 319 320 321 322 323 324 325 325 325 325 326 326 327 328 329 330
320 320 320 320 320 319 319 319 318 317 316 316 315 315 314 314 314 314 314 314 315 315 315 316 316 316 317 317 318 319 320 322 322 322 322 323 323 324 324 325 327 329
320 319 319 319 318 318 318 317 316 315 315 315 314 313 313 313 313 313 313 314 314 314 314 315 315 315 315 316 316 317 318 319 319 319 319 320 321 322 323 323 324 326
318 318 318 317 317 317 316 315 315 315 314 314 313 313 313 313 313 313 313 313 313 314 314 314 314 314 314 315 315 316 316 317 317 317 317 318 318 319 320 321 322 324
318 317 317 316 316 315 315 315 314 314 313 313 313 312 312 312 312 312 312 313 313 313 313 313 313 314 314 314 315 315 315 315 315 315 315 316 316 316 317 319 321 322
317 316 316 315 314 314 314 313 313 312 312 312 312 312 311 311 312 312 312 312 312 312 312 312 312 313 313 313 313 313 314 314 314 313 313 314 314 315 315 316 317 319
316 315 314 314 313 312 312 312 311 311 311 311 311 311 311 311 311 311 311 311 311 311 311 311 311 312 312 312 312 312 312 312 312 312 312 312 313 314 314 315 315 317
314 314 313 312 312 311 311 311 310 310 310 310 310 310 310 310 310 310 310 310 310 310 310 310 310 311 311 311 311 311 312 312 312 312 311 311 311 312 313 313 314 315
313 312 312 312 311 310 310 310 310 310 309 309 309 310 309 310 309 309 309 309 309 309 309 309 309 309 309 309 310 311 311 312 312 312 311 311 311 311 312 312 313 314
312 312 311 311 310 310 309 309 309 309 309 309 309 309 309 309 309 309 308 309 309 309 309 308 308 307 307 308 309 310 311 311 312 312 312 311 311 311 312 312 312 313
311 311 310 310 309 309 308 308 308 308 308 308 308 308 309 309 309 308 308 309 309 309 308 307 306 305 305 306 307 308 310 311 312 312 312 311 311 310 310 311 311 311
310 310 309 309 308 308 308 308 308 308 308 308 308 308 308 308 308 308 309 309 309 308 307 305 304 304 303 305 306 307 309 311 311 311 311 311 310 309 309 310 310 310
309 309 309 308 308 308 308 308 308 307 308 308 308 307 308 308 308 308 308 309 309 308 306 304 303 302 302 303 305 306 309 311 311 310 310 309 309 309 309 310 310 310
309 308 308 308 308 307 308 308 308 308 308 308 308 307 308 308 308 308 308 308 308 307 306 304 301 301 302 303 304 305 308 310 309 309 308 308 308 309 309 309 309 309
308 308 307 307 307 307 307 308 308 307 308 308 307 307 307 307 307 307 307 307 307 306 305 303 301 301 303 304 304 305 307 308 308 308 307 307 307 307 308 308 308 308
308 307 307 307 307 307 307 307 307 307 307 307 307 307 307 307 306 306 306 307 307 306 305 303 301 302 304 304 303 305 306 307 307 307 307 306 306 306 306 306 306 307
308 307 307 307 307 307 307 307 307 307 307 307 306 306 306 306 306 305 306 306 306 305 304 302 301 303 304 303 303 304 306 307 307 306 306 306 306 305 305 304 304 305
307 307 307 307 307 307 307 307 307 306 306 306 306 306 306 306 305 305 305 305 305 305 304 302 301 302 303 303 304 304 305 306 306 306 305 305 304 304 303 303 303 303
307 306 307 307 306 306 306 306 306 306 306 306 306 305 305 305 305 304 304 304 304 304 304 302 301 302 303 303 304 304 305 306 306 305 305 304 303 303 303 302 301 302
306 306 306 306 306 306 306 306 305 305 305 305 305 304 304 304 303 303 303 303 303 303 303 302 300 301 302 302 303 304 305 306 305 305 304 304 303 302 302 301 300 300
306 306 306 305 305 305 305 305 305 305 304 304 304 304 303 303 303 303 302 302 302 302 302 302 300 300 301 302 303 304 305 305 305 305 304 303 303 302 302 301 300 298
305 305 305 305 304 304 304 304 304 304 304 304 304 303 303 302 302 303 302 302 301 301 301 301 299 299 300 301 301 303 304 305 304 304 303 303 302 302 301 301 300 298
304 304 304 304 304 304 304 304 304 304 304 304 303 303 302 302 302 302 302 302 301 300 300 301 300 298 298 299 300 301 302 303 303 303 303 302 302 301 301 300 300 299
303 304 303 303 304 304 304 303 303 303 303 303 303 302 302 302 302 302 302 301 301 300 299 299 299 298 297 298 299 299 301 302 302 302 302 301 301 300 300 300 300 299

ECMWFNIL_925_thetae_117.txt.gz
Theta_e
331 330 329 329 328 327 327 327 326 326 325 325 325 324 323 323 321 321 321 321 321 321 321 321 322 323 323 325 325 326 327 327 328 328 329 329 330 330 330 331 331 331
327 327 327 326 325 325 325 325 324 324 324 323 322 322 321 320 320 320 319 319 319 320 320 320 320 320 321 322 323 323 325 326 326 327 327 327 327 328 328 329 329 330
325 325 325 324 324 323 323 323 323 322 322 321 320 319 319 318 318 318 318 318 318 318 318 318 319 319 319 320 320 321 322 323 324 324 324 324 324 325 325 326 327 327
323 323 323 322 322 322 322 322 321 320 320 319 318 317 317 317 317 317 317 317 318 318 318 318 318 318 318 319 319 320 320 321 322 321 321 321 322 322 323 324 324 325
322 322 321 321 321 321 320 320 319 319 318 318 317 317 317 317 316 316 317 317 317 317 317 317 317 317 318 318 318 319 319 319 320 319 319 320 320 320 321 321 321 322
321 321 321 320 320 320 319 318 318 318 317 317 316 316 316 316 316 316 316 317 317 317 317 316 317 317 317 317 318 318 318 319 319 318 318 319 319 319 319 319 319 320
320 320 320 319 319 319 318 317 317 317 316 316 315 315 315 315 315 315 316 316 316 316 315 315 316 316 316 316 317 317 317 317 318 317 318 318 317 318 318 318 318 319
319 319 318 317 317 317 316 315 315 315 315 315 315 314 314 314 314 314 314 315 314 314 315 315 315 315 315 316 316 316 316 317 317 317 317 317 316 316 317 317 317 318
318 317 316 316 316 315 315 314 314 314 314 314 314 313 313 313 313 313 313 313 313 314 314 314 314 315 315 315 315 315 315 316 316 316 316 316 316 315 316 316 316 317
316 316 315 315 314 314 314 313 313 313 313 313 313 313 313 313 312 312 313 313 313 313 313 313 313 313 313 313 313 314 315 315 315 316 316 316 315 315 314 315 315 315
316 315 314 314 313 313 313 312 312 312 312 312 312 312 312 312 312 312 313 313 313 313 312 312 312 311 310 310 310 312 313 314 315 315 315 315 315 313 313 313 313 314
315 314 313 313 312 312 312 312 312 312 312 312 312 312 312 312 312 312 312 313 313 312 311 310 309 308 307 307 307 309 312 314 314 314 314 314 314 313 313 313 313 313
314 313 312 312 312 311 311 311 311 311 311 311 311 312 312 312 312 312 312 312 312 311 309 308 307 306 305 305 306 308 310 313 314 313 313 313 313 313 313 313 313 313
312 312 312 311 311 311 311 311 311 311 311 311 311 311 311 312 312 312 312 312 311 310 309 307 306 304 304 304 305 307 309 311 312 312 311 311 312 312 312 312 313 312
311 311 311 311 311 311 310 311 311 311 311 311 311 311 311 311 311 311 311 311 310 309 308 307 305 303 303 304 305 307 309 310 311 311 310 310 310 311 311 311 311 311
311 311 310 310 311 311 311 310 311 310 310 311 310 310 310 310 310 310 310 310 309 308 307 306 304 303 304 305 306 307 308 310 310 310 310 310 309 310 310 309 310 310
311 311 310 310 310 310 311 310 310 310 310 310 310 310 310 309 309 310 309 309 308 307 306 305 304 303 304 306 306 307 308 309 310 309 309 308 308 308 308 307 308 308
310 310 310 310 310 310 310 310 310 310 310 310 309 309 309 309 309 309 309 309 308 307 305 304 303 304 304 305 306 307 308 309 309 308 308 307 307 307 306 306 306 306
310 310 310 310 310 310 310 309 309 309 309 309 309 309 308 308 308 308 308 308 307 306 305 303 302 304 304 305 306 306 307 308 308 308 307 307 306 305 305 304 304 304
310 310 310 310 310 309 309 309 309 309 309 309 308 308 308 307 307 307 307 307 306 306 305 303 302 303 304 304 305 306 307 307 307 307 306 306 305 305 304 303 302 302
310 310 309 309 309 309 308 308 308 308 308 308 308 307 307 307 306 306 306 306 306 305 304 302 300 302 303 304 305 306 307 307 307 306 306 305 304 304 304 303 301 301
309 309 309 309 308 308 308 308 308 308 307 307 307 306 306 306 306 305 305 305 305 304 303 301 299 300 302 303 305 306 307 307 306 306 305 305 304 303 303 302 301 300
309 308 308 308 308 308 308 307 307 307 306 306 306 306 306 306 305 305 304 304 304 304 302 301 299 299 300 302 303 305 306 306 306 305 304 304 303 303 302 302 300 299
308 308 307 307 307 307 307 307 307 306 306 306 306 306 306 305 304 303 303 302 303 303 302 301 299 298 299 301 302 303 304 305 305 304 303 303 303 302 302 302 301 299
307 307 307 306 306 306 306 306 306 306 306 306 305 305 305 305 304 304 302 302 301 301 301 301 299 297 297 299 301 302 303 304 304 303 303 302 302 302 301 301 301 300
306 306 306 306 306 306 305 305 306 306 306 305 305 304 304 304 304 304 304 303 301 300 299 300 300 298 296 297 298 300 301 303 303 302 302 302 302 301 301 301 300 300